[[{"header":{"parameterUnit":"m.s-1","parameterCategory":1,"la1":30.6,"la2":28.766,"lo1":-90.7593,"lo2":-88.6598,"dy":0.0162,"dx":0.0183,"nx":116,"ny":114,"refTime":"2023-05-12T06:00:00:Z","depth":0,"parameterNumber":2,"parameterNumberName":"U-component_of_WINDS"},"data":[0.0,0.0,0.0,0.0,0.0,0.0,0.0,0.0,0.0,0.0,0.0,0.0,0.0,0.0,0.0,0.0,0.0,0.0,0.0,0.0,0.0,0.0,0.0,0.0,0.0,0.0,0.0,0.0,0.0,0.0,0.0,0.0,0.0,0.0,0.0,0.0,0.0,0.0,0.0,0.0,0.0,0.0,0.0,0.0,0.0,0.0,0.0,0.0,0.0,0.0,0.0,0.0,0.0,0.0,0.0,0.0,0.0,0.0,0.0,0.0,0.0,0.0,0.0,0.0,0.0,0.0,0.0,0.0,0.0,0.0,0.0,0.0,0.0,0.0,0.0,0.0,0.0,0.0,0.0,0.0,0.0,0.0,0.0,0.0,0.0,0.0,0.0,0.0,0.0,0.0,0.0,0.0,0.0,0.0,0.0,0.0,0.0,0.0,0.0,0.0,0.0,0.0,0.0,0.0,0.0,0.0,0.0,0.0,0.0,0.0,0.0,0.0,0.0,0.0,0.0,0.0,0.0,0.0,0.0,0.0,0.0,0.0,0.0,0.0,0.0,0.0,0.0,0.0,0.0,0.0,0.0,0.0,0.0,0.0,0.0,0.0,0.0,0.0,0.0,0.0,0.0,0.0,0.0,0.0,0.0,0.0,0.0,0.0,0.0,0.0,0.0,0.0,0.0,0.0,0.0,0.0,0.0,0.0,0.0,0.0,0.0,0.0,0.0,0.0,0.0,0.0,0.0,0.0,0.0,0.0,0.0,0.0,0.0,0.0,0.0,0.0,0.0,0.0,0.0,0.0,0.0,0.0,0.0,0.0,0.0,0.0,0.0,0.0,0.0,0.0,0.0,0.0,0.0,0.0,0.0,0.0,0.0,0.0,0.0,0.0,0.0,0.0,0.0,0.0,0.0,0.0,0.0,0.0,0.0,0.0,0.0,0.0,0.0,0.0,0.0,0.0,0.0,0.0,0.0,0.0,0.0,0.0,0.0,0.0,0.0,0.0,0.0,0.0,0.0,0.0,0.0,0.0,0.0,0.0,0.0,0.0,0.0,0.0,0.0,0.0,0.0,0.0,0.0,0.0,0.0,0.0,0.0,0.0,0.0,0.0,0.0,0.0,0.0,0.0,0.0,0.0,0.0,0.0,0.0,0.0,0.0,0.0,0.0,0.0,0.0,0.0,0.0,0.0,0.0,0.0,0.0,0.0,0.0,0.0,0.0,0.0,0.0,0.0,0.0,0.0,0.0,0.0,0.0,0.0,0.0,0.0,0.0,0.0,0.0,0.0,0.0,0.0,0.0,0.0,0.0,0.0,0.0,0.0,0.0,0.0,0.0,0.0,0.0,0.0,0.0,0.0,0.0,0.0,0.0,0.0,0.0,0.0,0.0,0.0,0.0,0.0,0.0,0.0,0.0,0.0,0.0,0.0,0.0,0.0,0.0,0.0,0.0,0.0,0.0,0.0,0.0,0.0,0.0,0.0,0.0,0.0,0.0,0.0,0.0,0.0,0.0,0.0,0.0,0.0,0.0,0.0,0.0,0.0,0.0,0.0,0.0,0.0,0.0,0.0,0.0,0.0,0.0,0.0,0.0,0.0,0.0,0.0,0.0,0.0,0.0,0.0,0.0,0.0,0.0,0.0,0.0,0.0,0.0,0.0,0.0,0.0,0.0,0.0,0.0,0.0,0.0,0.0,0.0,0.0,0.0,0.0,0.0,0.0,0.0,0.0,0.0,0.0,0.0,0.0,0.0,0.0,0.0,0.0,0.0,0.0,0.0,0.0,0.0,0.0,0.0,0.0,0.0,0.0,0.0,0.0,0.0,0.0,0.0,0.0,0.0,0.0,0.0,0.0,0.0,0.0,0.0,0.0,0.0,0.0,0.0,0.0,0.0,0.0,0.0,0.0,0.0,0.0,0.0,0.0,0.0,0.0,0.0,0.0,0.0,0.0,0.0,0.0,0.0,0.0,0.0,0.0,0.0,0.0,0.0,0.0,0.0,0.0,0.0,0.0,0.0,0.0,0.0,0.0,0.0,0.0,0.0,0.0,0.0,0.0,0.0,0.0,0.0,0.0,0.0,0.0,0.0,0.0,0.0,0.0,0.0,0.0,0.0,0.0,0.0,0.0,0.0,0.0,0.0,0.0,0.0,0.0,0.0,0.0,0.0,0.0,0.0,0.0,0.0,0.0,0.0,0.0,0.0,0.0,0.0,0.0,0.0,0.0,0.0,0.0,0.0,0.0,0.0,0.0,0.0,0.0,0.0,0.0,0.0,0.0,0.0,0.0,0.0,0.0,0.0,0.0,0.0,0.0,0.0,0.0,0.0,0.0,0.0,0.0,0.0,0.0,0.0,0.0,0.0,0.0,0.0,0.0,0.0,0.0,0.0,0.0,0.0,0.0,0.0,0.0,0.0,0.0,0.0,0.0,0.0,0.0,0.0,0.0,0.0,0.0,0.0,0.0,0.0,0.0,0.0,0.0,0.0,0.0,0.0,0.0,0.0,0.0,0.0,0.0,0.0,0.0,0.0,0.0,0.0,0.0,0.0,0.0,0.0,0.0,0.0,0.0,0.0,0.0,0.0,0.0,0.0,0.0,0.0,0.0,0.0,0.0,0.0,0.0,0.0,0.0,0.0,0.0,0.0,0.0,0.0,0.0,0.0,0.0,0.0,0.0,0.0,0.0,0.0,0.0,0.0,0.0,0.0,0.0,0.0,0.0,0.0,0.0,0.0,0.0,0.0,0.0,0.0,0.0,0.0,0.0,0.0,0.0,0.0,0.0,0.0,0.0,0.0,0.0,0.0,0.0,0.0,0.0,0.0,0.0,0.0,0.0,0.0,0.0,0.0,0.0,0.0,0.0,0.0,0.0,0.0,0.0,0.0,0.0,0.0,0.0,0.0,0.0,0.0,0.0,0.0,0.0,0.0,0.0,0.0,0.0,0.0,0.0,0.0,0.0,0.0,0.0,0.0,0.0,0.0,0.0,0.0,0.0,0.0,0.0,0.0,0.0,0.0,0.0,0.0,0.0,0.0,0.0,0.0,0.0,0.0,0.0,0.0,0.0,0.0,0.0,0.0,0.0,0.0,0.0,0.0,0.0,0.0,0.0,0.0,0.0,0.0,0.0,0.0,0.0,0.0,0.0,0.0,0.0,0.0,0.0,0.0,0.0,0.0,0.0,0.0,0.0,0.0,0.0,0.0,0.0,0.0,0.0,0.0,0.0,0.0,0.0,0.0,0.0,0.0,0.0,0.0,0.0,0.0,0.0,0.0,0.0,0.0,0.0,0.0,0.0,0.0,0.0,0.0,0.0,0.0,0.0,0.0,0.0,0.0,0.0,0.0,0.0,0.0,0.0,0.0,0.0,0.0,0.0,0.0,0.0,0.0,0.0,0.0,0.0,0.0,0.0,0.0,0.0,0.0,0.0,0.0,0.0,0.0,0.0,0.0,0.0,0.0,0.0,0.0,0.0,0.0,0.0,0.0,0.0,0.0,0.0,0.0,0.0,0.0,0.0,0.0,0.0,0.0,0.0,0.0,0.0,0.0,0.0,0.0,0.0,0.0,0.0,0.0,0.0,0.0,0.0,0.0,0.0,0.0,0.0,0.0,0.0,0.0,0.0,0.0,0.0,0.0,0.0,0.0,0.0,0.0,0.0,0.0,0.0,0.0,0.0,0.0,0.0,0.0,0.0,0.0,0.0,0.0,0.0,0.0,0.0,0.0,0.0,0.0,0.0,0.0,0.0,0.0,0.0,0.0,0.0,0.0,0.0,0.0,0.0,0.0,0.0,0.0,0.0,0.0,0.0,0.0,0.0,0.0,0.0,0.0,0.0,0.0,0.0,0.0,0.0,0.0,0.0,0.0,0.0,0.0,0.0,0.0,0.0,0.0,0.0,0.0,0.0,0.0,0.0,0.0,0.0,0.0,0.0,0.0,0.0,0.0,0.0,0.0,0.0,0.0,0.0,0.0,0.0,0.0,0.0,0.0,0.0,0.0,0.0,0.0,0.0,0.0,0.0,0.0,0.0,0.0,0.0,0.0,0.0,0.0,0.0,0.0,0.0,0.0,0.0,0.0,0.0,0.0,0.0,0.0,0.0,0.0,0.0,0.0,0.0,0.0,0.0,0.0,0.0,0.0,0.0,0.0,0.0,0.0,0.0,0.0,0.0,0.0,0.0,0.0,0.0,0.0,0.0,0.0,0.0,0.0,0.0,0.0,0.0,0.0,0.0,0.0,0.0,0.0,0.0,0.0,0.0,0.0,0.0,0.0,0.0,0.0,0.0,0.0,0.0,0.0,0.0,0.0,0.0,0.0,0.0,0.0,0.0,0.0,0.0,0.0,0.0,0.0,0.0,0.0,0.0,0.0,0.0,0.0,0.0,0.0,0.0,0.0,0.0,0.0,0.0,0.0,0.0,0.0,0.0,0.0,0.0,0.0,0.0,0.0,0.0,0.0,0.0,0.0,0.0,0.0,0.0,0.0,0.0,0.0,0.0,0.0,0.0,0.0,0.0,0.0,0.0,0.0,0.0,0.0,0.0,0.0,0.0,0.0,0.0,0.0,0.0,0.0,0.0,0.0,0.0,0.0,0.0,0.0,0.0,0.0,0.0,0.0,0.0,0.0,0.0,0.0,0.0,0.0,0.0,0.0,0.0,0.0,0.0,0.0,0.0,0.0,0.0,0.0,0.0,0.0,0.0,0.0,0.0,0.0,0.0,0.0,0.0,0.0,0.0,0.0,0.0,0.0,0.0,0.0,0.0,0.0,0.0,0.0,0.0,0.0,0.0,0.0,0.0,0.0,0.0,0.0,0.0,0.0,0.0,0.0,0.0,0.0,0.0,0.0,0.0,0.0,0.0,0.0,0.0,0.0,0.0,0.0,0.0,0.0,0.0,0.0,0.0,0.0,0.0,0.0,0.0,0.0,0.0,0.0,0.0,0.0,0.0,0.0,0.0,0.0,0.0,0.0,0.0,0.0,0.0,0.0,0.0,0.0,0.0,0.0,0.0,0.0,0.0,0.0,0.0,0.0,0.0,0.0,0.0,0.0,0.0,0.0,0.0,0.0,0.0,0.0,0.0,0.0,0.0,0.0,0.0,0.0,0.0,0.0,0.0,0.0,0.0,0.0,0.0,0.0,0.0,0.0,0.0,0.0,0.0,0.0,0.0,0.0,0.0,0.0,0.0,0.0,0.0,0.0,0.0,0.0,0.0,0.0,0.0,0.0,0.0,0.0,0.0,0.0,0.0,0.0,0.0,0.0,0.0,0.0,0.0,0.0,0.0,0.0,0.0,0.0,0.0,0.0,0.0,0.0,0.0,0.0,0.0,0.0,0.0,0.0,0.0,0.0,0.0,0.0,0.0,0.0,0.0,0.0,0.0,0.0,0.0,0.0,0.0,0.0,0.0,0.0,0.0,0.0,0.0,0.0,0.0,0.0,0.0,0.0,0.0,0.0,0.0,0.0,0.0,0.0,0.0,0.0,0.0,0.0,0.0,0.0,0.0,0.0,0.0,0.0,0.0,0.0,0.0,0.0,0.0,0.0,0.0,0.0,0.0,0.0,0.0,0.0,0.0,0.0,0.0,0.0,0.0,0.0,0.0,0.0,0.0,0.0,0.0,0.0,0.0,0.0,0.0,0.0,0.0,0.0,0.0,0.0,0.0,0.0,0.0,0.0,0.0,0.0,0.0,0.0,0.0,0.0,0.0,0.0,0.0,0.0,0.0,0.0,0.0,0.0,0.0,0.0,0.0,0.0,0.0,0.0,0.0,0.0,0.0,0.0,0.0,0.0,0.0,0.0,0.0,0.0,0.0,0.0,0.0,0.0,0.0,0.0,0.0,0.0,0.0,0.0,0.0,0.0,0.0,0.0,0.0,0.0,0.0,0.0,0.0,0.0,0.0,0.0,0.0,0.0,0.0,0.0,0.0,0.0,0.0,0.0,0.0,0.0,0.0,0.0,0.0,0.0,0.0,0.0,0.0,0.0,0.0,0.0,0.0,0.0,0.0,0.0,0.0,0.0,0.0,0.0,0.0,0.0,0.0,0.0,0.0,0.0,0.0,0.0,0.0,0.0,0.0,0.0,0.0,0.0,0.0,0.0,0.0,-0.9542,-0.9656,0.0,0.0,0.0,0.0,0.0,0.0,0.0,0.0,0.0,0.0,0.0,0.0,0.0,0.0,0.0,0.0,0.0,0.0,0.0,0.0,0.0,0.0,0.0,0.0,0.0,0.0,0.0,0.0,0.0,0.0,0.0,0.0,0.0,0.0,0.0,0.0,0.0,-1.1606,-1.2012,-1.2515,-1.312,-1.374,-1.4091,-1.4272,0.0,0.0,0.0,0.0,0.0,0.0,0.0,0.0,0.0,0.0,0.0,0.0,0.0,0.0,0.0,0.0,0.0,0.0,0.0,0.0,0.0,0.0,0.0,0.0,0.0,0.0,0.0,0.0,0.0,0.0,0.0,0.0,0.0,0.0,0.0,0.0,0.0,0.0,0.0,0.0,0.0,0.0,0.0,0.0,0.0,0.0,0.0,0.0,0.0,0.0,0.0,0.0,0.0,0.0,0.0,0.0,0.0,0.0,0.0,0.0,0.0,0.0,0.0,0.0,0.0,0.0,0.0,0.0,0.0,0.0,-0.935,-0.9246,0.0,0.0,0.0,0.0,0.0,0.0,0.0,0.0,0.0,0.0,0.0,0.0,0.0,0.0,0.0,0.0,0.0,0.0,0.0,0.0,0.0,0.0,0.0,-1.1953,-1.2379,-1.2876,-1.2915,-1.2915,0.0,0.0,0.0,0.0,0.0,0.0,-1.1841,-1.1841,-1.1841,-1.1841,-1.2383,-1.3256,-1.4445,-1.4523,-1.4712,-1.5023,-1.4657,0.0,0.0,0.0,0.0,0.0,0.0,0.0,0.0,0.0,0.0,0.0,0.0,0.0,0.0,0.0,0.0,0.0,0.0,0.0,0.0,0.0,0.0,0.0,0.0,0.0,0.0,0.0,0.0,0.0,0.0,0.0,0.0,0.0,0.0,0.0,0.0,0.0,0.0,0.0,0.0,0.0,0.0,0.0,0.0,0.0,0.0,0.0,0.0,0.0,0.0,0.0,0.0,0.0,0.0,0.0,0.0,0.0,0.0,0.0,0.0,0.0,0.0,0.0,-1.1428,-1.1375,-1.1788,-1.1269,-1.0873,-1.0547,-0.9817,-0.9368,-0.9145,-0.9141,0.0,0.0,0.0,0.0,0.0,0.0,0.0,0.0,0.0,0.0,0.0,0.0,0.0,0.0,0.0,0.0,0.0,0.0,0.0,0.0,0.0,-1.1953,-1.2379,-1.2876,-1.2915,-1.2915,-1.2915,0.0,0.0,0.0,0.0,0.0,-1.2739,-1.2739,-1.2739,-1.2739,-1.3887,-1.495,-1.585,-1.618,-1.639,-1.6376,-1.45,-1.4261,-1.5243,0.0,0.0,0.0,0.0,0.0,0.0,0.0,0.0,0.0,0.0,0.0,0.0,0.0,0.0,0.0,0.0,0.0,0.0,0.0,0.0,0.0,0.0,0.0,0.0,0.0,0.0,0.0,0.0,0.0,0.0,0.0,0.0,0.0,0.0,0.0,0.0,0.0,0.0,0.0,0.0,0.0,-1.242,-1.2468,0.0,0.0,0.0,0.0,0.0,0.0,0.0,0.0,0.0,0.0,0.0,0.0,0.0,-1.2197,-1.318,-1.2829,-1.2911,-1.3441,-1.3037,-1.2914,-1.2964,-1.2897,-1.2578,-1.2109,-1.1989,0.0,-0.9298,-0.8372,0.0,0.0,0.0,0.0,0.0,0.0,0.0,0.0,0.0,0.0,0.0,0.0,0.0,0.0,0.0,0.0,0.0,0.0,0.0,0.0,0.0,-1.2187,-1.2773,-1.3203,-1.3698,-1.3776,-1.3262,-1.3457,0.0,0.0,0.0,-1.2915,-1.2915,-1.3105,-1.3737,-1.4696,-1.5752,-1.6797,-1.7905,-1.8086,-1.8301,-1.8437,-1.6777,-1.5664,-1.5028,-1.456,0.0,0.0,0.0,0.0,0.0,0.0,0.0,0.0,0.0,0.0,0.0,0.0,0.0,0.0,0.0,0.0,0.0,0.0,0.0,0.0,0.0,0.0,0.0,0.0,0.0,0.0,0.0,0.0,0.0,0.0,0.0,0.0,0.0,0.0,0.0,0.0,0.0,0.0,0.0,-1.3207,-1.335,-1.2102,-1.3157,-1.3463,0.0,0.0,0.0,0.0,0.0,0.0,0.0,0.0,0.0,-1.2548,-1.2875,-1.3308,-1.3803,-1.3942,-1.4297,-1.4815,-1.467,-1.4613,-1.4613,-1.4613,-1.4312,-1.3803,-1.3476,-1.2863,-1.1882,-0.9939,-0.9254,-0.9356,0.0,0.0,0.0,0.0,-0.9457,-0.9139,0.0,0.0,0.0,0.0,0.0,0.0,0.0,0.0,0.0,0.0,0.0,0.0,-1.2015,-1.2856,-1.3619,-1.4121,-1.4531,-1.4512,-1.3867,-1.3802,-1.3535,-1.2935,-1.2915,-1.2915,-1.2915,-1.3613,-1.4844,-1.6594,-1.7559,-1.8633,-1.9785,-1.9902,-2.0117,-2.0371,-1.9434,-1.793,-1.6055,-1.5273,-1.4531,-1.3809,0.0,0.0,0.0,0.0,0.0,0.0,0.0,0.0,0.0,0.0,0.0,0.0,0.0,0.0,0.0,0.0,0.0,0.0,0.0,0.0,0.0,0.0,0.0,0.0,0.0,0.0,0.0,0.0,0.0,0.0,0.0,0.0,0.0,0.0,0.0,0.0,0.0,-1.3928,-1.413,-1.2052,-1.3418,-1.3745,0.0,0.0,0.0,0.0,0.0,0.0,-1.242,-1.2806,-1.3308,-1.3817,-1.428,-1.4651,-1.4928,-1.5356,-1.5814,-1.6346,-1.6346,-1.6271,-1.6145,-1.6271,-1.5889,-1.5085,-1.4828,-1.4551,-1.4116,-1.1591,-1.0444,-1.0246,-0.9708,-0.9616,-0.9872,-1.0273,-1.0022,-0.9524,0.0,0.0,0.0,0.0,0.0,0.0,0.0,0.0,0.0,0.0,0.0,-1.2034,-1.3281,-1.418,-1.5048,-1.5889,-1.5263,-1.4766,-1.4754,-1.3639,-1.2954,-1.2915,-1.2915,-1.2915,-1.2915,-1.4473,-1.6172,-1.791,-1.918,-2.0216,-2.1112,-2.1562,-2.1758,-2.1777,-2.1719,-2.0937,-1.9473,-1.6602,-1.579,-1.6336,-1.4297,0.0,0.0,0.0,0.0,0.0,0.0,0.0,0.0,0.0,0.0,0.0,0.0,0.0,0.0,0.0,0.0,0.0,0.0,0.0,0.0,0.0,0.0,0.0,0.0,0.0,0.0,0.0,0.0,0.0,0.0,0.0,0.0,0.0,0.0,0.0,0.0,0.0,0.0,-1.2554,-1.4287,0.0,0.0,0.0,0.0,-1.3073,-1.3602,-1.4148,-1.4727,-1.4758,-1.5009,-1.5542,-1.5593,-1.6141,-1.7222,-1.7272,-1.7526,-1.8078,-1.8078,-1.7802,-1.7348,-1.7827,-1.72,-1.5693,-1.617,-1.5793,-1.4702,-1.2461,-1.2004,-1.2614,-1.1504,-1.1576,-1.2293,-1.1997,-1.1556,-1.0965,0.0,0.0,0.0,0.0,0.0,0.0,0.0,0.0,-1.043,-1.0859,-1.1819,-1.2817,-1.3782,-1.543,-1.6613,-1.6907,-1.6875,-1.6504,-1.5694,-1.4696,-1.3984,-1.3711,-1.3665,-1.4336,-1.5742,-1.6641,-1.8032,-2.004,-2.082,-2.1621,-2.2418,-2.2574,-2.2652,-2.2633,-2.2402,-2.2031,-2.1426,-1.8945,-1.7285,-1.6191,-1.4863,-1.4062,0.0,0.0,0.0,0.0,0.0,0.0,0.0,0.0,0.0,0.0,0.0,0.0,0.0,0.0,0.0,0.0,0.0,0.0,0.0,0.0,0.0,0.0,0.0,0.0,0.0,0.0,0.0,0.0,0.0,0.0,0.0,0.0,0.0,0.0,0.0,0.0,0.0,-1.5718,-1.7225,0.0,-1.499,-1.5096,-1.5322,-1.5322,-1.5869,-1.6468,-1.6999,-1.735,-1.7802,-1.8329,-1.8329,-1.853,-1.8932,-1.8932,-1.9032,-1.9233,-1.9233,-1.8957,-1.8406,-1.8279,-1.7677,-1.6773,-1.6597,-1.6274,-1.5844,-1.4714,-1.3781,-1.3022,-1.2275,-1.1957,-1.1906,-1.1774,-1.1616,-1.1423,0.0,0.0,0.0,0.0,0.0,0.0,0.0,0.0,-1.0508,-1.1055,-1.2171,-1.3418,-1.4835,-1.668,-1.7988,-1.8453,-1.8184,-1.7578,-1.6613,-1.5185,-1.4277,-1.4114,-1.4387,-1.5508,-1.7559,-1.8437,-1.9785,-2.1619,-2.2383,-2.2949,-2.3359,-2.3359,-2.3237,-2.3081,-2.2808,-2.2637,-2.2422,-2.0977,-1.9121,-1.7103,-1.6085,-1.5488,-1.505,0.0,0.0,0.0,0.0,0.0,0.0,0.0,0.0,0.0,0.0,0.0,0.0,0.0,0.0,0.0,0.0,0.0,0.0,0.0,0.0,0.0,0.0,0.0,0.0,0.0,0.0,0.0,0.0,0.0,0.0,0.0,0.0,0.0,0.0,-1.7852,-1.8756,-1.8028,-1.9384,-1.9585,-1.7528,-1.7328,-1.7503,-1.7877,-1.8303,-1.8756,-1.9284,-1.966,-2.0012,-2.0363,-2.0363,-2.0288,-2.0087,-2.0087,-1.9987,-1.9811,-1.9811,-1.9535,-1.8983,-1.8832,-1.8355,-1.7649,-1.725,-1.6951,-1.6773,-1.6195,-1.5216,-1.3993,-1.3458,-1.2923,-1.2486,-1.2646,-1.2722,-1.2646,0.0,0.0,0.0,0.0,0.0,0.0,-1.0293,-1.0293,-1.0606,-1.1489,-1.2367,-1.3887,-1.6414,-1.7857,-1.9143,-2.0468,-1.9004,-1.7832,-1.7402,-1.4941,-1.3685,-1.4133,-1.5011,-1.6328,-1.8086,-1.9803,-2.1269,-2.2578,-2.3809,-2.4199,-2.3809,-2.3809,-2.3574,-2.314,-2.314,-2.2906,-2.2578,-2.2559,-2.1348,-1.9316,-1.7988,-1.7441,-1.7259,0.0,0.0,0.0,0.0,0.0,0.0,0.0,0.0,0.0,0.0,0.0,0.0,0.0,0.0,0.0,0.0,0.0,0.0,0.0,0.0,0.0,0.0,0.0,0.0,0.0,0.0,0.0,0.0,0.0,0.0,0.0,0.0,0.0,-1.7412,-1.9359,-2.0363,-1.9309,-2.0613,-2.0964,-1.9334,-1.9183,-1.9635,-2.0717,-2.0792,-2.1018,-2.1518,-2.1543,-2.1543,-2.1543,-2.1518,-2.1295,-2.0742,-2.0717,-2.044,-1.9861,-1.9836,-1.956,-1.9083,-1.956,-1.9208,-1.8229,-1.8204,-1.7903,-1.7398,-1.6798,-1.6245,-1.5693,-1.5135,-1.4601,-1.4191,-1.4702,-1.4884,-1.4733,0.0,0.0,0.0,0.0,0.0,0.0,-1.0293,-1.0293,-1.0606,-1.1489,-1.2852,-1.4523,-1.6492,-1.8383,-1.9707,-2.0059,-1.9102,-1.7993,-1.6941,-1.4738,-1.3938,-1.4991,-1.6746,-1.8711,-2.0781,-2.1582,-2.2598,-2.3887,-2.4238,-2.4355,-2.4238,-2.4238,-2.418,-2.4017,-2.4017,-2.4004,-2.3867,-2.3574,-2.3086,-2.2363,-2.0117,-1.8848,-1.813,0.0,0.0,0.0,0.0,0.0,0.0,0.0,0.0,0.0,0.0,0.0,0.0,0.0,0.0,0.0,0.0,0.0,0.0,0.0,0.0,0.0,0.0,0.0,0.0,0.0,0.0,0.0,0.0,0.0,0.0,0.0,-1.6835,-1.8464,-1.9737,-2.0792,-2.1855,-2.306,-2.3357,-2.3401,-2.321,-2.3195,-2.317,-2.31,-2.3075,-2.2975,-2.2669,-2.2644,-2.2644,-2.2644,-2.2297,-2.202,-2.187,-2.1468,-2.1219,-2.1016,-2.0641,-2.039,-2.0214,-1.9535,-1.9058,-1.8757,-1.838,-1.8129,-1.7978,-1.7802,-1.7426,-1.6845,-1.5864,-1.516,-1.4702,-1.4853,-1.4884,-1.4878,0.0,0.0,0.0,0.0,0.0,0.0,-1.0293,-1.0293,-1.0606,-1.1489,-1.3066,-1.4777,-1.6512,-1.8286,-1.9338,-1.9338,-1.8403,-1.733,-1.6219,-1.5176,-1.5234,-1.6668,-1.8477,-2.0371,-2.2363,-2.3008,-2.3769,-2.4687,-2.4883,-2.4883,-2.4687,-2.4687,-2.459,-2.4414,-2.4414,-2.4414,-2.4394,-2.416,-2.4043,-2.3926,-2.2402,-2.1406,-2.0625,-1.9043,-1.8359,-1.8047,-1.6719,-1.6406,-1.6515,-1.5635,0.0,0.0,0.0,0.0,0.0,0.0,0.0,0.0,0.0,0.0,0.0,0.0,0.0,0.0,0.0,0.0,0.0,0.0,0.0,0.0,0.0,0.0,0.0,0.0,-1.8416,-2.0063,-2.1675,-2.2533,-2.3299,-2.4086,-2.4947,-2.5408,-2.5227,-2.5178,-2.5109,-2.5066,-2.4607,-2.4073,-2.3496,-2.3471,-2.3346,-2.312,-2.2794,-2.2518,-2.2322,-2.1995,-2.1719,-2.1468,-2.0968,-2.0691,-2.0666,-1.9761,-1.9334,-1.9309,-1.8757,-1.8531,-1.8506,-1.8304,-1.8028,0.0,0.0,0.0,0.0,0.0,-1.5437,-1.5236,0.0,0.0,0.0,0.0,0.0,0.0,-1.0293,-1.0293,-1.0586,-1.1408,-1.291,-1.4523,-1.6161,-1.7428,-1.8208,-1.8305,-1.7233,-1.6219,-1.5469,-1.5957,-1.7012,-1.8598,-2.0039,-2.1562,-2.3198,-2.4082,-2.4707,-2.5184,-2.5547,-2.5527,-2.5184,-2.5184,-2.4941,-2.457,-2.457,-2.457,-2.457,-2.457,-2.457,-2.4551,-2.4512,-2.4199,-2.3535,-2.1172,-2.0742,-2.1015,-1.8613,-1.7812,-1.7787,-1.6848,0.0,0.0,0.0,0.0,0.0,0.0,0.0,0.0,0.0,0.0,0.0,0.0,0.0,0.0,0.0,0.0,0.0,0.0,0.0,0.0,0.0,0.0,0.0,0.0,-2.0369,-2.1465,-2.2976,-2.4126,-2.448,-2.3572,-2.549,-2.6529,-2.5751,-2.5687,-2.5868,-2.6277,-2.5419,-2.4632,-2.4029,-2.3929,0.0,0.0,0.0,-2.2869,-2.2368,-2.2397,-2.2146,-2.1669,-2.1144,-2.0893,-2.0867,-2.0263,-1.9987,-1.9962,-1.9484,-1.9233,-1.9158,-1.8681,-1.8405,-1.8254,-1.77,-1.7149,-1.6676,-1.6626,-1.6296,-1.5894,0.0,0.0,0.0,0.0,0.0,0.0,-1.0293,-1.0293,-1.0488,-1.0977,-1.1931,-1.2964,-1.4023,-1.4961,-1.5801,-1.6535,-1.6016,-1.5556,-1.543,-1.6797,-1.8086,-1.9121,-2.1074,-2.2773,-2.4141,-2.4668,-2.5156,-2.5557,-2.5635,-2.5635,-2.5557,-2.5557,-2.5566,-2.544,-2.544,-2.544,-2.544,-2.544,-2.544,-2.5401,-2.5098,-2.4473,-2.3691,-2.2895,-2.2422,-2.207,-2.0546,-2.0449,-2.082,-1.959,-1.8887,-1.8437,-1.7896,-1.6289,0.0,0.0,0.0,0.0,0.0,0.0,0.0,0.0,0.0,0.0,0.0,0.0,0.0,0.0,0.0,0.0,0.0,0.0,0.0,-1.962,-2.0897,-2.1927,-2.2559,-2.3909,-2.4743,-2.4509,-2.4254,-2.432,-2.4902,-2.5794,-2.5984,-2.5182,-2.5339,-2.5034,-2.4054,-2.3521,-2.3221,-2.3095,-2.3095,-2.3045,-2.2945,-2.2945,-2.2895,-2.2769,-2.2246,0.0,-2.197,-2.1418,-2.1167,-2.1167,-2.1066,-2.0765,-2.0365,-2.0264,-1.966,-1.8782,-1.8254,-1.7978,-1.7827,-1.7375,-1.7172,-1.7071,0.0,0.0,0.0,0.0,0.0,0.0,-1.0293,-1.0293,-1.043,-1.0859,-1.1658,-1.2457,-1.3125,-1.3769,-1.4238,-1.448,-1.4473,-1.4824,-1.5684,-1.7559,-1.9414,-2.1133,-2.2656,-2.3965,-2.5011,-2.5293,-2.5508,-2.5693,-2.5693,-2.5693,-2.5693,-2.5693,-2.5693,-2.5693,-2.5693,-2.5693,-2.5693,-2.5693,-2.5693,-2.5693,-2.5723,-2.5215,-2.4375,-2.3945,-2.3789,-2.3613,-2.2366,-2.2148,-2.2285,-2.0762,-2.0098,-1.9766,-1.887,-1.7584,-1.623,0.0,0.0,0.0,0.0,0.0,0.0,0.0,0.0,0.0,0.0,0.0,0.0,0.0,0.0,-1.7467,-1.793,0.0,-1.9592,-2.0723,-2.1641,-2.2344,-2.273,-2.3464,-2.388,-2.3659,-2.4378,-2.4786,-2.4548,-2.5442,-2.5731,-2.4972,-2.5314,-2.5164,-2.4148,-2.4027,-2.3822,-2.3547,-2.3246,-2.3095,-2.3095,-2.3095,-2.3095,-2.3095,-2.2543,-2.2322,-2.2297,-2.1744,-2.1493,-2.1493,-2.1493,-2.137,-2.1094,-2.0817,-2.0189,-1.9359,-1.9108,-1.8681,-1.8179,-1.7903,-1.7802,-1.7752,0.0,0.0,0.0,0.0,0.0,0.0,0.0,-1.0293,-1.043,-1.0742,-1.1385,-1.1969,-1.2367,-1.2676,-1.2812,-1.2661,-1.3398,-1.457,-1.6242,-1.8418,-2.0742,-2.312,-2.4082,-2.4922,-2.5674,-2.5693,-2.5693,-2.5693,-2.5693,-2.5693,-2.5693,-2.5693,-2.5693,-2.5693,-2.5693,-2.5693,-2.5693,-2.5693,-2.5693,-2.5713,-2.6113,-2.584,-2.5156,-2.4707,-2.4648,-2.4715,-2.3501,-2.293,-2.2516,-2.1172,-2.0625,-2.0292,-1.9182,-1.85,-1.7832,-1.625,-1.5859,0.0,0.0,0.0,0.0,0.0,0.0,0.0,0.0,-1.7344,-1.7656,-1.8262,-1.8711,-1.9199,-1.9805,-2.0254,-2.0898,-2.1953,-2.2422,-2.2711,-2.3042,-2.3101,-2.2945,-2.2559,-2.4493,-2.5375,-2.4117,-2.4816,-2.5205,-2.4829,-2.5043,-2.4834,-2.4073,-2.4244,-2.4144,-2.3697,-2.3304,-2.3095,-2.3095,-2.3095,-2.3095,-2.3095,-2.2644,-2.2472,-2.2418,-2.202,-2.182,-2.1794,-2.1694,-2.1594,-2.1443,-2.0918,-2.0339,-1.9811,-1.9811,-1.9284,-1.8505,-1.8405,-1.8355,-1.8304,0.0,0.0,0.0,0.0,0.0,0.0,0.0,0.0,-1.0312,-1.0371,-1.0449,-1.0547,-1.0586,-1.0645,-1.0958,-1.1685,-1.3848,-1.5781,-1.7148,-1.9609,-2.1816,-2.3633,-2.4531,-2.5234,-2.5674,-2.5693,-2.5693,-2.5693,-2.5693,-2.5693,-2.5693,-2.5693,-2.5693,-2.5693,-2.5693,-2.5693,-2.5693,-2.5693,-2.5693,-2.5693,-2.5752,-2.5693,-2.5557,-2.5156,-2.4551,-2.3809,-2.291,-2.209,-2.1385,-2.119,-2.0605,-1.9961,-1.9824,-1.9182,-1.8344,-1.7441,-1.6367,-1.5449,-1.5254,-1.5293,-1.5703,-1.6875,-1.6914,-1.7428,0.0,-2.0703,-2.0527,-2.1699,-2.2223,-2.2438,-2.2207,-2.2457,-2.2789,-2.2925,-2.2984,-2.3042,-2.3081,-2.3101,-2.2945,-2.2559,-2.3087,-2.341,-2.324,-2.3907,-2.43,-2.4115,-2.3881,-2.3621,-2.3436,-2.299,-2.2742,-2.267,-2.2942,-2.3095,-2.3095,-2.3095,-2.3095,-2.3095,-2.3045,-2.302,-2.302,-2.2945,-2.292,-2.2895,-2.2418,-2.1945,-2.1443,-2.0918,-2.0339,-1.9811,-1.9811,-1.9736,-1.956,-1.9083,-1.8907,-1.8907,0.0,0.0,0.0,0.0,0.0,0.0,0.0,0.0,0.0,-1.0293,-1.0293,-1.0293,-1.0293,-1.0293,-1.0449,-1.0802,-1.2949,-1.4961,-1.6555,-1.9277,-2.1719,-2.3711,-2.4609,-2.5273,-2.5674,-2.5693,-2.5693,-2.5693,-2.5693,-2.5693,-2.5693,-2.5693,-2.5693,-2.5693,-2.5693,-2.5693,-2.5693,-2.5693,-2.5693,-2.5732,-2.622,-2.6035,-2.5332,-2.5137,-2.3926,-2.2285,-2.2187,-2.1758,0.0,-2.0021,-1.9767,-1.9883,-1.9629,-1.9121,-1.8442,-1.7637,-1.6992,-1.6621,-1.6855,-1.7077,-1.7506,-1.8594,-1.9297,-2.0176,-2.1855,-2.2148,-2.2285,-2.3086,-2.3594,-2.3828,-2.3652,-2.3769,-2.3842,-2.3842,-2.3842,-2.3744,-2.3555,-2.3301,-2.291,-2.2227,-2.207,-2.2087,-2.2383,-2.2687,-2.2715,-2.2371,-2.2772,-2.288,-2.2563,-2.2581,-2.2491,-2.2227,-2.2083,-2.1878,-2.1635,-2.1635,-2.1908,-2.2402,-2.2402,-2.2641,-2.3095,-2.3095,-2.3095,-2.3095,-2.2869,-2.2297,-2.1468,-2.127,-2.0614,-1.9811,-1.9811,-1.9811,-1.9786,-1.956,-1.9484,-1.9409,0.0,0.0,0.0,0.0,0.0,0.0,0.0,0.0,0.0,0.0,-1.0293,-1.0293,-1.0293,-1.0293,-1.0293,-1.0293,-1.2051,-1.3887,-1.5635,-1.8355,-2.082,-2.2988,-2.4023,-2.4805,-2.5304,-2.5488,-2.5557,-2.5693,-2.5693,-2.5693,-2.5693,-2.5693,-2.5693,-2.5693,-2.5693,-2.5693,-2.5693,-2.5693,-2.5693,-2.5752,-2.6406,-2.5957,-2.4844,-2.4492,-2.291,-2.0859,-2.1094,-2.0586,-1.9609,-1.8359,-1.8262,-1.8613,-1.832,-1.8164,-1.7954,-1.7383,-1.7363,-1.7598,-1.7793,-1.8364,-1.9182,-2.0215,-2.1445,-2.2578,-2.3242,-2.3686,-2.4121,-2.4434,-2.4648,-2.4707,-2.4453,-2.4316,-2.4238,-2.4238,-2.4238,-2.4141,-2.3828,-2.332,-2.2656,-2.1816,-2.1171,-2.0917,-2.1152,-2.1387,-2.1484,-2.1426,-2.1868,-2.2033,-2.1788,-2.2103,-2.2111,-2.1796,-2.1518,-2.1185,-2.076,-2.076,-2.1047,-2.1534,-2.1534,-2.1846,-2.2433,-2.2671,-2.2884,-2.3095,-2.3095,-2.2569,-2.1694,-2.1543,-2.0916,-2.0037,-1.9861,-1.9811,-1.9811,-1.9811,-1.9811,-1.9736,0.0,0.0,0.0,0.0,0.0,0.0,0.0,0.0,0.0,0.0,0.0,0.0,0.0,-1.0293,-1.0293,-1.0293,-1.1482,-1.2964,-1.4735,-1.6875,-1.9062,-2.1171,-2.2477,-2.3549,-2.4434,-2.4863,-2.5293,-2.5693,-2.5693,-2.5693,-2.5693,-2.5693,-2.5693,-2.5693,-2.5693,-2.5693,-2.5693,-2.5693,-2.5693,-2.5693,-2.5713,-2.5187,-2.4297,-2.3066,-2.1484,-1.9902,-1.9512,-1.8042,-1.6242,-1.6183,-1.5879,-1.5547,-1.5527,-1.6083,-1.6746,-1.6726,-1.7311,-1.791,-1.75,-1.8613,-2.0195,-2.1504,-2.2793,-2.4062,-2.5304,-2.5977,-2.6289,-2.6309,-2.5977,-2.5382,-2.457,-2.4082,-2.3809,-2.3809,-2.3809,-2.3809,-2.3789,-2.3066,-2.2207,-2.1307,-2.045,-1.9805,-1.9394,-2.0155,-2.0997,-2.1797,-2.1114,-2.084,-2.1191,-2.1229,-2.1235,-2.1214,-2.1664,-2.1642,-2.1185,-2.1185,-2.0995,-2.0655,-2.0655,-2.0655,-2.0687,-2.1565,-2.2341,-2.3095,-2.3095,-2.2794,-2.2246,-2.1719,-2.1169,-2.0616,-2.0012,-1.9811,-1.9811,-1.9811,-1.9811,-1.9811,0.0,0.0,0.0,0.0,0.0,0.0,0.0,0.0,0.0,0.0,0.0,0.0,0.0,0.0,0.0,0.0,-1.1232,-1.2308,-1.3463,-1.5801,-1.7837,-1.9416,-2.1309,-2.2578,-2.3144,-2.3574,-2.4004,-2.4453,-2.4453,-2.459,-2.4816,-2.5156,-2.5293,-2.5312,-2.5605,-2.5849,-2.6152,-2.581,-2.5898,-2.6113,-2.5527,-2.4941,-2.4219,-2.2321,-2.0547,-1.8831,0.0,-1.625,-1.5508,-1.4648,-1.4648,-1.5,-1.5,-1.5195,-1.5605,-1.6453,-1.7148,-1.7871,-1.9177,-2.0547,-2.1953,-2.3242,-2.4551,-2.5703,-2.6426,-2.6484,-2.623,-2.5673,-2.4941,-2.418,-2.332,-2.3047,-2.3125,-2.3691,-2.4023,-2.4199,-2.4199,-2.3711,-2.2715,-2.0996,-2.0273,-1.9629,-1.889,-1.9375,-1.9961,-2.0527,-2.0293,-2.0449,-2.1151,-2.0976,-2.0791,-2.0791,-2.065,-2.0221,-1.9485,-1.9465,-1.9547,-1.9748,-2.0333,-2.059,-2.0623,-2.091,-2.1479,-2.2279,-2.2279,-2.2291,-2.2297,-2.2121,-2.1493,-2.0666,-2.049,-2.0137,-1.9811,-1.9811,-1.9811,-1.9811,0.0,0.0,0.0,0.0,0.0,0.0,0.0,0.0,0.0,0.0,0.0,0.0,0.0,0.0,0.0,0.0,0.0,-1.1528,-1.2367,-1.4121,-1.5654,-1.6941,-1.8652,-1.9922,-2.0664,-2.1094,-2.1602,-2.2187,-2.248,-2.2852,-2.3257,-2.3887,-2.4238,-2.4441,-2.4687,-2.498,-2.5215,-2.4922,-2.4805,-2.4707,-2.3984,-2.3164,-2.2107,-2.0294,-1.8598,0.0,-1.5176,-1.4512,-1.4375,-1.3555,-1.375,-1.4355,-1.4512,-1.498,-1.5625,-1.6289,-1.7344,-1.8691,-2.0586,-2.209,-2.3535,-2.498,-2.6094,-2.6914,-2.7187,-2.6797,-2.6094,-2.5059,-2.3906,-2.2891,-2.2187,-2.168,-2.1699,-2.2715,-2.2969,-2.3262,-2.3867,-2.334,-2.248,-2.1387,-2.0605,-1.9863,-1.9124,-1.9336,-1.9629,-1.9883,-2.0215,-2.0586,-2.1171,-2.0957,-2.0801,-2.0801,-2.0371,-1.9805,-1.9065,-1.9065,-1.9072,-1.9056,-1.9472,-1.9814,-2.0139,-2.0139,-2.0623,-2.1439,-2.1439,-2.1718,-2.213,-2.1933,-2.1514,-2.0968,-2.0767,-2.0339,-1.9811,-1.9811,-1.9811,-1.9811,0.0,0.0,0.0,0.0,0.0,0.0,0.0,0.0,0.0,0.0,0.0,0.0,0.0,0.0,0.0,0.0,0.0,0.0,-1.1489,-1.1953,-1.2749,-1.3958,-1.4874,-1.5977,-1.7259,-1.7656,-1.8281,-1.9121,-1.9979,-2.0566,-2.0976,-2.1875,-2.25,-2.2953,-2.2993,-2.3012,-2.3032,-2.2949,-2.25,-2.1738,-2.1229,-2.004,-1.8422,-1.7135,-1.5879,-1.4657,-1.3385,-1.2935,-1.2935,-1.2935,-1.3242,-1.3711,-1.4153,-1.5439,-1.6707,-1.6476,-1.8105,-2.0352,-2.168,-2.3281,-2.4961,-2.6621,-2.7363,-2.7708,-2.7669,-2.6894,-2.5879,-2.4531,-2.291,-2.1582,-2.1054,-2.0039,-1.9668,-2.0917,-2.0898,-2.1289,-2.2925,-2.2146,-2.1658,-2.2422,-2.1426,-2.0507,-2.0,-1.9961,-1.998,-1.998,-2.0703,-2.119,-2.1249,-2.1249,-2.1229,-2.1229,-2.084,-2.0391,-1.9922,-1.9883,-1.9416,-1.8598,-1.8188,-1.8448,-1.9243,-1.9243,-1.9716,-2.0526,-2.0526,-2.1037,-2.1768,-2.1239,-2.116,-2.1412,-2.0888,-2.031,-1.9784,-1.9811,-1.9785,-1.9759,0.0,0.0,0.0,0.0,0.0,0.0,0.0,0.0,0.0,0.0,0.0,0.0,0.0,0.0,0.0,0.0,0.0,0.0,-1.0625,-1.1621,-1.2359,-1.2671,-1.4141,-1.5098,-1.5459,-1.5859,-1.6348,-1.6926,-1.7142,-1.7441,-1.7857,-1.8715,-1.9219,-1.9355,-2.0,-2.0449,-2.0723,-2.041,-2.0332,-2.0332,-1.9258,-1.8574,-1.7988,-1.6336,-1.5352,-1.4648,-1.3691,-1.334,-1.334,-1.334,-1.4285,-1.5635,-1.668,-1.7291,-1.8047,-1.9863,-2.1094,-2.2207,-2.3854,-2.5293,-2.6543,-2.7305,-2.763,-2.7552,-2.6855,-2.5547,-2.4004,-2.234,-2.0625,-1.9104,-1.8052,-1.8344,-1.9085,-2.006,-2.1504,-2.2852,-2.3945,-2.4102,-2.3691,-2.2637,-2.2227,-2.1582,-2.0546,-2.0703,-2.0859,-2.0859,-2.0801,-2.1172,-2.2129,-2.1894,-2.1719,-2.1719,-2.1289,-2.0703,-1.9922,-1.9609,-1.918,-1.8598,-1.85,-1.8404,-1.8327,-1.8327,-1.8811,-1.9617,-1.9617,-2.0139,-2.0942,-2.0773,-2.0873,-2.1067,-2.0538,-2.0037,-1.9667,-1.9754,-1.9449,-1.9059,0.0,0.0,0.0,0.0,0.0,0.0,0.0,0.0,0.0,0.0,0.0,0.0,0.0,0.0,0.0,0.0,0.0,0.0,0.0,-1.0977,-1.1387,-1.1387,-1.2285,-1.2915,-1.3086,-1.3496,-1.3874,-1.4135,-1.4696,-1.5078,-1.5303,-1.6191,-1.6699,-1.6894,-1.7578,-1.8042,-1.8223,-1.8184,-1.8086,0.0,0.0,-1.6367,-1.5918,-1.4746,-1.416,-1.3913,-1.3398,-1.3828,-1.4735,-1.5293,-1.625,-1.7383,-1.8496,-1.9238,-2.0039,-2.168,-2.2852,-2.3965,-2.5508,-2.6738,-2.7637,-2.7871,-2.7656,-2.6953,-2.5332,-2.3769,-2.207,-1.998,-1.8457,-1.7227,-1.6297,-1.6894,-1.7793,-1.8652,-2.0099,-2.1678,-2.3359,-2.3789,-2.3867,-2.3652,-2.3477,-2.291,-2.1797,-2.1873,-2.1951,-2.1775,-2.1562,-2.1738,-2.248,-2.2285,-2.2168,-2.2168,-2.1562,-2.0859,-2.0195,-1.9785,-1.9434,-1.9163,-1.8773,-1.8481,-1.8247,-1.8086,-1.8279,-1.871,-1.871,-1.9243,-2.0042,-2.0042,-2.0182,-2.0388,-2.0111,-1.9587,-1.9053,-1.9317,-1.8905,-1.8336,0.0,0.0,0.0,0.0,0.0,0.0,0.0,0.0,0.0,0.0,-1.0332,0.0,0.0,0.0,0.0,0.0,0.0,0.0,0.0,0.0,-1.0293,-1.0293,-1.0293,-1.0488,-1.0898,-1.1252,-1.1489,-1.1606,-1.2578,-1.3145,-1.3262,-1.4004,-1.459,-1.5,-1.5478,-1.5674,-1.5694,-1.6055,-1.5751,-1.5039,-1.4687,-1.4082,-1.3379,0.0,-1.2915,-1.2915,-1.3032,-1.4265,-1.6085,-1.7715,-1.8539,-1.9124,-2.0117,-2.1211,-2.2246,-2.2852,-2.4121,-2.5605,-2.6836,-2.7812,-2.8437,-2.832,-2.7559,-2.6172,-2.351,-2.1814,-2.006,-1.7637,-1.6457,-1.5713,-1.5312,-1.5713,-1.6398,-1.7305,-1.8262,-1.9728,-2.2246,-2.2695,-2.332,-2.4851,-2.4648,-2.4075,-2.3335,-2.3159,-2.2964,-2.2695,-2.2617,-2.2598,-2.2598,-2.2598,-2.2539,-2.2441,-2.1541,-2.0957,-2.0605,-2.0195,-1.998,-1.9902,-1.9124,-1.8734,-1.8676,-1.8281,-1.8086,-1.8086,-1.8027,-1.8428,-1.9144,-1.9144,-1.935,-1.9638,-1.9572,-1.9042,-1.8386,-1.8748,-1.8349,-1.7796,0.0,0.0,0.0,0.0,0.0,0.0,0.0,0.0,0.0,0.0,-1.0528,-1.0293,0.0,0.0,0.0,0.0,0.0,0.0,0.0,0.0,0.0,-1.0293,-1.0293,-1.0488,-1.0898,-1.0645,-1.088,-1.1606,-1.1095,-1.1232,-1.1917,-1.2074,-1.2387,-1.2788,-1.3267,-1.3463,-1.3463,-1.3541,-1.3457,-1.3345,-1.3267,-1.315,-1.3013,-1.2935,0.0,0.0,-1.3646,-1.4133,-1.4972,-1.8403,-2.0079,-2.1015,-2.2617,-2.3281,-2.375,-2.5273,-2.6172,-2.6875,-2.7812,-2.8691,-2.918,-2.8476,-2.7109,-2.5245,-2.2695,-2.0273,-1.8027,-1.6133,-1.505,-1.4406,-1.4348,-1.5293,-1.6496,-1.7695,-1.9219,-2.0879,-2.273,-2.3633,-2.4199,-2.4492,-2.4473,-2.4355,-2.4199,-2.351,-2.3218,-2.3555,-2.3242,-2.2984,-2.2984,-2.2984,-2.2672,-2.2012,-2.1152,-2.0683,-2.0605,-2.0527,-2.0273,-1.9922,-1.9766,-1.9512,-1.916,-1.8695,-1.85,-1.8481,-1.813,0.0,-1.8245,-1.8245,-1.867,-1.9337,-1.8892,-1.8638,-1.8573,-1.8832,-1.8433,-1.7883,0.0,0.0,0.0,0.0,0.0,0.0,0.0,-1.0605,-1.0762,-1.1213,-1.1095,-1.088,-1.0625,-1.043,-1.0293,0.0,0.0,0.0,0.0,0.0,0.0,0.0,-1.0488,-1.0703,-1.0898,-1.1172,-1.1387,-1.1606,0.0,-1.1408,-1.1606,-1.1606,-1.1702,-1.1895,-1.2344,-1.2539,-1.2559,-1.2817,-1.2915,-1.2915,-1.2915,-1.2915,-1.2915,-1.2915,0.0,0.0,-1.3568,-1.4211,-1.5167,-1.7734,-1.9609,-2.1269,-2.3437,-2.4434,-2.5019,-2.6074,-2.7012,-2.7871,-2.873,-2.9258,-2.9375,-2.8516,-2.666,-2.4258,-2.123,-1.8887,-1.6687,-1.4551,-1.3945,-1.3704,-1.349,-1.4531,-1.5713,-1.6523,-1.7734,-1.9414,-2.1775,-2.2695,-2.3516,-2.4629,-2.4961,-2.4922,-2.4453,-2.3997,-2.3666,-2.3477,-2.3218,-2.3101,-2.3101,-2.2886,-2.2617,-2.2227,-2.1367,-2.0918,-2.0918,-2.0684,-2.0507,-2.0254,-2.0019,-1.9805,-1.959,-1.889,-1.8598,-1.8578,-1.8149,-1.8008,-1.8008,-1.8008,-1.8245,-1.861,-1.8354,-1.8132,-1.8027,-1.8317,-1.7934,-1.7346,0.0,0.0,0.0,0.0,0.0,0.0,-1.084,-1.0918,-1.1094,-1.1663,-1.1643,-1.1447,-1.1094,-1.0664,-1.0391,0.0,0.0,0.0,0.0,0.0,0.0,0.0,0.0,0.0,-1.0918,0.0,0.0,-1.1721,-1.1953,0.0,0.0,0.0,0.0,0.0,-1.2207,-1.234,-1.2359,-1.2734,-1.2915,0.0,0.0,-1.2915,-1.2915,0.0,0.0,0.0,0.0,-1.4102,-1.5117,-1.6816,-1.8414,-2.0077,-2.2539,-2.4238,-2.5362,-2.584,-2.7012,-2.832,-2.9082,-2.9492,-2.9434,-2.8301,-2.6133,-2.3379,-1.9941,-1.7754,-1.5751,-1.3404,-1.3145,-1.3301,-1.3066,-1.3828,-1.4746,-1.543,-1.6133,-1.7545,-2.0372,-2.1348,-2.2441,-2.4297,-2.5,-2.5117,-2.4609,-2.4316,-2.39,-2.3413,-2.3198,-2.3101,-2.3101,-2.2734,-2.2519,-2.2519,-2.1736,-2.1288,-2.119,-2.0879,-2.0703,-2.0605,-2.0215,-2.0059,-2.0019,-1.9221,-1.8831,-1.8715,-1.8286,-1.8086,-1.8008,-1.8008,-1.8008,-1.8008,-1.8008,-1.7812,-1.7559,-1.7891,-1.7578,-1.7115,0.0,0.0,0.0,0.0,0.0,0.0,-1.084,-1.0918,-1.119,-1.2028,-1.1839,-1.1587,-1.1547,-1.1113,-1.0703,0.0,0.0,0.0,0.0,0.0,0.0,0.0,0.0,0.0,0.0,0.0,0.0,-1.2145,-1.1819,0.0,0.0,0.0,0.0,0.0,0.0,-1.2856,-1.2856,-1.2895,0.0,0.0,0.0,0.0,0.0,0.0,0.0,0.0,0.0,-1.334,-1.358,-1.6426,-1.7005,-1.6887,-1.9062,-2.1699,-2.4043,-2.4473,-2.6074,-2.7832,-2.8281,-2.9258,-2.9648,-2.7637,-2.5469,-2.2949,-1.9529,-1.707,-1.5019,-1.3242,-1.2935,-1.3071,-1.3379,-1.3555,-1.4141,-1.5772,-1.6105,-1.6946,-1.916,-2.0527,-2.1619,-2.2637,-2.3477,-2.4238,-2.4988,-2.3945,-2.3491,-2.4258,-2.353,-2.3101,-2.3101,-2.2734,-2.2519,-2.2519,-2.207,-2.1641,-2.119,-2.1151,-2.0977,-2.0605,-2.0566,-2.0546,-2.0527,-2.0019,-1.959,-1.9199,-1.8734,-1.8325,0.0,-1.8008,-1.8008,-1.8008,-1.8008,-1.7988,-1.7949,-1.8008,-1.7949,-1.7891,0.0,0.0,0.0,0.0,0.0,0.0,-1.084,-1.0918,-1.1209,-1.2086,-1.2047,-1.1953,-1.1953,-1.1584,-1.1056,-1.0352,0.0,0.0,0.0,0.0,0.0,0.0,0.0,0.0,0.0,0.0,-1.1541,-1.1961,-1.196,0.0,0.0,0.0,0.0,0.0,0.0,-1.2915,-1.2915,-1.2915,0.0,0.0,0.0,0.0,0.0,0.0,0.0,0.0,0.0,0.0,-1.3437,-1.4648,-1.5332,-1.5781,-1.6387,-1.8125,-2.0332,-2.2305,-2.4414,-2.6417,-2.763,-2.8652,-2.9043,-2.7422,-2.5195,-2.2559,-1.9431,-1.6973,-1.4922,-1.3267,-1.2915,-1.2954,-1.3105,-1.3125,-1.3516,-1.4707,-1.4473,-1.5204,-1.8105,-1.875,-1.9805,-2.2227,-2.3027,-2.3633,-2.4238,-2.3828,-2.3555,-2.3608,-2.3296,-2.3101,-2.3101,-2.25,-2.2246,-2.25,-2.1582,-2.1133,-2.119,-2.0977,-2.0742,-2.0605,-2.0605,-2.0605,-2.0586,-2.0117,-1.9687,-1.9258,-1.8792,-1.8364,0.0,-1.8008,-1.8008,-1.8008,-1.8008,-1.8008,-1.8008,-1.8008,-1.8008,-1.8008,0.0,0.0,0.0,0.0,0.0,-1.0449,-1.084,-1.0918,-1.1172,-1.1934,-1.2008,-1.2008,-1.2008,-1.1663,-1.1154,-1.0527,-1.0371,0.0,0.0,0.0,0.0,0.0,0.0,0.0,0.0,0.0,-1.1072,-1.1182,-1.1788,-1.2249,0.0,0.0,-1.2915,-1.2871,0.0,0.0,0.0,0.0,0.0,0.0,0.0,0.0,0.0,0.0,0.0,0.0,0.0,0.0,0.0,0.0,0.0,-1.4629,-1.4453,-1.5254,-1.6836,-1.9844,-2.2441,-2.4609,-2.6026,-2.7226,-2.7793,-2.62,-2.4173,-2.1736,-1.8769,-1.6504,-1.4601,-1.3184,-1.2915,-1.2915,-1.2915,-1.3013,-1.3262,-1.3821,-1.3555,-1.418,-1.6875,-1.7422,-1.8516,-2.1055,-2.1973,-2.2656,-2.334,-2.3633,-2.3613,-2.314,-2.2984,-2.2906,-2.2906,-2.2148,-2.1953,-2.25,-2.1504,-2.1055,-2.119,-2.0918,-2.0742,-2.0605,-2.0605,-2.0605,-2.0586,-2.0254,-1.9883,-1.9453,-1.9104,-1.8676,0.0,-1.8169,-1.8125,-1.8008,-1.8008,-1.8008,-1.8008,-1.8008,-1.8008,-1.8008,0.0,0.0,0.0,0.0,0.0,0.0,-1.084,-1.0918,-1.1074,-1.1547,-1.1606,-1.1606,-1.1606,-1.1193,-1.0897,-1.0878,-1.0527,0.0,0.0,0.0,0.0,0.0,0.0,0.0,0.0,0.0,-0.9717,-0.9734,-1.1105,-1.1814,-1.1839,-1.2559,-1.2915,-1.2871,0.0,0.0,0.0,0.0,0.0,0.0,0.0,0.0,0.0,0.0,0.0,0.0,0.0,0.0,0.0,0.0,0.0,0.0,0.0,-1.3535,-1.4141,-1.7168,-2.0176,-2.2637,-2.3129,-2.4832,-2.5898,-2.3666,-2.2165,-2.043,-1.7408,-1.5362,-1.388,-1.3066,-1.2915,-1.2915,-1.2915,-1.3223,-1.3496,-1.3516,-1.3821,-1.4406,-1.5312,-1.6914,-1.813,-1.8598,-1.9805,-2.1094,-2.2402,-2.3281,-2.3613,-2.314,-2.2711,-2.2519,-2.2519,-2.1658,-2.158,-2.248,-2.209,-2.166,-2.119,-2.119,-2.0996,-2.0605,-2.0605,-2.0605,-2.0605,-2.0605,-2.0332,-1.9902,-1.9902,-1.9377,0.0,-1.8598,-1.8344,-1.8008,-1.8008,-1.8008,-1.8008,-1.8008,-1.8008,-1.8008,0.0,0.0,0.0,0.0,0.0,0.0,-1.0488,-1.0488,-1.0625,-1.1055,-1.1113,-1.1252,-1.1567,-1.0835,-1.0359,-1.0359,-0.9987,0.0,0.0,0.0,0.0,0.0,0.0,0.0,0.0,-0.9951,-1.0151,-0.9767,-1.0572,-1.115,-1.148,-1.2188,-1.2121,-1.1484,-1.169,-1.1541,0.0,0.0,0.0,0.0,0.0,0.0,-1.2153,0.0,0.0,0.0,0.0,0.0,0.0,0.0,0.0,0.0,0.0,0.0,0.0,-1.4219,-1.6641,-1.9297,-2.0586,-2.166,-2.2109,-2.082,-1.9766,-1.8398,-1.5957,-1.4718,-1.386,-1.3071,-1.2915,-1.2915,-1.2915,-1.2988,-1.3359,-1.4238,-1.4211,-1.4718,-1.6523,-1.7227,-1.8164,-1.9766,-2.1348,-2.248,-2.2847,-2.314,-2.3237,-2.3101,-2.2711,-2.2519,-2.2519,-2.1658,-2.1327,-2.158,-2.1211,-2.0957,-2.0781,-2.0781,-2.0742,-2.0605,-2.0605,-2.0605,-2.0605,-2.0605,-2.0332,-1.9922,-1.9922,-1.959,-1.9062,-1.8715,-1.852,-1.8364,-1.8125,-1.8008,-1.8008,-1.8008,-1.8008,-1.8008,0.0,0.0,0.0,0.0,0.0,0.0,-1.0293,-1.0293,-1.0391,-1.0645,-1.0502,-1.0533,-1.0992,-1.0167,-0.9632,-0.9793,-0.9254,0.0,0.0,0.0,0.0,0.0,0.0,0.0,-0.8822,-0.9434,-0.961,-0.926,-1.0089,-1.0583,-1.074,-1.1546,-1.1515,-1.0813,-1.0965,-1.0813,0.0,0.0,0.0,0.0,0.0,0.0,-1.1416,0.0,0.0,0.0,0.0,0.0,0.0,0.0,0.0,0.0,0.0,0.0,0.0,0.0,-1.4246,-1.6055,-1.7754,-1.8769,-1.9235,-1.8496,-1.7559,-1.6406,-1.4883,-1.3938,-1.3237,-1.2734,-1.2637,-1.2637,-1.2637,-1.2773,-1.3169,-1.3972,-1.4075,-1.4699,-1.6406,-1.7207,-1.8359,-2.037,-2.1816,-2.2676,-2.2676,-2.2906,-2.3101,-2.3101,-2.2711,-2.2441,-2.2285,-2.158,-2.1112,-2.0996,-2.0742,-2.0605,-2.0605,-2.0605,-2.0605,-2.0605,-2.0605,-2.0605,-2.0605,-2.0605,-2.0449,-2.0156,-2.0156,-1.9922,0.0,-1.9202,-1.889,-1.8578,-1.8305,-1.8144,-1.8008,-1.8008,-1.8008,-1.8008,0.0,0.0,0.0,0.0,0.0,0.0,0.0,-1.0215,-1.0176,-1.0176,-0.9765,-0.9573,-0.9954,-0.9192,-0.8795,-0.9167,-0.838,0.0,0.0,0.0,0.0,0.0,0.0,0.0,-0.832,-0.8435,-0.8493,-0.8456,-0.9674,-1.0129,-0.9847,-1.0841,-1.1068,-1.0659,-1.0095,-0.9784,-0.9744,-0.9744,-0.9769,-0.9858,-1.0483,-1.0737,0.0,0.0,0.0,0.0,0.0,0.0,0.0,0.0,0.0,0.0,0.0,0.0,0.0,0.0,0.0,0.0,0.0,-1.6024,-1.6914,-1.6453,-1.5449,-1.4434,-1.3977,-1.2983,0.0,-1.2164,-1.2164,-1.2184,-1.2281,-1.2598,-1.2915,-1.3111,-1.373,-1.4523,-1.5439,-1.7129,-1.8828,-2.0468,-2.1426,-2.1953,-2.1894,-2.2637,-2.3101,-2.3101,-2.2711,-2.2324,-2.1914,-2.1424,-2.1035,-2.0625,-2.0605,-2.0605,-2.0605,-2.0605,-2.0605,-2.0605,-2.0605,-2.0605,-2.0605,-2.0605,-2.0605,0.0,-2.0605,-2.0332,-1.9961,-1.9922,-1.9434,-1.8637,-1.8617,-1.8344,-1.8008,-1.8008,-1.8008,-1.8008,0.0,0.0,0.0,0.0,0.0,0.0,0.0,0.0,0.0,0.0,-0.8967,-0.8923,-0.9025,-0.8467,-0.8136,0.0,0.0,0.0,0.0,0.0,0.0,0.0,0.0,0.0,-0.8615,-0.9175,-0.9316,-0.9004,-0.9561,-0.9906,-1.0057,-1.0785,-1.0606,-0.9588,-1.0007,-0.9742,-0.9028,-0.9028,-0.9342,-0.9806,-0.9961,-1.0038,0.0,0.0,0.0,0.0,-1.0038,-1.0213,0.0,0.0,0.0,0.0,0.0,0.0,0.0,0.0,-1.181,-1.2716,-1.1924,0.0,-1.334,-1.2915,-1.2563,-1.223,0.0,-1.1699,-1.1741,-1.1741,-1.1741,-1.2034,-1.3027,-1.273,-1.3027,-1.5028,-1.5195,-1.5615,-1.7187,-1.9143,-2.0586,-2.0995,-2.2087,-2.2598,-2.1953,-2.2637,-2.3101,-2.3101,-2.2711,-2.2324,-2.1914,-2.1424,-2.1035,-2.0625,-2.0605,-2.0605,-2.0605,-2.0605,-2.0605,-2.0605,-2.0605,-2.0605,-2.0605,-2.0605,-2.0605,-2.0605,-2.0605,-2.0546,-2.0429,-2.0059,-1.9609,-1.9102,-1.8734,-1.8344,-1.8008,-1.8008,-1.8008,-1.8008,0.0,0.0,0.0,0.0,0.0,0.0,0.0,0.0,0.0,0.0,-0.848,-0.8337,-0.8337,-0.7821,-0.7489,0.0,0.0,0.0,0.0,0.0,0.0,0.0,0.0,-0.9131,-0.8584,-0.9061,-0.9242,-0.9018,-0.9311,-0.9537,-0.9684,-1.0047,-0.9868,-0.9204,-0.9492,-0.9326,-0.8804,-0.8804,-0.9015,-0.9342,-0.9342,0.0,0.0,0.0,0.0,0.0,-0.9562,-0.9676,0.0,-1.1347,-1.1307,-1.073,0.0,0.0,0.0,0.0,-1.1178,-1.1706,-1.0696,-1.1448,-1.2461,-1.225,-1.19,-1.158,-1.1423,-1.1525,-1.1541,-1.128,-1.174,-1.2347,-1.2763,-1.2826,-1.3362,-1.5166,-1.5619,-1.6387,-1.832,-1.9766,-2.082,-2.1465,-2.2148,-2.2539,-2.2461,-2.2828,-2.3101,-2.3101,-2.2711,-2.2324,-2.1914,-2.1424,-2.1035,-2.0625,-2.0605,-2.0605,-2.0605,-2.0605,-2.0605,-2.0605,-2.0371,-2.0273,-2.0273,-2.0273,-2.0273,-2.0273,-2.0273,-2.0391,-2.0566,-2.0098,-1.9785,-1.9551,-1.9316,-1.8812,-1.8301,-1.8301,-1.8184,-1.8008,0.0,0.0,0.0,0.0,0.0,0.0,0.0,0.0,0.0,0.0,0.0,0.0,0.0,0.0,0.0,0.0,0.0,0.0,0.0,0.0,0.0,0.0,-0.8161,-0.8482,-0.8536,-0.8697,-0.8871,-0.9005,-0.9231,-0.9364,-0.9417,-0.9457,-0.9404,-0.9257,-0.8951,-0.8804,-0.8804,-0.8804,-0.8804,-0.8804,-0.8804,0.0,0.0,0.0,0.0,0.0,0.0,0.0,0.0,-1.096,-1.0852,-1.0245,-1.1182,0.0,0.0,0.0,0.0,0.0,-1.0229,-1.1463,-1.2814,-1.2483,-1.1849,-1.1409,-1.1646,-1.1519,-1.1261,-1.0981,-1.1817,-1.2532,-1.2369,-1.2998,-1.3835,-1.4695,-1.5864,-1.733,-1.9155,-1.9984,-2.0781,-2.1777,-2.1992,-2.2305,-2.2847,-2.3023,-2.3062,-2.3003,-2.2672,-2.2305,-2.1816,-2.1445,-2.1035,-2.0625,-2.0605,-2.0605,-2.0605,-2.0605,-2.0605,-2.0605,-2.0117,-1.9922,-1.9922,-1.9844,-1.9824,-1.9824,-1.9824,0.0,-2.039,-1.9961,-1.9824,-1.9824,-1.9824,-1.9375,-1.8695,-1.8695,-1.8481,-1.8203,0.0,0.0,0.0,0.0,0.0,0.0,0.0,0.0,0.0,0.0,0.0,0.0,0.0,0.0,0.0,0.0,0.0,0.0,0.0,0.0,0.0,-0.8268,-0.8564,-0.8858,-0.9071,-0.8884,-0.9165,-0.9884,-0.9923,-1.0114,-1.0399,-1.0608,-1.0327,-0.9593,-0.9045,-0.8804,-0.8804,-0.8804,-0.8804,-0.8804,-0.8804,0.0,0.0,0.0,0.0,0.0,0.0,0.0,0.0,-0.9439,-0.9343,-0.9112,-0.948,0.0,0.0,0.0,0.0,0.0,-0.99,-1.1221,-1.2376,-1.0488,-1.0124,-1.0259,-1.0302,-1.0285,-1.0477,-1.1294,-1.1328,-1.1651,-1.3088,-1.3669,-1.4231,-1.5215,-1.759,-1.9429,-1.9816,-2.1438,-2.2418,-2.1953,-2.2519,-2.2715,-2.2129,-2.2672,-2.2945,-2.2637,-2.2539,-2.2168,-2.1327,-2.1229,-2.1035,-2.0625,-2.0605,-2.0605,-2.0605,-2.0605,-2.0605,-2.0605,-2.0117,-1.9922,-1.9902,-1.9551,-1.9375,-1.9375,0.0,-1.9414,-1.9473,-1.9414,-1.9375,-1.9375,-1.9375,-1.9297,-1.918,-1.918,-1.9141,-1.9043,0.0,0.0,0.0,0.0,0.0,0.0,0.0,0.0,0.0,0.0,0.0,0.0,0.0,0.0,0.0,0.0,0.0,0.0,0.0,0.0,-0.8469,-0.8604,-0.8738,-0.8871,-0.8978,-0.9004,-0.9284,-0.9886,-1.0047,-1.0274,-1.0586,-1.0399,-0.99,-0.9192,-0.8925,-0.8804,-0.8804,-0.8804,-0.8804,-0.8804,0.0,0.0,0.0,0.0,0.0,0.0,0.0,0.0,0.0,0.0,-0.9018,-0.8858,-0.9124,0.0,0.0,0.0,0.0,0.0,-0.9263,-1.0121,-1.0872,-0.9868,-1.0623,-1.1475,-1.0833,-1.0864,-1.1149,-1.1511,-1.2038,-1.2581,-1.3124,-1.3901,-1.4833,-1.6071,-1.7583,-1.894,-1.9793,-2.0369,-2.1014,-2.1792,-2.2227,-2.248,-2.2559,-2.2715,-2.2672,-2.2519,-2.2048,-2.1543,-2.0898,-2.0644,-2.043,-2.0215,-2.0215,-2.0332,-2.0605,-2.0605,-2.0605,-2.0605,-1.9883,-1.957,-1.9551,-1.9121,-1.8945,-1.8945,0.0,-1.9062,-1.9277,-1.9043,-1.9082,-1.9297,-1.9297,-1.9141,-1.8945,-1.8945,-1.9082,-1.9219,0.0,0.0,0.0,0.0,0.0,0.0,0.0,0.0,0.0,0.0,0.0,0.0,0.0,0.0,0.0,0.0,0.0,0.0,0.0,-0.8469,-0.8577,-0.8791,-0.8804,-0.8871,-0.9005,-0.9138,-0.9431,-0.9916,-1.0114,-1.0341,-1.0573,-0.9983,-0.9406,-0.8884,-0.8831,-0.8804,-0.8804,-0.8804,-0.8804,-0.8804,0.0,0.0,0.0,0.0,0.0,0.0,0.0,0.0,0.0,0.0,0.0,0.0,0.0,0.0,0.0,-0.8831,-0.8858,-0.8925,-0.8991,-0.9446,-0.9916,-0.9916,-1.1128,-1.2148,-1.1474,-1.1554,-1.1827,-1.2025,-1.2867,-1.3469,-1.3117,-1.3996,-1.5225,-1.6601,-1.7498,-1.8433,-1.9653,-1.9417,-1.9805,-2.1545,-2.1442,-2.1485,-2.2108,-2.1806,-2.1566,-2.1429,-2.0844,-2.024,-1.9751,-1.9373,-1.9279,-1.9429,-1.9429,-1.9696,-2.0292,-2.0312,-2.041,-2.0586,-1.9725,-1.9297,-1.9277,-1.873,-1.85,-1.8598,-1.85,-1.873,-1.9102,-1.8637,-1.875,-1.9141,-1.9141,-1.8984,-1.8773,-1.887,-1.9082,-1.9238,0.0,0.0,0.0,0.0,0.0,0.0,0.0,0.0,0.0,0.0,0.0,0.0,0.0,0.0,0.0,0.0,0.0,0.0,0.0,-0.8631,-0.8791,-0.8804,-0.8804,-0.9058,-0.9635,-0.9337,-0.963,-1.0533,-1.0546,-1.0573,-1.0573,-0.9983,-0.9512,-0.9164,-0.8898,-0.8804,-0.8804,-0.8804,-0.8804,-0.8804,-0.8804,0.0,0.0,0.0,0.0,0.0,0.0,0.0,0.0,0.0,0.0,0.0,0.0,0.0,-0.9124,-0.8858,-0.8964,-0.9244,-0.9539,-1.0077,-1.0533,-1.0533,-1.042,-1.0505,-1.1223,-1.1431,-1.1785,-1.3092,-1.3294,-1.3292,-1.3426,-1.4081,-1.5043,-1.6399,-1.8074,-1.936,-1.9813,-2.0204,-2.067,-2.1284,-2.0139,-1.9306,-1.94,-1.9063,-1.8752,-1.8372,-1.8288,-1.7934,-1.7192,-1.7142,-1.7398,-1.8025,-1.8044,-1.849,-1.9375,-1.9375,-1.9822,-2.0586,-1.9725,-1.9297,-1.9258,-1.8437,-1.8227,-1.8578,-1.8223,-1.8266,-1.8617,-1.8223,-1.8266,-1.8656,-1.8656,-1.8906,-1.9277,-1.9687,-1.959,-1.9277,0.0,0.0,0.0,0.0,0.0,0.0,0.0,0.0,0.0,0.0,0.0,0.0,0.0,0.0,0.0,0.0,0.0,0.0,0.0,-0.8751,-0.8804,-0.8804,-0.8804,-0.8991,-0.9364,-0.9486,-0.9673,-1.005,-1.0194,-1.0194,-1.0037,-0.9419,-0.8978,-0.8684,-0.8365,-0.8363,-0.8563,-0.8563,-0.8644,-0.8791,-0.8617,-0.8563,0.0,0.0,0.0,0.0,0.0,0.0,0.0,0.0,-0.8804,-0.8804,-0.8804,-0.8978,-0.9191,-0.9084,-0.9124,-0.9244,-0.9351,-0.9967,-1.0586,-1.0586,-1.0921,-1.1343,-1.185,-1.2361,-1.2904,-1.3432,-1.3953,-1.4302,-1.4159,-1.4352,-1.4879,-1.5906,-1.6686,-1.7581,-1.8854,-1.8738,-1.887,-1.9809,-1.9276,-1.8796,-1.8796,-1.8462,-1.8154,-1.8021,-1.7572,-1.709,-1.6497,-1.6287,-1.6346,-1.6581,-1.6581,-1.687,-1.7488,-1.7488,-1.7667,-1.7991,-1.8861,-1.8985,-1.8433,-1.8389,-1.8008,-1.7353,-1.7204,-1.7222,-1.7283,-1.656,-1.6701,-1.7406,-1.7981,-1.8481,-1.887,-1.9026,-1.9199,-1.9238,0.0,0.0,0.0,0.0,0.0,0.0,0.0,0.0,0.0,0.0,0.0,0.0,0.0,0.0,0.0,0.0,0.0,0.0,-0.8791,-0.8804,-0.8804,-0.8804,-0.8804,-0.8858,-0.8938,-0.9352,-0.9593,-0.9715,-0.9886,-0.9833,-0.9539,-0.9232,-0.8925,-0.8644,-0.8405,-0.8432,-0.8631,-0.8482,-0.8509,-0.8644,-0.835,-0.823,0.0,0.0,0.0,0.0,0.0,0.0,0.0,0.0,-0.8804,-0.8804,-0.8804,-0.8978,-0.9191,-0.9098,-0.9204,-0.9351,-0.9351,-0.9886,-1.0492,-1.068,-1.1323,-1.206,-1.2599,-1.324,-1.3826,-1.4093,-1.4603,-1.4914,-1.4576,-1.4603,-1.4883,-1.5578,-1.5845,-1.6532,-1.8155,-1.7443,-1.716,-1.8245,-1.7735,-1.7298,-1.7298,-1.7,-1.6755,-1.6755,-1.6209,-1.5685,-1.5265,-1.5,-1.4951,-1.5134,-1.5118,-1.5414,-1.603,-1.603,-1.6096,-1.625,-1.7568,-1.788,-1.7236,-1.7423,-1.7113,-1.6351,-1.6193,-1.6246,-1.6281,-1.5524,-1.5579,-1.6245,-1.7182,-1.7792,-1.819,-1.8492,-1.8906,-1.9219,0.0,0.0,0.0,0.0,0.0,0.0,0.0,0.0,0.0,0.0,0.0,0.0,0.0,0.0,0.0,0.0,0.0,0.0,-0.8791,-0.8804,-0.8804,-0.8804,-0.8804,-0.8657,-0.8402,-0.8911,-0.9351,-0.9715,-0.9702,-0.9526,-0.9217,-0.9539,-0.9512,-0.9204,-0.9204,-0.9204,-0.9164,-0.8617,-0.8402,-0.8375,-0.8032,-0.7912,-0.7912,0.0,0.0,0.0,0.0,0.0,0.0,0.0,-0.8804,-0.8804,-0.8804,-0.8978,-0.9151,-0.8898,-0.9232,-0.9715,-0.9715,-0.99,-1.023,-1.0848,-1.1471,-1.2198,-1.3347,-1.3881,-1.4335,-1.5217,-1.5164,-1.4914,-1.4589,-1.4776,-1.5115,-1.5351,-1.5899,-1.6697,-1.7923,-1.6756,-1.6058,-1.6713,-1.5414,-1.4466,-1.4466,-1.4255,-1.4082,-1.4082,-1.376,-1.3467,-1.3227,-1.2945,-1.3088,-1.368,-1.368,-1.4171,-1.5171,-1.5155,-1.5372,-1.5756,-1.5756,-1.5756,-1.5756,-1.5372,-1.5425,-1.574,-1.5356,-1.5405,-1.574,-1.5339,-1.5207,-1.5261,-1.621,-1.681,-1.7279,-1.8225,-1.887,-1.9219,0.0,0.0,0.0,0.0,0.0,0.0,0.0,0.0,0.0,0.0,0.0,0.0,0.0,0.0,0.0,0.0,0.0,0.0,-0.8536,-0.8536,-0.8404,-0.8179,-0.8165,-0.8125,-0.8045,-0.843,-0.8871,-0.9351,-0.9165,-0.9018,-0.8911,-0.9031,-0.8911,-0.8631,-0.8631,-0.8631,-0.8617,-0.8469,-0.8523,-0.8657,-0.8363,-0.8243,-0.8216,0.0,0.0,0.0,0.0,0.0,0.0,0.0,0.0,0.0,-0.8804,-0.8978,-0.9231,-0.9392,-0.9552,-0.9726,-0.9927,-1.0354,-1.0822,-1.1196,-1.2064,-1.3066,-1.4041,-1.4322,-1.4696,-1.5792,-1.5504,-1.5057,-1.5378,-1.5511,-1.5605,-1.5685,-1.6019,-1.6338,-1.6457,-1.5757,-1.5206,-1.5196,-1.4604,-1.4135,-1.388,-1.3786,-1.3694,-1.348,-1.3186,-1.3012,-1.2931,-1.2636,-1.2533,-1.2696,-1.2732,-1.2842,-1.3157,-1.3157,-1.32,-1.3337,-1.3337,-1.3859,-1.4813,-1.5365,-1.5162,-1.4309,-1.4217,-1.4232,-1.4309,-1.4165,-1.4135,-1.4243,-1.5226,-1.5682,-1.5891,-1.6862,-1.7285,-1.7483,0.0,0.0,0.0,0.0,0.0,0.0,0.0,0.0,0.0,0.0,-0.7923,-0.8176,0.0,0.0,0.0,0.0,0.0,0.0,-0.8564,-0.8469,-0.835,-0.8258,-0.8139,-0.8139,-0.8258,-0.8337,-0.8604,-0.9044,-0.8871,-0.8871,-0.8951,-0.9098,-0.9058,-0.8925,-0.8925,-0.8858,-0.8697,-0.8496,-0.8496,-0.8604,-0.8323,-0.8203,-0.819,0.0,0.0,0.0,0.0,0.0,0.0,0.0,0.0,0.0,-0.8804,-0.8898,-0.9071,-0.9285,-0.9419,-0.9566,-0.986,-1.0461,-1.1089,-1.1503,-1.2505,-1.3573,-1.4496,-1.4963,-1.5484,-1.6482,-1.5925,-1.5418,-1.5718,-1.5691,-1.5698,-1.5758,-1.5979,-1.6032,-1.5811,-1.5324,-1.4861,-1.4402,-1.4082,-1.3801,-1.3453,-1.3427,-1.336,-1.3227,-1.2958,-1.2784,-1.2784,-1.2465,-1.2305,-1.2305,-1.2305,-1.2305,-1.2305,-1.2305,-1.2305,-1.2305,-1.2305,-1.2718,-1.3592,-1.4132,-1.3954,-1.3135,-1.3135,-1.3135,-1.3135,-1.3135,-1.3206,-1.3417,-1.4253,-1.476,-1.5113,-1.5804,-1.6123,-1.6351,0.0,0.0,0.0,0.0,0.0,0.0,0.0,0.0,0.0,0.0,-0.8203,-0.8415,0.0,0.0,0.0,0.0,0.0,0.0,0.0,-0.8469,-0.8429,-0.8671,-0.8457,-0.847,-0.8764,-0.8536,-0.8549,-0.8844,-0.8818,-0.8911,-0.9178,-0.9499,-0.9633,-0.9635,-0.9633,-0.9472,-0.9138,-0.8644,-0.8442,-0.8415,-0.8099,-0.7992,-0.8019,-0.8283,0.0,0.0,0.0,0.0,0.0,0.0,0.0,0.0,-0.8844,-0.8871,-0.8898,-0.8925,-0.9071,-0.9324,-0.9673,-1.0399,-1.1142,-1.1792,-1.2839,-1.3946,-1.4843,-1.5705,-1.638,-1.6965,-1.6406,-1.5858,-1.5832,-1.5631,-1.5551,-1.5704,-1.5758,-1.5758,-1.5704,-1.5257,-1.4713,-1.4108,-1.3814,-1.348,-1.32,-1.32,-1.3186,-1.3133,-1.2904,-1.2744,-1.2744,-1.2489,-1.2305,-1.2305,-1.2305,-1.2305,-1.2305,-1.2305,-1.2305,-1.2305,-1.2305,-1.2305,-1.2305,-1.2305,-1.2305,-1.2305,-1.2305,-1.2305,-1.2305,-1.2305,-1.2502,-1.2831,-1.3359,-1.4,-1.4598,-1.4932,-1.5297,-1.5564,0.0,0.0,0.0,0.0,0.0,0.0,0.0,0.0,0.0,0.0,0.0,0.0,0.0,0.0,0.0,0.0,0.0,0.0,0.0,-0.7718,-0.7705,-0.7772,-0.7936,-0.8163,-0.8482,-0.8429,-0.8631,-0.9124,-0.8898,-0.8844,-0.8884,-0.9164,-0.9191,-0.9005,-0.9204,-0.9151,-0.8871,-0.8764,-0.8711,-0.8711,-0.8644,-0.8617,-0.8604,-0.8456,-0.8536,0.0,0.0,0.0,0.0,0.0,0.0,0.0,-0.9124,-0.9312,-0.9539,-0.9766,-0.9713,-0.9699,-1.0265,-1.0707,-1.1196,-1.2011,-1.3454,-1.4843,-1.5498,-1.5792,-1.5965,-1.6086,-1.6152,-1.6112,-1.5872,-1.5965,-1.5952,-1.5551,-1.5685,-1.5671,-1.5217,-1.4643,-1.4135,-1.3733,-1.364,-1.34,-1.2931,-1.3066,-1.3013,-1.2532,-1.2438,-1.2398,-1.2398,-1.2331,-1.2305,-1.2305,-1.2305,-1.2305,-1.2305,-1.2305,-1.2305,-1.2305,-1.2305,-1.2305,-1.2305,-1.2305,-1.2305,-1.2305,-1.2305,-1.2305,-1.2305,-1.2305,-1.2345,-1.2422,-1.2539,-1.2705,-1.2949,-1.3725,-1.4072,-1.4263,0.0,0.0,0.0,0.0,0.0,0.0,0.0,0.0,0.0,0.0,0.0,0.0,0.0,0.0,0.0,0.0,0.0,0.0,0.0,0.0,-0.8163,-0.831,-0.8337,-0.8458,-0.8778,-0.8657,-0.8791,-0.9217,-0.9058,-0.9138,-0.9432,-0.9564,-0.955,-0.9432,-0.9446,-0.9257,-0.8978,-0.8871,-0.8804,-0.8804,-0.8804,-0.8804,-0.8804,-0.8791,-0.8791,-0.8804,-0.8791,0.0,0.0,0.0,0.0,0.0,0.0,0.0,-0.9713,-0.986,-0.9806,-0.9809,-1.0221,-1.0768,-1.1516,-1.2826,-1.3961,-1.491,-1.5484,-1.5511,-1.5458,-1.5591,-1.5858,-1.5925,-1.5498,-1.5658,-1.5712,-1.5257,-1.5324,-1.5311,-1.5048,-1.4576,-1.4188,-1.3895,-1.3693,-1.3427,-1.3013,-1.312,-1.308,-1.2759,-1.2599,-1.2556,-1.2556,-1.2385,-1.2305,-1.2305,-1.2305,-1.2305,-1.2305,-1.2305,-1.2305,-1.2305,-1.2305,-1.2305,-1.2305,-1.2305,-1.2305,-1.2305,-1.2305,-1.2305,-1.2305,-1.2305,-1.2385,-1.2543,-1.2358,-1.2385,-1.2567,-1.2898,-1.3025,-1.3098,0.0,0.0,0.0,0.0,0.0,0.0,0.0,0.0,0.0,0.0,0.0,0.0,0.0,0.0,0.0,0.0,0.0,0.0,0.0,0.0,0.0,-0.9124,-0.8951,-0.8938,-0.9138,-0.8898,-0.8951,-0.9284,-0.9337,-0.9684,-1.031,-1.014,-1.0047,-1.0033,-0.9793,-0.9512,-0.9191,-0.8951,-0.8858,-0.8804,-0.8804,-0.8804,-0.8831,-0.9044,-0.8991,-0.8844,-0.9044,-0.8991,-0.8844,-0.9058,0.0,0.0,0.0,0.0,-0.9863,-0.9863,-0.9806,-0.982,-1.0114,-1.0835,-1.1891,-1.3534,-1.4188,-1.4589,-1.5124,-1.5097,-1.5062,-1.5204,-1.5484,-1.5524,-1.5035,-1.5124,-1.5231,-1.4981,-1.4928,-1.4928,-1.4928,-1.4589,-1.4282,-1.4041,-1.376,-1.3493,-1.324,-1.3253,-1.3267,-1.3213,-1.2958,-1.2784,-1.2784,-1.2465,-1.2318,-1.2371,-1.2331,-1.2331,-1.2385,-1.2331,-1.2305,-1.2305,-1.2305,-1.2305,-1.2305,-1.2305,-1.2305,-1.2305,-1.2305,-1.2305,-1.2305,-1.2305,-1.2452,-1.269,-1.2398,-1.2452,-1.2677,-1.2398,-1.2305,-1.2305,0.0,0.0,0.0,0.0,0.0,0.0,0.0,0.0,0.0,0.0,-0.8804,-0.8804,0.0,0.0,0.0,0.0,0.0,0.0,0.0,0.0,0.0,-0.8845,-0.9044,-0.9058,-0.8871,-0.8831,-0.9072,-0.9619,-0.9873,-1.0403,-1.1189,-1.0221,-0.974,-0.974,-0.9699,-0.9512,-0.9204,-0.9178,-0.9004,-0.8804,-0.8804,-0.8804,-0.8804,-0.8844,-0.8844,-0.8804,-0.8844,-0.8844,-0.8818,-0.8844,-0.9205,0.0,0.0,0.0,-1.0479,-1.0479,-1.0261,-1.0127,-1.0452,-1.1176,-1.2051,-1.308,-1.3734,-1.4229,-1.4563,-1.4803,-1.4941,-1.4683,-1.487,-1.5022,-1.4643,-1.4816,-1.4968,-1.4629,-1.4576,-1.4576,-1.4576,-1.4066,-1.3706,-1.3666,-1.3626,-1.3493,-1.324,-1.34,-1.344,-1.3227,-1.2958,-1.2784,-1.2784,-1.2465,-1.2425,-1.2717,-1.2438,-1.2425,-1.2717,-1.2438,-1.2305,-1.2305,-1.2305,-1.2305,-1.2305,-1.2305,-1.2305,-1.2305,-1.2305,-1.2305,-1.2305,-1.2305,-1.2318,-1.2358,-1.2318,-1.2331,-1.2358,-1.2318,-1.2305,-1.2305,0.0,0.0,0.0,0.0,0.0,0.0,0.0,0.0,0.0,0.0,0.0,-0.8964,0.0,0.0,0.0,0.0,0.0,0.0,0.0,0.0,0.0,-0.9539,-0.9499,-0.9324,-0.9031,-0.9205,-0.9499,-0.9927,-1.006,-1.0648,-1.1663,-1.0982,-1.0755,-1.0921,-1.0568,-1.0167,-0.9684,-0.9351,-0.9044,-0.8804,-0.8804,-0.8804,-0.8804,-0.8804,-0.8804,-0.8804,-0.8804,-0.8804,-0.8831,-0.8964,-0.9191,-0.9459,-0.9633,0.0,0.0,0.0,-1.0221,-1.0221,-1.0675,-1.1209,-1.1797,-1.2518,-1.316,-1.3721,-1.4175,-1.4376,-1.4482,-1.4509,-1.4496,-1.4429,-1.4295,-1.4522,-1.4616,-1.4322,-1.4282,-1.4282,-1.4282,-1.4055,-1.3895,-1.3895,-1.3895,-1.3841,-1.3721,-1.3814,-1.3841,-1.3707,-1.3414,-1.3253,-1.3253,-1.2799,-1.265,-1.2784,-1.2452,-1.2291,-1.2288,-1.2291,-1.2305,-1.2305,-1.2305,-1.2305,-1.2305,-1.2305,-1.2305,-1.2305,-1.2305,-1.2305,-1.2305,-1.2305,-1.2305,-1.2305,-1.2305,-1.2305,-1.2305,-1.2305,-1.2305,-1.2305,0.0,0.0,0.0,0.0,0.0,0.0,0.0,0.0,0.0,0.0,0.0,0.0,0.0,0.0,0.0,0.0,0.0,0.0,0.0,0.0,0.0,-1.0083,-0.9913,-0.9619,-0.9217,-0.9606,-0.986,-1.0007,-1.0234,-1.0862,-1.1899,-1.1717,-1.181,-1.21,-1.1511,-1.0848,-1.0194,-0.9657,-0.9271,-0.9018,-0.8871,-0.8804,-0.8804,-0.8804,-0.8804,-0.8804,-0.8804,-0.8804,-0.8844,-0.9031,-0.9151,-0.9244,-0.9499,-0.9619,0.0,0.0,0.0,-1.0327,-1.0768,-1.1089,-1.1402,-1.1957,-1.2478,-1.3026,-1.3614,-1.3801,-1.3948,-1.4242,-1.4188,-1.4082,-1.4082,-1.4269,-1.4335,-1.4122,-1.4082,-1.4082,-1.4082,-1.4082,-1.4082,-1.4082,-1.4082,-1.4082,-1.4082,-1.4082,-1.4055,-1.3975,-1.3653,-1.3453,-1.3387,-1.2891,-1.2596,-1.2663,-1.2345,-1.2091,-1.1913,-1.2091,-1.2198,-1.2198,-1.2265,-1.2305,-1.2305,-1.2305,-1.2305,-1.2305,-1.2305,-1.2305,-1.2305,-1.2305,-1.2305,-1.2305,-1.2305,-1.2305,-1.2305,-1.2305,-1.2305,-1.2305,0.0,0.0,0.0,0.0,0.0,0.0,0.0,0.0,0.0,0.0,0.0,0.0,-0.9191,-0.9217,-0.9457,-0.999,-0.9833,0.0,0.0,0.0,0.0,-1.0097,-1.01,0.0,-0.9217,-0.9777,-0.9967,-0.9729,-1.0541,-1.1263,-1.1913,-1.2131,-1.2412,-1.2717,-1.2127,-1.1377,-1.0546,-1.0207,-0.99,-0.9593,-0.9031,-0.8804,-0.8804,-0.8804,-0.8804,-0.8804,-0.8804,-0.8804,-0.8804,-0.8831,-0.8991,-0.9217,-0.9231,-0.9459,-0.974,0.0,0.0,0.0,-1.06,-1.0827,-1.1089,-1.1396,-1.1703,-1.2127,-1.2717,-1.3039,-1.3333,-1.3586,-1.3908,-1.4082,-1.4082,-1.4095,-1.4108,-1.4095,-1.4082,-1.4082,-1.4082,-1.4082,-1.4082,-1.4082,-1.4082,-1.4082,-1.4082,-1.4082,-1.3975,-1.3653,-1.336,-1.3106,-1.2851,-1.2275,-1.2074,-1.2318,-1.2037,-1.1913,-1.1899,-1.1913,-1.1926,-1.1926,-1.2171,-1.2305,-1.2305,-1.2305,-1.2305,-1.2305,-1.2305,-1.2305,-1.2305,-1.2305,-1.2305,-1.2305,-1.2305,-1.2305,-1.2305,-1.2305,-1.2305,-1.2305,0.0,0.0,0.0,0.0,0.0,0.0,0.0,0.0,0.0,0.0,0.0,0.0,0.0,-0.974,-1.01,-1.0114,-1.0194,0.0,0.0,0.0,0.0,-1.0688,-1.0829,-1.0688,-1.01,-1.0474,-1.0635,-1.0528,-1.068,-1.1149,-1.1899,-1.1784,-1.1797,-1.1904,-1.1913,-1.1524,-1.0808,-1.0327,-0.9953,-0.9688,-0.9459,-0.9259,-0.9058,-0.9058,-0.8938,-0.8804,-0.8804,-0.8804,-0.8804,-0.8804,-0.8871,-0.8938,-0.8938,-0.9031,-0.9178,-0.9444,-0.987,-1.0274,-1.0274,-1.0519,-1.0814,-1.1076,-1.1369,-1.169,-1.2127,-1.2596,-1.2985,-1.3092,-1.3307,-1.352,-1.352,-1.3828,-1.4082,-1.4082,-1.4082,-1.4015,-1.3828,-1.376,-1.3734,-1.3547,-1.352,-1.352,-1.352,-1.352,-1.348,-1.3333,-1.3267,-1.316,-1.3053,-1.2478,-1.2198,-1.2305,-1.206,-1.1899,-1.1899,-1.1899,-1.1899,-1.1913,-1.2171,-1.2305,-1.2305,-1.2305,-1.2305,-1.2305,-1.2305,-1.2305,-1.2305,-1.2305,-1.2305,-1.2305,-1.2305,-1.2305,-1.2305,-1.2305,-1.2305,-1.2305,0.0,0.0,0.0,0.0,0.0,0.0,0.0,0.0,-0.9753,-0.9537,0.0,0.0,0.0,0.0,-1.0768,-1.0581,-1.0742,-1.0929,-1.1129,-1.1049,-1.0995,-1.0995,-1.1089,-1.0902,-1.0452,-1.0795,-1.0902,-1.0701,-1.0734,-1.1042,-1.1605,-1.1369,-1.1295,-1.1402,-1.153,-1.139,-1.0955,-1.0474,-1.0154,-0.9997,-0.9796,-0.9566,-0.9364,-0.9471,-0.9391,-0.9245,-0.9245,-0.9245,-0.9232,-0.9138,-0.9031,-0.8924,-0.8924,-0.8924,-0.8964,-0.9151,-0.9564,-0.9993,-1.0087,-1.0261,-1.0461,-1.0648,-1.0915,-1.1182,-1.1417,-1.1913,-1.2368,-1.2462,-1.2692,-1.2906,-1.2906,-1.3227,-1.3561,-1.3761,-1.3788,-1.3721,-1.348,-1.3453,-1.3387,-1.3227,-1.3213,-1.3213,-1.3213,-1.3213,-1.3173,-1.3066,-1.3053,-1.3013,-1.2906,-1.2425,-1.2158,-1.2158,-1.1819,-1.1698,-1.1899,-1.2007,-1.2007,-1.1913,-1.2301,-1.2398,-1.2305,-1.2305,-1.2305,-1.2305,-1.2305,-1.2305,-1.2305,-1.2305,-1.2305,-1.2305,-1.2305,-1.2305,-1.2305,-1.2305,-1.2305,-1.2305,0.0,0.0,0.0,0.0,0.0,0.0,0.0,0.0,-1.0154,-1.014,0.0,0.0,0.0,0.0,0.0,-1.1389,-1.1389,-1.1375,-1.1389,-1.1156,-1.0995,-1.1009,0.0,0.0,-1.0167,-1.0701,-1.0715,-1.014,-1.0701,-1.0982,-1.0982,-1.0982,-1.1129,-1.1362,-1.1102,-1.0982,-1.0955,-1.0707,-1.06,-1.0559,-0.997,-0.9742,-0.9769,-1.0007,-1.0114,-1.01,-1.01,-1.01,-1.006,-0.978,-0.9486,-0.9217,-0.9204,-0.9204,-0.9204,-0.9204,-0.9432,-0.974,0.0,0.0,0.0,-1.0083,-1.0341,-1.0586,-1.0586,-1.1009,-1.149,-1.1819,-1.2078,-1.2278,-1.2278,-1.2278,-1.2465,-1.3066,-1.3186,-1.3186,-1.3186,-1.3186,-1.3186,-1.3186,-1.3173,-1.3173,-1.3186,-1.3186,-1.3066,-1.2797,-1.2808,-1.2636,-1.2318,-1.206,-1.1899,-1.1899,-1.1316,-1.1323,-1.1899,-1.2158,-1.2158,-1.1913,-1.2489,-1.2623,-1.2305,-1.2305,-1.2305,-1.2305,-1.2305,-1.2305,-1.2305,-1.2305,-1.2305,-1.2305,-1.2305,-1.2305,-1.2305,-1.2305,-1.2305,-1.2305,0.0,0.0,0.0,0.0,0.0,-1.0755,-1.0755,-1.0929,-1.0962,0.0,0.0,0.0,-1.0982,-1.1249,-1.1389,-1.1389,-1.1236,-1.1196,-1.1375,-1.1156,-1.1089,-1.1289,-1.1223,-1.1142,-1.1029,-1.1022,-1.0915,-1.0755,-1.0734,-1.0707,-1.0707,-1.0707,-1.076,-1.0827,-1.0747,-1.0707,-1.0707,-1.0626,-1.072,-1.0868,-1.0506,-1.0345,-1.0332,-1.0167,-0.998,-0.9806,-0.9806,-0.9806,-0.9793,-0.9713,-0.9486,-0.9178,-0.8964,-0.8898,-0.8898,-0.8898,-0.9111,-0.9351,-0.9431,0.0,0.0,0.0,0.0,0.0,-1.0586,-1.0848,-1.1142,-1.1223,-1.1463,-1.1663,-1.1663,-1.1663,-1.1695,-1.1855,-1.2452,-1.2837,-1.2585,-1.2559,-1.2559,-1.2559,-1.2371,-1.2318,-1.2532,-1.2559,-1.2518,0.0,-1.2425,-1.2385,-1.2305,-1.206,-1.1899,-1.1899,-1.1752,-1.1739,-1.1899,-1.2158,-1.2158,-1.1913,-1.2288,-1.2385,-1.2305,-1.2305,-1.2305,-1.2305,-1.2305,-1.2305,-1.2305,-1.2305,-1.2305,-1.2305,-1.2305,-1.2305,-1.2305,-1.2305,-1.2305,-1.2305,0.0,0.0,0.0,0.0,-1.0862,-1.1169,-1.1169,-1.1423,-1.1543,0.0,0.0,0.0,-1.1543,-1.169,-1.1797,-1.1797,-1.1637,-1.161,-1.1784,-1.1516,-1.1436,-1.1597,-1.1455,-1.1389,-1.1389,-1.1263,-1.1169,-1.1169,-1.0908,-1.0774,-1.0774,-1.0774,-1.0707,-1.06,-1.072,-1.0707,-1.0586,-1.0586,-1.0693,-1.0827,-1.0667,-1.0586,-1.0573,-1.0367,-1.0194,-1.0064,-0.9913,-1.002,-1.0194,-0.9953,-0.9673,-0.9351,-0.9058,-0.8871,-0.8804,-0.8804,-0.8898,-0.9058,-0.9178,-0.9457,-0.975,-0.99,0.0,0.0,-1.0381,-1.064,-1.0841,-1.0841,-1.0942,-1.1062,-1.1062,-1.1062,-1.1062,-1.1062,-1.1631,-1.2033,-1.1944,-1.1931,-1.1931,-1.1931,-1.1784,-1.1797,-1.2091,-1.2118,-1.2171,-1.2291,-1.2305,-1.2305,-1.2305,-1.206,-1.1953,-1.2051,-1.1966,-1.1966,-1.2087,-1.2382,-1.2382,-1.2051,-1.2382,-1.2462,-1.2305,-1.2305,-1.2305,-1.2305,-1.2305,-1.2305,-1.2305,-1.2305,-1.2305,-1.2305,-1.2305,-1.2305,-1.2305,-1.2305,-1.2305,-1.2305,0.0,0.0,-1.1035,-1.1035,-1.1276,-1.1476,-1.1476,-1.173,-1.1953,0.0,-1.2144,-1.2291,-1.2265,-1.2278,-1.2305,-1.2305,-1.2278,-1.2265,-1.2305,-1.1997,-1.1873,-1.1899,-1.1583,-1.1389,-1.1389,-1.1389,-1.1389,-1.1389,-1.1169,-1.1035,-1.1035,-1.1035,-1.0935,-1.0693,-1.0921,-1.0881,-1.064,-1.06,-1.0613,-1.064,-1.06,-1.0626,-1.068,-1.0586,-1.0559,-1.0546,-1.0194,-1.0408,-1.0768,-1.0247,-0.99,-0.9633,-0.9351,-0.9084,-0.8911,-0.8911,-0.8911,-0.8965,-0.9191,-0.9284,-0.9364,-0.9619,-0.9927,0.0,-1.0127,-1.0341,-1.0586,-1.0586,-1.0586,-1.0586,-1.0586,-1.0586,-1.0586,-1.0586,-1.0814,-1.1049,-1.1329,-1.1349,-1.1362,-1.1389,-1.1362,-1.149,-1.1832,-1.1859,-1.1931,-1.2184,-1.2238,-1.2251,-1.2251,-1.2074,-1.2037,-1.2291,-1.2051,-1.2037,-1.2305,-1.2569,-1.2569,-1.2305,-1.2569,-1.2569,-1.2305,-1.2305,-1.2305,-1.2305,-1.2305,-1.2305,-1.2305,-1.2305,-1.2305,-1.2305,-1.2305,-1.2305,-1.2305,-1.2305,-1.2305,-1.2305,0.0,-1.1102,-1.1309,-1.1309,-1.1583,-1.1784,-1.1784,-1.2024,-1.2225,-1.2225,-1.2265,-1.2211,-1.202,-1.2158,-1.2305,-1.2305,-1.2091,-1.2051,-1.2291,-1.181,-1.1623,-1.1899,-1.1583,-1.1389,-1.1389,-1.1389,-1.1389,-1.1389,-1.1335,-1.1309,-1.1309,-1.1309,-1.1282,-1.1249,-1.1076,-1.0955,-1.0921,-1.0693,-1.072,-1.0889,-1.068,-1.0868,-1.1182,-1.0474,-1.0385,-1.0519,-0.9997,-0.9846,-0.9956,-0.9806,-0.9726,-0.9702,-0.9619,-0.9552,-0.9512,-0.9512,-0.9512,-0.9526,-0.9579,-0.9766,-0.99,-0.9726,-1.0117,0.0,-1.0167,-1.0341,-1.0586,-1.0586,-1.0586,-1.0586,-1.0586,-1.0586,-1.0586,-1.0586,-1.064,-1.0774,-1.1035,-1.1076,-1.1169,-1.1362,-1.1223,-1.1196,-1.149,-1.1516,-1.153,-1.1562,-1.1824,-1.1993,-1.1993,-1.2118,-1.2251,-1.2305,-1.2251,-1.2251,-1.2305,-1.2167,-1.2167,-1.2305,-1.2154,-1.2131,-1.2305,-1.2305,-1.2305,-1.2305,-1.2305,-1.2305,-1.2305,-1.2305,-1.2305,-1.2305,-1.2305,-1.2305,-1.2305,-1.2305,-1.2305,-1.2305,-1.1182,-1.145,-1.165,-1.165,-1.1891,-1.2091,-1.2091,-1.2368,-1.261,-1.2732,-1.2879,-1.2799,-1.2395,-1.2476,-1.2465,-1.2318,-1.2171,-1.2144,-1.2291,-1.2024,-1.1931,-1.2078,-1.1944,-1.1864,-1.1864,-1.1864,-1.1864,-1.1864,-1.1717,-1.165,-1.165,-1.165,-1.157,-1.1389,-1.1423,-1.1343,-1.1196,-1.1049,-1.1076,-1.1182,-1.0921,-1.1035,-1.1322,-1.0782,-1.0461,-1.0274,-0.9876,-0.9593,-0.9499,-0.9806,-0.9713,-0.9486,-0.9633,-0.9486,-0.9299,-0.9621,-0.9279,-0.8931,-0.9517,-0.9486,-0.9351,-0.9811,-1.0114,0.0,0.0,-1.0234,-1.0341,-1.0341,-1.0341,-1.0412,-1.0559,-1.0586,-1.0586,-1.0586,-1.0586,-1.064,-1.0787,-1.0814,-1.0868,-1.0982,-1.0862,-1.0921,-1.1182,-1.1209,-1.1276,-1.1375,-1.1557,-1.165,-1.165,-1.1931,-1.2091,-1.2091,-1.2225,-1.2238,-1.2091,-1.198,-1.198,-1.2091,-1.198,-1.206,-1.2305,-1.2305,-1.2305,-1.2305,-1.2305,-1.2305,-1.2305,-1.2305,-1.2305,-1.2305,-1.2305,-1.2305,-1.2305,-1.2305,-1.2305,-1.2305,-1.1469,-1.1703,-1.1926,-1.198,-1.2144,-1.2305,-1.2305,-1.2543,-1.2837,-1.316,-1.332,-1.3333,-1.2998,-1.2851,-1.2757,-1.2652,-1.2438,-1.2398,-1.2625,-1.2425,-1.2331,-1.2385,-1.2331,-1.2305,-1.2305,-1.2305,-1.2305,-1.2305,-1.2064,-1.1993,-1.1993,-1.1993,-1.1824,-1.1562,-1.1784,-1.173,-1.1503,-1.1415,-1.1429,-1.149,-1.1249,-1.1303,-1.1476,-1.1129,-1.0701,-1.0234,-0.9833,-0.9526,-0.9336,-0.9695,-0.9528,-0.9202,-0.9263,-0.9041,-0.8891,-0.9417,-0.8766,-0.8161,-0.9309,-0.9122,-0.8729,-0.9412,-0.9788,-0.9875,0.0,0.0,0.0,-0.9703,-0.9826,-1.0027,-1.0294,-1.0491,-1.0573,-1.0519,-1.0559,-1.0573,-1.0519,-1.0559,-1.0586,-1.0586,-1.0586,-1.068,-1.0889,-1.0915,-1.1009,-1.1236,-1.1282,-1.1335,-1.1389,-1.1703,-1.1926,-1.1993,-1.2184,-1.2158,-1.1913,-1.1899,-1.1899,-1.1899,-1.1899,-1.206,-1.2305,-1.2305,-1.2305,-1.2305,-1.2305,-1.2305,-1.2305,-1.2305,-1.2305,-1.2305,-1.2305,-1.2305,-1.2305,-1.2305,-1.2305,-1.2305,-1.177,-1.1886,-1.198,-1.2211,-1.2278,-1.2305,-1.2305,-1.2331,-1.2559,-1.3133,-1.3038,-1.3065,-1.3453,-1.3066,-1.3092,-1.3814,-1.2919,-1.2759,-1.3814,-1.2893,-1.2425,-1.2717,-1.2438,-1.2305,-1.2305,-1.2305,-1.2305,-1.2305,-1.2265,-1.2251,-1.2251,-1.2251,-1.2238,-1.2198,-1.2007,-1.1886,-1.1832,-1.1543,-1.1583,-1.1859,-1.1819,-1.1819,-1.1792,-1.1209,-1.0955,-1.0782,-0.998,-0.9659,-0.9559,-0.8957,-0.8956,-0.9034,-0.806,-0.8241,-0.883,-0.9023,-0.8558,-0.8175,-0.911,-0.9281,-0.8969,0.0,-0.8606,-0.9099,-0.8048,0.0,-0.8249,-0.8249,0.0,-0.9404,-0.9428,0.0,0.0,-1.0207,-1.0412,-1.0506,-1.0207,-1.0425,-1.0586,-1.0586,-1.0586,-1.06,-1.064,-1.064,-1.0653,-1.0693,-1.0902,-1.1156,-1.1375,-1.1703,-1.202,-1.2251,-1.2278,-1.2158,-1.1913,-1.1899,-1.1899,-1.1899,-1.1899,-1.206,-1.2305,-1.2305,-1.2305,-1.2305,-1.2305,-1.2305,-1.2305,-1.2305,-1.2305,-1.2305,-1.2305,-1.2305,-1.2305,-1.2305,-1.2305,-1.2305,-1.1846,-1.1899,-1.1993,-1.2251,-1.2305,-1.2305,-1.2305,-1.2893,-1.3373,-1.3413,-1.3935,-1.4365,-1.4402,-1.4231,-1.4084,-1.4082,-1.3467,-1.3146,-1.3333,-1.2679,-1.2358,-1.2478,-1.2371,-1.2305,-1.2305,-1.2305,-1.2305,-1.2305,-1.2305,-1.2305,-1.2305,-1.2305,-1.2305,-1.2305,-1.2171,-1.2118,-1.2104,-1.1984,-1.2011,-1.2118,-1.2118,-1.2118,-1.2091,-1.185,-1.1543,-1.1156,-1.0479,-1.0117,-0.9794,-0.8906,-0.8655,-0.8632,-0.808,-0.7848,-0.8067,-0.929,-0.8734,-0.8048,-0.9647,-0.9696,0.0,0.0,0.0,0.0,-0.7777,0.0,-0.7741,0.0,0.0,0.0,0.0,0.0,0.0,0.0,-1.0613,-1.0546,-1.0425,-1.0519,-1.0586,-1.0586,-1.0586,-1.0586,-1.0586,-1.0586,-1.0586,-1.0586,-1.0707,-1.0827,-1.0915,-1.1356,-1.1583,-1.1543,-1.1877,-1.1859,-1.1369,-1.153,-1.161,-1.161,-1.1819,-1.206,-1.2305,-1.2305,-1.2305,-1.2305,-1.2305,-1.2305,-1.2305,-1.2305,-1.2305,-1.2305,-1.2305,-1.2305,-1.2305,-1.2305,-1.2305,-1.2305,-1.1846,-1.1899,-1.1993,-1.2251,-1.2305,-1.2331,-1.2412,-1.3199,-1.3734,-1.372,-1.4442,-1.4963,-1.507,-1.5062,-1.4968,-1.4816,-1.4309,-1.3814,-1.3427,-1.2891,-1.2478,-1.2305,-1.2305,-1.2305,-1.2305,-1.2305,-1.2305,-1.2305,-1.2305,-1.2305,-1.2305,-1.2305,-1.2305,-1.2305,-1.2305,-1.2305,-1.2305,-1.2305,-1.2305,-1.2305,-1.2305,-1.2305,-1.2291,-1.2211,-1.1971,-1.1549,-1.1009,-1.0661,-1.0265,-0.8984,-0.8569,0.0,-0.76,-0.72,-0.7304,-0.8949,-0.8434,-0.7718,-0.9476,0.0,0.0,0.0,0.0,0.0,0.0,0.0,0.0,0.0,0.0,0.0,0.0,0.0,-0.9342,-0.9978,0.0,-0.9906,-0.9787,-1.0028,-1.0333,-1.0555,-1.0586,-1.0586,-1.0586,-1.0586,-1.0586,-1.0586,-1.0586,-1.0626,-1.0707,-1.1076,-1.1249,-1.1116,-1.153,-1.1503,-1.0995,-1.1356,-1.1503,-1.1389,-1.181,-1.2091,-1.2305,-1.2305,-1.2305,-1.2305,-1.2305,-1.2305,-1.2305,-1.2305,-1.2305,-1.2305,-1.2305,-1.2305,-1.2305,-1.2305,-1.2305,-1.2305,-1.1846,-1.1899,-1.1993,-1.2251,-1.2305,-1.2398,-1.273,-1.2797,-1.3132,-1.3961,-1.3854,-1.4093,-1.5257,-1.5182,-1.545,-1.6526,-1.5578,-1.4955,-1.4941,-1.3814,-1.2919,-1.2331,-1.2305,-1.2305,-1.2305,-1.2305,-1.2305,-1.2305,-1.2305,-1.2305,-1.2305,-1.2305,-1.2305,-1.2305,-1.2305,-1.2305,-1.2305,-1.2305,-1.2305,-1.2305,-1.2305,-1.2305,-1.2265,-1.202,-1.2051,-1.2198,-1.1575,-1.1362,0.0,-0.9074,-0.8668,0.0,0.0,0.0,0.0,0.0,0.0,0.0,0.0,0.0,0.0,-0.6127,0.0,0.0,0.0,0.0,-0.5638,0.0,0.0,0.0,0.0,0.0,-0.8163,-0.7844,-0.8082,0.0,0.0,-0.8598,-0.9664,-1.0491,-1.0586,-1.0586,-1.0586,-1.0586,-1.0586,-1.0586,-1.0586,-1.072,-1.0969,-1.0995,-1.1129,-1.1375,-1.1402,-1.1289,-1.0995,-1.1605,-1.1717,-1.1402,-1.2011,-1.2291,-1.2305,-1.2305,-1.2305,-1.2305,-1.2305,-1.2305,-1.2305,-1.2305,-1.2305,-1.2305,-1.2305,-1.2305,-1.2305,-1.2305,-1.2305,-1.2305,-1.2104,-1.2158,-1.2184,-1.2278,-1.2305,-1.2478,-1.2973,-1.3547,-1.4376,-1.5658,-1.5899,-1.6486,-1.7876,-1.7769,-1.7582,-1.7543,-1.6874,-1.6214,-1.5578,-1.4616,-1.3895,-1.3507,-1.348,-1.32,-1.265,-1.2799,-1.2705,-1.2305,-1.2305,-1.2305,-1.2305,-1.2305,-1.2305,-1.2305,-1.2305,-1.2305,-1.2305,-1.2305,-1.2305,-1.2305,-1.2305,-1.2425,-1.2596,-1.2265,-1.2211,-1.2278,-1.2078,-1.1877,0.0,-1.0191,-0.973,-0.9422,-0.76,-0.7058,-0.7207,-0.775,-0.7502,-0.7232,0.0,0.0,-0.8893,-0.7057,0.0,0.0,0.0,0.0,0.0,0.0,0.0,0.0,0.0,0.0,-0.766,-0.8206,-0.8239,-0.8122,0.0,-0.8174,-0.8549,-0.8839,-0.8871,-0.932,-1.0491,-0.9869,-0.9737,-1.0541,-1.0381,-1.0394,-1.072,-1.0889,-1.0955,-1.0862,-1.1035,-1.0995,-1.0747,-1.1122,-1.1329,-1.1402,-1.1824,-1.2118,-1.2305,-1.2305,-1.2305,-1.2305,-1.2305,-1.2305,-1.2305,-1.2305,-1.2305,-1.2305,-1.2305,-1.2305,-1.2305,-1.2305,-1.2305,-1.2305,-1.2291,-1.2305,-1.2305,-1.2305,-1.2478,-1.2786,-1.3293,-1.4376,-1.5524,-1.6567,-1.7141,-1.7903,-1.9078,-1.9038,-1.8811,-1.8544,-1.8063,-1.7315,-1.6206,-1.5511,-1.487,-1.4269,-1.4135,-1.3761,-1.3119,-1.316,-1.2906,-1.2305,-1.2412,-1.2412,-1.2305,-1.2305,-1.2305,-1.2305,-1.2305,-1.2305,-1.2305,-1.2305,-1.2305,-1.2305,-1.2305,-1.2412,-1.261,-1.2371,-1.2371,-1.2452,0.0,-1.2184,-1.1876,-1.0896,-1.0444,-1.0042,-0.8363,-0.7654,-0.7509,-0.7625,-0.7451,-0.7277,-0.7843,-0.8476,0.0,-0.7105,-0.7214,0.0,-0.6101,0.0,-0.5867,0.0,0.0,0.0,0.0,0.0,-0.6792,-0.7487,-0.7407,-0.7346,0.0,-0.7274,-0.7316,-0.7924,-0.7989,-0.8506,-0.9831,-0.9241,-0.9199,-1.0203,-1.0074,-1.0047,-1.0265,-1.0528,-1.0595,-1.0439,-1.072,-1.0774,-1.06,-1.0881,-1.1089,-1.1242,-1.1677,-1.2007,-1.2144,-1.2251,-1.2305,-1.2305,-1.2305,-1.2305,-1.2305,-1.2305,-1.2305,-1.2305,-1.2305,-1.2305,-1.2305,-1.2305,-1.2305,-1.2305,-1.2358,-1.2331,-1.2345,-1.2345,-1.2812,-1.3307,-1.3613,-1.5164,-1.6406,-1.678,-1.7595,-1.8384,-1.9025,-1.9065,-1.9158,-1.9484,-1.9172,-1.837,-1.6927,-1.654,-1.5845,-1.4696,-1.4362,-1.4028,-1.3653,-1.3373,-1.2959,-1.2318,-1.265,-1.2636,-1.2305,-1.2305,-1.2305,-1.2305,-1.2305,-1.2305,-1.2305,-1.2305,-1.2305,-1.2305,-1.2305,-1.2305,-1.2318,-1.2305,-1.2529,-1.2744,-1.2412,-1.2305,-1.2144,-1.113,-1.082,-1.0476,-0.83,-0.771,-0.7787,-0.7283,-0.7183,-0.7241,-0.7241,-0.7278,-0.7093,-0.6224,-0.6037,0.0,0.0,0.0,-0.5959,0.0,0.0,0.0,0.0,0.0,0.0,-0.5772,-0.5677,-0.5843,-0.6539,-0.5929,-0.6028,-0.7704,-0.7869,-0.809,-0.8707,-0.8734,-0.8963,-0.9596,-0.9673,-0.9673,-0.9715,-0.9953,-1.0083,-1.0083,-1.0439,-1.0586,-1.0586,-1.0881,-1.0995,-1.1022,-1.1631,-1.1913,-1.194,-1.2171,-1.2305,-1.2305,-1.2305,-1.2305,-1.2305,-1.2268,-1.2268,-1.2305,-1.2268,-1.2268,-1.2305,-1.2318,-1.2318,-1.2331,-1.2358,-1.2665,-1.2973,-1.2973,-1.2919,-1.3306,-1.4442,-1.5611,-1.6898,-1.8532,-1.9452,-2.0388,-2.1416,-2.1136,-2.0815,-2.0668,-2.0187,-1.9546,-1.8731,-1.7996,-1.7261,-1.6563,-1.6027,-1.5271,-1.4266,-1.4215,-1.3681,-1.2663,-1.2744,-1.2636,-1.2305,-1.2305,-1.2305,-1.2305,-1.2305,-1.2305,-1.2305,-1.2305,-1.2305,-1.2305,-1.2305,-1.2438,-1.265,0.0,-1.2529,-1.2744,-1.2412,-1.2305,-1.2144,-1.113,-1.1316,-1.1539,-0.9483,-0.8874,-0.8751,-0.7895,-0.7109,-0.6537,-0.6537,-0.7102,-0.7445,-0.6468,-0.6767,-0.7133,0.0,0.0,0.0,0.0,0.0,0.0,0.0,0.0,0.0,-0.5657,-0.561,-0.5714,-0.5986,-0.5769,-0.5741,-0.6293,-0.6051,-0.6453,-0.8058,-0.7788,-0.7963,-0.8963,-0.9218,-0.9446,-0.9673,-0.9953,-1.0083,-1.0083,-1.0439,-1.0586,-1.0586,-1.0881,-1.1102,-1.1282,-1.169,-1.202,-1.2198,-1.2265,-1.2305,-1.2305,-1.2305,-1.2305,-1.2231,-1.1502,-1.1613,-1.2231,-1.1465,-1.1663,-1.2331,-1.2583,-1.2663,-1.2703,-1.2732,-1.3387,-1.4015,-1.4148,-1.4335,-1.4754,-1.5477,-1.6335,-1.7408,-1.8971,-2.0054,-2.0922,-2.159,-2.159,-2.1547,-2.1323,-2.0762,-2.012,-1.9412,-1.8784,-1.8103,-1.742,-1.671,-1.5845,-1.4923,-1.4522,-1.3814,-1.2784,-1.2784,-1.2636,-1.2305,-1.2305,-1.2305,-1.2305,-1.2305,-1.2305,-1.2305,-1.2305,-1.2305,-1.2305,-1.2305,-1.2398,0.0,-1.2358,-1.2412,-1.2569,-1.2358,-1.2305,-1.2144,-1.113,-1.1168,-1.1279,-0.9291,-0.896,-0.9036,-0.7557,-0.7065,-0.6872,-0.6416,-0.6718,-0.7026,-0.6454,-0.6718,-0.6988,-0.6416,-0.63,-0.6272,0.0,-0.6078,-0.5966,0.0,0.0,0.0,0.0,0.0,0.0,0.0,0.0,-0.5616,-0.5698,-0.5426,-0.5654,-0.6752,-0.6953,-0.7245,-0.7801,-0.8261,-0.8481,-0.8349,-0.8681,-0.8884,-0.8884,-0.9301,-0.9563,-0.9563,-0.9746,-0.9947,-1.0089,-1.0385,-1.0888,-1.1486,-1.16,-1.1885,-1.2268,-1.1848,-1.165,-1.1576,-1.0571,-1.0496,-1.0981,-1.087,-1.1241,-1.1916,-1.2685,-1.2904,-1.2811,-1.332,-1.4309,-1.5236,-1.5364,-1.6219,-1.6834,-1.67,-1.7395,-1.8237,-1.9105,-2.0227,-2.0962,-2.0962,-2.1413,-2.1681,-2.1681,-2.1069,-2.0374,-1.9533,-1.9172,-1.8597,-1.7742,-1.686,-1.6099,-1.5471,-1.4669,-1.3788,-1.2851,-1.2851,-1.2677,-1.2305,-1.2305,-1.2305,-1.2305,-1.2305,-1.2305,-1.2305,-1.2305,-1.2305,-1.2305,-1.2305,-1.2305,-1.2305,-1.2305,-1.2305,-1.2305,-1.2305,-1.2305,-1.2144,-1.113,-1.0783,-1.0484,-0.8571,-0.8504,-0.877,-0.7026,-0.7026,-0.7403,-0.6532,-0.63,-0.63,-0.63,-0.63,-0.63,-0.63,-0.63,-0.63,-0.63,-0.6152,-0.602,0.0,0.0,0.0,0.0,0.0,0.0,0.0,0.0,-0.5596,-0.5616,-0.5481,0.0,-0.5392,-0.6241,-0.67,-0.6524,-0.716,-0.7295,0.0,0.0,-0.7299,-0.733,-0.7892,-0.8209,-0.8239,-0.8379,-0.8462,-0.8492,-0.8752,-0.9353,-1.0248,-1.0504,-1.1093,-1.1848,-1.0981,-1.0596,-1.0522,-0.9518,-0.9112,-0.9226,-1.0222,-1.0746,-1.1093,-1.2282,-1.2687,-1.2697,-1.3935,-1.507,-1.5912,-1.5471,-1.674,-1.8036,-1.8718,-1.9359,-2.0,-2.0641,-2.175,-2.2485,-2.2485,-2.2138,-2.1911,-2.1911,-2.1376,-2.0762,-2.012,-1.9586,-1.8998,-1.8357,-1.7527,-1.6607,-1.5765,-1.5364,-1.4496,-1.3133,-1.3133,-1.2839,-1.2305,-1.2305,-1.2305,-1.2305,-1.2305,-1.2305,-1.2305,-1.2305,-1.2305,-1.2305,-1.2305,-1.2305,-1.2305,-1.2305,-1.2305,-1.2305,-1.2305,-1.2305,-1.2144,-1.113,-1.0783,-1.0596,-0.9405,-0.858,-0.8008,-0.7633,-0.7057,-0.6532,-0.6338,-0.63,-0.63,-0.63,-0.63,-0.63,-0.63,-0.63,-0.63,-0.63,-0.6279,-0.6179,-0.6013,0.0,0.0,0.0,0.0,0.0,0.0,0.0,0.0,-0.5752,-0.5413,-0.5223,-0.5385,-0.5872,-0.6134,-0.6109,-0.6538,-0.6859,0.0,0.0,-0.734,0.0,-0.7949,-0.8245,0.0,0.0,-0.8795,-0.8983,-0.9135,-0.9316,-0.9504,-0.9545,-0.9669,-0.982,-0.9631,-0.9556,-0.948,-0.8466,-0.8046,-0.8161,-0.9178,-0.9587,-0.9687,-1.0023,-1.0886,-1.2102,-1.5845,-1.6473,-1.7007,-1.7194,-1.8249,-1.9426,-2.016,-2.1029,-2.1363,-2.0735,-2.1416,-2.183,-2.1537,-2.179,-2.1924,-2.1777,-2.1363,-2.0855,-2.0207,-1.9826,-1.9265,-1.8517,-1.7822,-1.6954,-1.6086,-1.5471,-1.4603,-1.34,-1.312,-1.2851,-1.2569,-1.2569,-1.2569,-1.2556,-1.2371,-1.2385,-1.2556,-1.2371,-1.2478,-1.2759,-1.2636,-1.2625,-1.2759,-1.2599,-1.2569,-1.2468,-1.1788,-1.1502,-1.1465,-1.0969,-1.0447,-0.9857,-0.8836,-0.8199,-0.771,-0.7173,-0.7065,-0.6949,-0.6454,-0.63,-0.63,-0.63,-0.63,-0.63,-0.63,-0.63,-0.63,-0.63,-0.63,-0.6252,-0.602,-0.6037,0.0,0.0,0.0,0.0,0.0,0.0,-0.5616,0.0,-0.5433,-0.5277,-0.5385,-0.5474,-0.5517,-0.5434,-0.5917,-0.6131,0.0,0.0,-0.6197,0.0,0.0,0.0,-0.707,0.0,-0.7534,-0.7663,-0.7702,-0.8008,-0.8504,-0.8504,-0.8808,-0.9263,-0.8732,-0.8504,-0.8428,-0.7442,-0.7026,-0.7142,-0.819,-0.8716,-0.8906,-0.9596,-1.0388,-1.1316,-1.7675,-1.7969,-1.8343,-1.8998,-1.9933,-2.0735,-2.1149,-2.2151,-2.2365,-2.0975,-2.1189,-2.1283,-2.0748,-2.147,-2.1871,-2.1641,-2.1283,-2.0855,-2.0207,-1.996,-1.9412,-1.8531,-1.7969,-1.7235,-1.6348,-1.5584,-1.4683,0.0,0.0,0.0,-1.2878,-1.2811,-1.2784,-1.277,-1.2572,-1.2625,0.0,0.0,-1.2772,-1.3186,-1.2985,-1.2986,-1.3173,-1.2904,-1.2824,-1.2709,-1.1277,-1.0818,-1.0828,-1.0582,-0.982,-0.8884,-0.8313,-0.7817,-0.7326,-0.6532,-0.6872,-0.7326,-0.6525,-0.63,-0.63,-0.63,-0.63,-0.63,-0.63,-0.63,-0.63,-0.63,-0.63,-0.6259,-0.6098,-0.6179,0.0,0.0,0.0,0.0,0.0,0.0,-0.5589,0.0,0.0,0.0,-0.5392,-0.5223,-0.5063,-0.502,-0.5374,-0.5433,-0.5037,0.0,0.0,0.0,0.0,-0.582,-0.5847,0.0,-0.6313,-0.634,-0.6313,-0.6718,-0.748,-0.748,-0.7893,-0.8618,-0.7817,-0.748,-0.7403,-0.6641,-0.632,-0.6432,-0.7328,-0.7837,-0.8139,-0.9117,-0.98,-1.0353,-1.8343,-1.9252,-1.9933,-1.9746,-2.0882,-2.175,-2.1614,-2.2351,-2.2874,-2.2645,-2.2727,-2.2579,-2.2245,-2.2084,-2.1871,-2.1641,-2.1283,-2.0855,-2.0207,-1.996,-1.9412,-1.8531,-1.8183,-1.7462,-1.6299,-1.5925,-1.519,0.0,0.0,-1.3387,0.0,-1.2918,-1.2784,-1.2797,0.0,0.0,0.0,-1.3133,-1.316,-1.3213,-1.3173,-1.3186,-1.3173,-1.2904,-1.2958,-1.2975,-1.135,-1.0948,-1.0997,-0.9818,-0.877,-0.8084,-0.8922,-0.7893,-0.6416,-0.6338,-0.6377,-0.6416,-0.6338,-0.63,-0.63,-0.63,-0.63,-0.63,-0.63,-0.63,-0.63,-0.63,-0.63,-0.6293,-0.6279,-0.6286,-0.6245,0.0,0.0,0.0,0.0,0.0,-0.5589,-0.5589,0.0,0.0,-0.5392,-0.5223,-0.5182,-0.5344,-0.5123,-0.5082,0.0,0.0,0.0,-0.5365,-0.5637,-0.5867,-0.5973,-0.6173,-0.6368,-0.6491,-0.6361,-0.6338,-0.6454,-0.6454,-0.6493,-0.6563,-0.6493,-0.6454,-0.6454,-0.6338,-0.6375,-0.6491,-0.6584,-0.6728,-0.6881,-0.7119,-0.7909,-0.9074,-1.9773,-2.004,-2.0414,-2.1002,-2.1309,-2.1657,-2.2311,-2.27,-2.2928,-2.2928,-2.2712,-2.2418,-2.1951,-2.179,-2.1748,-2.1628,-2.1283,-2.0855,-2.0207,-2.012,-1.9586,-1.8544,-1.837,-1.7836,-1.6871,-1.6339,-1.5605,0.0,0.0,0.0,0.0,0.0,0.0,0.0,0.0,-1.3427,-1.3427,-1.3427,-1.3574,-1.3721,-1.3507,-1.364,-1.3948,-1.3467,-1.3467,-1.3462,-1.1214,-1.0503,-1.0416,-0.9199,-0.8335,-0.7855,-0.8275,-0.7442,-0.63,-0.63,-0.63,-0.63,-0.63,-0.63,-0.63,-0.63,-0.63,-0.63,-0.63,-0.63,-0.63,-0.63,-0.63,-0.63,-0.63,-0.63,-0.6279,-0.6179,0.0,0.0,0.0,0.0,0.0,-0.5589,0.0,-0.5392,-0.5392,-0.5337,-0.5324,-0.5392,-0.5162,0.0,0.0,0.0,0.0,-0.5528,0.0,-0.5874,-0.5993,-0.6179,-0.6327,-0.6381,-0.6327,-0.63,-0.63,-0.63,-0.63,-0.63,-0.63,-0.6347,-0.6429,-0.6429,-0.6518,-0.662,-0.6709,-0.6783,-0.6858,-0.6957,-0.7316,-0.7795,-2.1029,-2.0962,-2.1162,-2.2084,-2.1977,-2.2004,-2.2752,-2.2928,-2.2832,-2.2739,-2.2472,-2.2164,-2.1844,-2.1724,-2.1708,-2.1628,-2.1203,-2.0762,-2.0207,-2.0147,-1.9653,-1.8664,-1.8544,0.0,-1.734,-1.675,-1.6019,-1.5217,-1.4923,0.0,0.0,0.0,0.0,0.0,-1.3946,-1.3946,-1.3866,-1.3959,-1.3884,-1.3677,-1.3913,-1.4012,-1.405,-1.3913,-1.4082,-1.4025,-1.1293,-1.0381,-1.0208,-0.858,-0.7785,-0.7509,-0.7763,-0.7134,-0.63,-0.63,-0.63,-0.63,-0.63,-0.63,-0.63,-0.63,-0.63,-0.63,-0.63,-0.63,-0.63,-0.63,-0.63,-0.63,-0.63,-0.63,-0.63,-0.63,0.0,0.0,0.0,-0.5881,0.0,-0.5657,-0.5556,-0.5446,-0.5399,-0.5392,-0.5392,-0.5392,0.0,0.0,0.0,0.0,0.0,0.0,0.0,0.0,-0.5993,-0.6179,-0.63,-0.63,-0.63,-0.63,-0.63,-0.63,-0.63,-0.63,-0.634,-0.6422,-0.6518,-0.6559,-0.6627,-0.6776,-0.6842,-0.691,-0.6957,-0.7058,-0.7098,-0.7143,-2.1857,-2.2191,-2.2485,-2.2806,-2.31,-2.3207,-2.2913,-2.2928,-2.2752,-2.2458,-2.2164,-2.2098,-2.2378,-2.2151,-2.1871,-2.1641,-2.1015,-2.0548,-2.0193,-1.996,-1.9546,0.0,0.0,-1.821,-1.7595,-1.7007,-1.6406,-1.5771,0.0,0.0,-1.4995,0.0,-1.479,-1.4479,-1.4861,-1.479,-1.4522,-1.483,-1.4053,-1.2745,-1.4327,-1.4205,-1.3119,-1.412,-1.4696,-1.4602,-1.1641,-1.0791,-1.0677,-0.8018,-0.6939,-0.6874,-0.7749,-0.7227,-0.63,-0.63,-0.63,-0.63,-0.63,-0.63,-0.63,-0.63,-0.63,-0.63,-0.63,-0.63,-0.63,-0.63,-0.63,-0.63,-0.63,-0.63,-0.63,-0.63,0.0,0.0,0.0,-0.6125,0.0,-0.582,-0.5671,-0.5562,-0.5405,-0.5392,-0.5392,-0.5392,0.0,0.0,0.0,0.0,0.0,-0.5589,-0.5874,0.0,-0.5993,-0.6179,-0.63,-0.63,-0.63,-0.63,-0.63,-0.63,-0.63,-0.6306,-0.645,-0.6511,-0.6525,-0.6634,-0.679,-0.6883,-0.6883,-0.697,-0.7092,-0.7098,-0.7098,-0.7268,-2.2245,-2.2525,-2.2752,-2.2846,-2.2939,-2.2979,-2.2873,-2.2928,-2.2752,-2.2458,-2.2338,-2.2245,-2.2138,-2.1683,-2.143,-2.1601,-2.1203,-2.0762,0.0,-2.0147,-1.9653,-1.8677,-1.8544,-1.821,-1.7595,-1.7208,-1.682,-1.6433,0.0,0.0,0.0,-1.5645,-1.5498,-1.5371,-1.5511,-1.4869,-1.3765,-1.3851,-1.2986,-1.1626,-1.2155,-1.2194,-1.1977,-1.212,-1.2358,-1.236,-1.051,-0.9906,-0.9763,-0.8128,-0.7468,-0.731,-0.7346,-0.6907,-0.63,-0.63,-0.63,-0.63,-0.63,-0.63,-0.63,-0.63,-0.63,-0.63,-0.63,-0.63,-0.63,-0.63,-0.63,-0.63,-0.63,-0.63,-0.63,-0.63,-0.63,0.0,-0.63,0.0,-0.5973,-0.5925,-0.5827,-0.5718,-0.5664,-0.5657,0.0,0.0,0.0,0.0,0.0,0.0,0.0,0.0,-0.5946,0.0,-0.6186,-0.6272,-0.6347,-0.6443,-0.6443,-0.6497,-0.6559,-0.6559,-0.6559,-0.6566,-0.6607,-0.6688,-0.6783,-0.6837,-0.6896,-0.7031,-0.7031,-0.7058,-0.7098,-0.7098,-0.7098,-0.7143,-2.2579,-2.2739,-2.2928,-2.2928,-2.2928,-2.2887,-2.2712,-2.2699,-2.2592,-2.2298,-2.2164,-2.2031,-2.1844,-2.1296,0.0,-2.1574,-2.1082,-2.0628,-2.0193,-2.0027,-1.9533,-1.8691,-1.8544,-1.8263,-1.7769,-1.7462,0.0,-1.6874,-1.6251,-1.6108,-1.6433,-1.5696,-1.5606,-1.6104,-1.5557,-1.4715,-1.3635,-1.3146,-1.2051,-1.0669,-1.1145,-1.1148,-1.0868,-1.1169,-1.1404,-1.1407,-1.0096,-0.9669,-0.9486,-0.8286,-0.7767,-0.7563,-0.7373,-0.698,-0.6559,-0.6429,-0.6381,-0.6368,-0.6313,-0.63,-0.63,-0.63,-0.63,-0.63,-0.63,-0.63,-0.63,-0.63,-0.63,-0.63,-0.63,-0.63,-0.63,-0.63,-0.63,-0.63,-0.63,0.0,-0.6098,0.0,0.0,0.0,0.0,-0.58,-0.5766,0.0,0.0,0.0,0.0,0.0,-0.5928,-0.5986,-0.6084,-0.6186,-0.6375,-0.6381,-0.6457,-0.6559,-0.6559,-0.6607,-0.6702,-0.6702,-0.6702,-0.6702,-0.6763,-0.6844,-0.6889,-0.6943,-0.7018,-0.7098,-0.7098,-0.7098,-0.7098,-0.7098,-0.7098,-0.7098,-2.2928,-2.2928,-2.2928,-2.2928,-2.2928,-2.2766,-2.2485,-2.2445,-2.2338,-2.2031,-2.175,-2.1628,-2.1588,-2.1029,-2.0922,-2.1534,0.0,0.0,-2.014,-1.9679,-1.9225,-1.8905,-1.8611,-1.8317,-1.7969,-1.7729,-1.7448,-1.7065,-1.5426,-1.5241,-1.6426,-1.5014,-1.5166,-1.65,-1.504,-1.4244,-1.3914,-1.2581,-1.1123,-0.978,-1.0972,-1.0697,-0.9793,-1.0854,-1.1311,-1.1256,-1.0088,-0.9736,-0.9641,-0.8428,-0.7855,-0.7631,-0.7617,-0.7407,-0.7038,-0.662,-0.6525,-0.6497,-0.634,-0.63,-0.63,-0.63,-0.63,-0.63,-0.63,-0.63,-0.63,-0.63,-0.63,-0.63,-0.63,-0.63,-0.63,-0.63,-0.63,-0.63,-0.63,-0.63,-0.6245,0.0,0.0,0.0,-0.5847,-0.5833,-0.5827,0.0,0.0,0.0,0.0,0.0,-0.602,-0.602,-0.62,-0.6381,-0.6525,-0.6525,-0.6566,-0.6715,-0.6729,-0.6729,-0.6729,-0.6729,-0.6729,-0.6742,-0.6836,-0.6903,-0.691,-0.7045,-0.7098,-0.7098,-0.7098,-0.7098,-0.7098,-0.7098,-0.7098,-0.7098,-2.2928,-2.2928,-2.2928,-2.2928,-2.2928,-2.2846,-2.2766,-2.2752,-2.2579,-2.2058,-2.1924,-2.171,-2.1269,-2.1082,-2.1069,-2.1203,-2.0615,-2.0134,-1.992,-1.9559,-1.9132,-1.8624,-1.8303,-1.8009,-1.7702,-1.7622,-1.7002,-1.5805,-1.5227,-1.4527,-1.3882,-1.3286,-1.3824,-1.5204,-1.3585,-1.2875,-1.2702,-1.1083,-0.9616,-0.8456,-0.8512,-0.8467,-0.8268,-0.844,-0.855,-0.8549,-0.8343,-0.8311,-0.8265,-0.8096,-0.7941,-0.7867,-0.7801,-0.7638,-0.738,-0.681,-0.6647,-0.6586,-0.6368,-0.63,-0.63,-0.63,-0.63,-0.63,-0.63,-0.63,-0.63,-0.63,-0.63,-0.63,-0.63,-0.63,-0.63,-0.63,-0.63,-0.63,-0.63,-0.63,-0.6286,0.0,-0.6245,-0.6231,-0.619,-0.619,-0.6105,0.0,0.0,-0.6152,-0.6,-0.624,-0.6369,-0.6369,-0.6443,-0.6532,-0.6647,-0.6647,-0.6722,-0.6836,-0.6943,-0.6991,-0.6991,-0.6991,-0.6991,-0.6997,-0.7031,-0.7045,-0.7051,-0.7085,-0.7098,-0.7098,-0.7098,-0.7098,-0.7098,-0.7098,-0.7098,-0.7098,-2.2928,-2.2928,-2.2928,-2.2928,-2.2928,-2.2819,-2.2686,-2.2659,-2.2445,-2.1857,-2.179,-2.1617,-2.1162,-2.0989,-2.0909,-2.0909,-2.0494,-2.016,-2.0013,-1.9599,-1.9105,-1.8517,-1.833,-1.8036,-1.7595,-1.7582,-1.6882,-1.5411,-1.4582,-1.3827,-1.3126,-1.2221,-1.2593,-1.3927,-1.2312,-1.1614,-1.1494,-0.9887,-0.8772,-0.8126,-0.7896,-0.7807,-0.7794,-0.7651,-0.7597,-0.7611,-0.7685,-0.7712,-0.7726,-0.7807,-0.7841,-0.7834,-0.7814,-0.776,-0.7617,-0.7224,-0.6919,-0.6668,-0.6505,-0.6402,-0.6313,-0.6381,-0.6395,-0.6416,-0.6484,-0.6504,-0.6484,-0.6409,-0.6395,-0.6375,-0.6313,-0.63,-0.63,-0.63,-0.63,-0.63,-0.63,-0.63,-0.63,-0.63,-0.63,-0.63,-0.63,-0.63,-0.6265,-0.6139,-0.6313,0.0,-0.6234,-0.6519,-0.6614,-0.6518,-0.6539,-0.6647,-0.6803,-0.6871,-0.698,-0.7129,-0.7092,-0.7173,-0.7346,-0.7159,-0.7132,-0.7244,-0.7125,-0.7098,-0.7098,-0.7098,-0.7139,-0.7244,-0.7244,-0.7292,-0.7339,-0.7272,-0.7244,-0.7238,-2.2928,-2.2928,-2.2928,-2.2928,-2.2928,-2.2779,-2.2525,-2.2485,-2.2271,-2.1762,-2.1681,-2.1483,-2.1149,-2.0895,-2.0735,-2.0735,-2.0468,-2.0267,-2.0174,-1.9626,-1.9052,-1.8517,-1.845,-1.8156,-1.7595,-1.7582,-1.6764,-1.5091,-1.3911,-1.3048,-1.2615,-1.1263,-1.1309,-1.2556,-1.1054,-1.0499,-1.0552,-0.9064,-0.8391,-0.8282,-0.8085,-0.7894,-0.7828,-0.7665,-0.7584,-0.757,-0.759,-0.7584,-0.757,-0.759,-0.7597,-0.7617,-0.774,-0.778,-0.7753,-0.7638,-0.7224,-0.679,-0.6749,-0.6532,-0.6395,-0.6518,-0.6545,-0.6539,-0.6668,-0.6702,-0.6661,-0.6573,-0.6545,-0.6504,-0.6361,-0.6334,-0.6327,-0.6306,-0.63,-0.63,-0.63,0.0,-0.6306,-0.6327,-0.6334,-0.634,-0.6361,-0.6368,-0.6375,-0.6402,-0.6491,-0.6566,-0.6573,-0.6817,-0.6851,-0.6654,-0.6736,-0.6878,-0.6984,-0.7105,-0.7272,-0.7453,-0.7272,-0.7346,-0.759,-0.7305,-0.7244,-0.7405,-0.721,-0.7098,-0.7098,-0.7119,-0.7251,-0.7419,-0.7439,-0.7489,-0.7584,-0.7455,-0.7453,-0.738,-2.2928,-2.2928,-2.2928,-2.2928,-2.2928,-2.2846,-2.2806,-2.2792,-2.2579,-2.1991,-2.1924,-2.171,-2.1162,-2.1069,-2.1042,-2.1042,-2.0775,-2.0401,-1.9907,-1.9319,-1.8838,-1.8504,-1.825,-1.7943,-1.7595,-1.7582,-1.6287,-1.3642,-1.3426,-1.2028,-0.9588,-0.9347,-0.9777,-1.0741,-0.9572,-0.9467,-1.0205,-0.8904,-0.8364,-0.8411,-0.8011,-0.7909,-0.7928,-0.7706,-0.7516,-0.7421,-0.7556,-0.7516,-0.7428,-0.7556,-0.7597,-0.7604,-0.7624,-0.7631,-0.7631,-0.7604,-0.7441,-0.721,-0.6959,-0.6763,-0.6634,-0.6661,-0.6668,-0.6668,-0.6695,-0.6702,-0.6695,-0.6668,-0.6668,-0.662,-0.6504,-0.6477,-0.6443,-0.632,-0.63,-0.63,-0.63,0.0,-0.634,-0.6463,-0.6477,-0.6532,-0.662,-0.6634,-0.6688,-0.6817,-0.6722,-0.6776,-0.6977,-0.7038,-0.7143,-0.7276,-0.7303,-0.7339,-0.7495,-0.7516,-0.7543,-0.7563,-0.7543,-0.7556,-0.7597,-0.7414,-0.7346,-0.7405,-0.721,-0.7098,-0.7105,-0.7278,-0.7353,-0.7433,-0.7516,-0.7577,-0.7597,-0.757,-0.7563,-0.7543,-2.2928,-2.2928,-2.2928,-2.2928,-2.2928,-2.2928,-2.2928,-2.2928,-2.2712,-2.2271,-2.2084,-2.1817,-2.139,-2.1203,-2.1109,-2.1109,-2.0842,-2.0561,-2.0294,-1.972,-1.9132,-1.8517,-1.8357,-1.8143,-1.7836,-1.6906,-1.5482,-1.3501,-1.2669,-1.1142,-0.9055,-0.9055,-0.9265,-0.9578,-0.8979,-0.8899,-0.9249,-0.8727,-0.8499,-0.8472,-0.8343,-0.8289,-0.8255,-0.8045,-0.7868,-0.7733,-0.7719,-0.7617,-0.7495,-0.7482,-0.7475,-0.7489,-0.757,-0.7597,-0.7631,-0.7787,-0.7556,-0.7217,-0.7038,-0.6871,-0.6742,-0.6898,-0.6878,-0.6885,-0.7129,-0.7122,-0.7061,-0.7061,-0.6993,-0.6844,-0.6573,-0.6511,-0.6491,-0.6422,-0.6347,0.0,-0.6402,-0.6416,-0.6436,-0.6504,-0.6546,-0.662,-0.6695,-0.6776,-0.6851,-0.6883,-0.7014,-0.7122,-0.7258,-0.7414,-0.7536,-0.7604,-0.7536,-0.7529,-0.7597,-0.7597,-0.7638,-0.7712,-0.7638,-0.7685,-0.7828,-0.7597,-0.7536,-0.7597,-0.7448,-0.7339,-0.7278,-0.7428,-0.7495,-0.7509,-0.7658,-0.7767,-0.7828,-0.7746,-0.7712,-0.7692,-2.2928,-2.2928,-2.2928,-2.2928,-2.2928,-2.2928,-2.2928,-2.2928,-2.2726,-2.2365,-2.2124,-2.1844,-2.1483,-2.1243,-2.1109,-2.1109,-2.0909,-2.0748,-2.0681,-2.0254,-1.9613,-1.8731,-1.8557,-1.8384,-1.8102,-1.6414,-1.4896,-1.3699,-1.2089,-1.0618,-0.9262,-0.9303,-0.9184,-0.9035,-0.8954,-0.8798,-0.8601,-0.875,-0.873,-0.8594,-0.8676,-0.8621,-0.8465,-0.8374,-0.8174,-0.7968,-0.7868,-0.774,-0.7624,-0.7475,-0.7421,-0.7448,-0.7563,-0.7624,-0.7685,-0.7833,-0.7564,-0.72,-0.72,-0.7082,-0.6973,-0.7186,-0.7173,-0.7224,-0.757,-0.7584,-0.7516,-0.7482,-0.7353,-0.7129,-0.6791,-0.6654,-0.6607,-0.6539,0.0,-0.6484,-0.6552,-0.6566,-0.6552,-0.662,-0.6729,-0.6831,-0.6905,-0.7014,-0.7051,-0.7085,-0.7312,-0.7455,-0.7522,-0.7706,-0.7828,-0.7862,-0.776,-0.7699,-0.7699,-0.7699,-0.7753,-0.7862,-0.7753,-0.7821,-0.7982,-0.7767,-0.7706,-0.7801,-0.7658,-0.7536,-0.7434,-0.759,-0.7651,-0.7665,-0.7807,-0.7887,-0.7975,-0.7909,-0.7862,-0.7841,-2.2928,-2.2928,-2.2928,-2.2928,-2.2928,-2.2928,-2.2928,-2.2928,-2.2659,-2.2098,-2.2004,-2.1764,-2.1203,-2.1122,-2.1109,-2.1109,-2.1096,-2.0962,-2.0695,-2.0641,-2.0227,-1.9345,-1.8784,-1.8477,-1.8464,-1.6752,-1.5119,-1.3699,-1.2089,-1.0625,-0.9367,-0.951,-0.9496,-0.9354,-0.9483,-0.9306,-0.8858,-0.9055,-0.9035,-0.8838,-0.8764,-0.8621,-0.8465,-0.8374,-0.8174,-0.7968,-0.7868,-0.7801,-0.7773,-0.7631,-0.7584,-0.7584,-0.7597,-0.7692,-0.7773,-0.7665,-0.7604,-0.7563,-0.7563,-0.755,-0.757,-0.7726,-0.7753,-0.7753,-0.7787,-0.7896,-0.7901,-0.7807,-0.7665,-0.7509,-0.7385,-0.719,-0.6957,-0.6729,0.0,0.0,-0.6702,-0.6681,-0.6783,-0.7018,-0.7058,-0.7173,-0.7509,-0.7543,-0.7604,-0.774,-0.7645,-0.7699,-0.7928,-0.7875,-0.7875,-0.7968,-0.7961,-0.7961,-0.7961,-0.7961,-0.7961,-0.7975,-0.7961,-0.7968,-0.7982,-0.7868,-0.7801,-0.7801,-0.7658,-0.759,-0.7597,-0.774,-0.7794,-0.7814,-0.7914,-0.7982,-0.7988,-0.7975,-0.7975,-0.7948,-2.2928,-2.2928,-2.2928,-2.2928,-2.2928,-2.2928,-2.2928,-2.2928,-2.2712,-2.2311,-2.2098,-2.183,-2.143,-2.1216,-2.1109,-2.1109,-2.0949,-2.0869,-2.0935,-2.0601,-2.0013,-1.9132,-1.8704,-1.849,-1.849,-1.5786,-1.4269,-1.3959,-1.1379,-0.9889,-0.9388,-0.9537,-0.9578,-0.9523,-0.9483,-0.932,-0.9069,-0.9035,-0.8988,-0.8878,-0.8817,-0.8818,-0.875,-0.8601,-0.8506,-0.8438,-0.8282,-0.8174,-0.8072,-0.7923,-0.7807,-0.7733,-0.7733,-0.7767,-0.7821,-0.7862,-0.7875,-0.7875,-0.7875,-0.774,-0.7631,-0.7773,-0.7746,-0.7753,-0.8031,-0.7991,-0.7936,-0.8072,-0.7902,-0.7685,-0.7543,-0.7387,-0.7305,-0.738,0.0,-0.7217,-0.7251,-0.7258,-0.7265,-0.7278,-0.7366,-0.7468,-0.759,-0.7678,-0.7753,-0.7807,-0.7848,-0.7874,-0.7982,-0.7934,-0.7928,-0.7988,-0.7988,-0.7988,-0.7988,-0.7988,-0.7988,-0.7988,-0.7988,-0.7988,-0.7988,-0.7928,-0.7901,-0.7901,-0.7847,-0.7821,-0.774,-0.7889,-0.7896,-0.7828,-0.7928,-0.7988,-0.7988,-0.7988,-0.7988,-0.7982,-2.2928,-2.2928,-2.2928,-2.2928,-2.2928,-2.2928,-2.2928,-2.2928,-2.2726,-2.2338,-2.2111,-2.1844,-2.1456,-2.1229,-2.1109,-2.1109,-2.0922,-2.0895,-2.1096,-2.0224,-1.9309,-1.8461,-1.8186,-1.7818,-1.7264,-1.5006,-1.3655,-1.3451,-1.0775,-0.9456,-0.9456,-0.9605,-0.968,-0.9673,-0.9564,-0.9435,-0.9293,-0.9191,-0.9096,-0.9008,-0.9008,-0.8947,-0.8804,-0.875,-0.871,-0.8689,-0.8533,-0.8452,-0.8377,-0.818,-0.8045,-0.795,-0.7896,-0.7882,-0.7902,-0.7961,-0.8022,-0.8113,-0.8113,-0.7997,-0.7889,-0.7943,-0.7882,-0.7889,-0.8252,-0.814,-0.8072,-0.8235,-0.8106,-0.7923,-0.7828,-0.7726,-0.7706,-0.7862,-0.7712,-0.7604,-0.7658,-0.7665,-0.7624,-0.7522,-0.7645,-0.774,-0.774,-0.7828,-0.7882,-0.7882,-0.7928,-0.7988,-0.7988,-0.7988,-0.7988,-0.7988,-0.7988,-0.7988,-0.7988,-0.7988,-0.7988,-0.7988,-0.7988,-0.7988,-0.7988,-0.7988,-0.7988,-0.7988,-0.7988,-0.7928,-0.7889,-0.7948,-0.7928,-0.7896,-0.7948,-0.7988,-0.7988,-0.7988,-0.7988,-0.7988,-2.2928,-2.2928,-2.2928,-2.2928,-2.2928,-2.2928,-2.2928,-2.2928,-2.2645,-2.2058,-2.1991,-2.1764,-2.1176,-2.1109,-2.1109,-2.1109,-2.1109,-2.1109,-2.1109,-1.9483,-1.816,-1.7445,-1.7241,-1.6395,-1.4669,-1.4445,-1.3626,-1.1988,-1.0369,-0.9612,-0.9612,-0.9754,-0.9822,-0.9822,-0.9822,-0.9741,-0.9612,-0.9605,-0.9435,-0.9214,-0.9214,-0.8981,-0.8716,-0.8716,-0.8716,-0.8696,-0.8547,-0.8587,-0.8669,-0.8377,-0.8327,-0.8248,-0.8092,-0.7988,-0.7988,-0.7995,-0.8153,-0.832,-0.8327,-0.8377,-0.8452,-0.8361,-0.8327,-0.8327,-0.8327,-0.8377,-0.8438,-0.8354,-0.832,-0.832,-0.8327,-0.8327,-0.8221,-0.8022,-0.7995,-0.7941,-0.7841,-0.7814,-0.7814,-0.7814,-0.7901,-0.7988,-0.7988,-0.7988,-0.7988,-0.7988,-0.7988,-0.7988,-0.7988,-0.7988,-0.7988,-0.7988,-0.7988,-0.7988,-0.7988,-0.7988,-0.7988,-0.7988,-0.7988,-0.7988,-0.7988,-0.7988,-0.7988,-0.7988,-0.7988,-0.7988,-0.7988,-0.7988,-0.7988,-0.7988,-0.7988,-0.7988,-0.7988,-0.7988,-0.7988,-0.7988,-2.2928,-2.2928,-2.2928,-2.2928,-2.2928,-2.2928,-2.2928,-2.2928,-2.2645,-2.2058,-2.1991,-2.1764,-2.1176,-2.1109,-2.1109,-2.1109,-2.1109,-2.1029,-2.0815,-1.8215,-1.6456,-1.5977,-1.5771,-1.5288,-1.448,-1.3342,-1.2471,-1.1988,-1.0369,-0.9612,-0.9612,-0.9652,-0.9727,-0.9815,-0.972,-0.9646,-0.9605,-0.9496,-0.9395,-0.9313,-0.9313,-0.9259,-0.9184,-0.9184,-0.9184,-0.9178,-0.913,-0.9076,-0.8994,-0.8804,-0.8669,-0.8554,-0.8397,-0.8208,-0.8029,-0.8289,-0.8309,-0.834,-0.8391,-0.8452,-0.8472,-0.8431,-0.8418,-0.8418,-0.8418,-0.8377,-0.835,-0.8411,-0.8336,-0.8354,-0.8397,-0.8418,-0.8438,-0.8499,-0.8513,-0.8492,-0.8452,-0.835,-0.8248,-0.8147,-0.8079,-0.7988,-0.7988,-0.7988,-0.7988,-0.7988,-0.7988,-0.7988,-0.7988,-0.7988,-0.7988,-0.7988,-0.7988,-0.7988,-0.7988,-0.7988,-0.7988,-0.7988,-0.7988,-0.7988,-0.7988,-0.7988,-0.7988,-0.7988,-0.7988,-0.7988,-0.7988,-0.7988,-0.7988,-0.7988,-0.7988,-0.7988,-0.8002,-0.816,-0.8133,-0.8008,-2.2928,-2.2928,-2.2928,-2.2928,-2.2928,-2.2928,-2.2928,-2.2928,-2.2699,-2.2218,-2.2058,-2.1804,-2.1336,-2.1283,-2.1243,-2.1122,-2.1109,-2.0766,-2.0055,-1.744,-1.547,-1.4579,-1.3743,-1.3089,-1.2691,-1.2318,-1.1812,-1.1157,-1.0165,-0.9693,-0.9693,-0.9693,-0.9741,-0.9815,-0.9734,-0.9693,-0.9686,-0.9591,-0.9523,-0.9469,-0.9469,-0.9435,-0.9381,-0.9381,-0.9381,-0.9381,-0.9381,-0.9344,-0.9187,-0.8988,-0.8798,-0.8601,-0.8513,-0.8357,-0.8248,-0.8431,-0.8465,-0.8465,-0.8547,-0.8615,-0.8662,-0.8662,-0.8574,-0.8479,-0.8479,-0.8418,-0.8377,-0.8465,-0.8513,-0.854,-0.8567,-0.8716,-0.8852,-0.8879,-0.8886,-0.8866,-0.8811,-0.8723,-0.8587,-0.8377,-0.8269,-0.8194,-0.814,-0.8022,-0.7988,-0.7988,-0.7988,-0.7988,-0.7988,-0.8099,-0.8106,-0.7988,-0.8099,-0.8133,-0.8133,-0.8133,-0.8099,-0.7988,-0.7988,-0.7988,-0.7988,-0.7988,-0.7988,-0.7988,-0.7988,-0.7988,-0.7988,-0.7988,-0.7988,-0.7988,-0.7988,-0.7988,-0.8002,-0.8147,-0.8119,-0.8002,-2.2928,-2.2928,-2.2928,-2.2928,-2.2928,-2.2928,-2.2928,-2.2928,-2.2752,-2.2458,-2.2191,-2.1897,-2.1655,-2.1641,-2.147,-2.1176,-2.1176,-2.0644,-1.9381,-1.7185,-1.5219,-1.3578,-1.1696,-1.0521,-1.0038,-1.1487,-1.1456,-0.9842,-0.9829,-0.9822,-0.9822,-0.9822,-0.9822,-0.9822,-0.9822,-0.9822,-0.9822,-0.9822,-0.9747,-0.9632,-0.9632,-0.9544,-0.9422,-0.9422,-0.9422,-0.9422,-0.9422,-0.932,-0.9228,-0.9015,-0.8757,-0.8506,-0.852,-0.8506,-0.8486,-0.8513,-0.8615,-0.8716,-0.873,-0.8832,-0.8885,-0.8885,-0.873,-0.852,-0.8506,-0.8506,-0.8506,-0.8506,-0.8723,-0.8817,-0.8737,-0.9069,-0.9313,-0.9214,-0.92,-0.9166,-0.8974,-0.8878,-0.8811,-0.8533,-0.8506,-0.8452,-0.8374,-0.818,-0.8042,-0.8029,-0.8029,-0.8029,-0.8029,-0.8214,-0.8221,-0.8035,-0.8214,-0.834,-0.834,-0.834,-0.8221,-0.8029,-0.8029,-0.8029,-0.8029,-0.8029,-0.8022,-0.8008,-0.8008,-0.8002,-0.7988,-0.7988,-0.7988,-0.7988,-0.7988,-0.7988,-0.7988,-0.8008,-0.8002,-0.7988,-2.2928,-2.2928,-2.2928,-2.2928,-2.2928,-2.2928,-2.2928,-2.2928,-2.2752,-2.2458,-2.2365,-2.2124,-2.1681,-2.1815,-2.1777,-2.1547,-2.167,-2.1686,-2.1345,-1.8159,-1.603,-1.5339,-1.2347,-1.0616,-1.0399,-1.0601,-1.0461,-0.9936,-0.9876,-0.9822,-0.9822,-0.9822,-0.9822,-0.9822,-0.9822,-0.9822,-0.9822,-0.9822,-0.9802,-0.9774,-0.9774,-0.9754,-0.9727,-0.9727,-0.9727,-0.9727,-0.9727,-0.9632,-0.9469,-0.9198,-0.8906,-0.8682,-0.8804,-0.8676,-0.8526,-0.8771,-0.8777,-0.8737,-0.8804,-0.8858,-0.8885,-0.8885,-0.8838,-0.8811,-0.8689,-0.8662,-0.8662,-0.8662,-0.8716,-0.875,-0.8716,-0.8981,-0.9157,-0.9008,-0.9083,-0.92,-0.9166,-0.8906,-0.8737,-0.8669,-0.8662,-0.8648,-0.8615,-0.8587,-0.8513,-0.8397,-0.8384,-0.8384,-0.8384,-0.8418,-0.8418,-0.8384,-0.8418,-0.8438,-0.8438,-0.8438,-0.8418,-0.8384,-0.8384,-0.8384,-0.8384,-0.8384,-0.8323,-0.8221,-0.8221,-0.8153,-0.7988,-0.7988,-0.7988,-0.7988,-0.7988,-0.7988,-0.8002,-0.8174,-0.8147,-0.7988,-2.2928,-2.2928,-2.2928,-2.2928,-2.2928,-2.2928,-2.2928,-2.2928,-2.2806,-2.2645,-2.2512,-2.2245,-2.1804,-2.2017,-2.2191,-2.2244,-2.2058,-2.1303,-1.9733,-1.7574,-1.5536,-1.3592,-1.174,-1.0683,-1.0602,-1.0392,-1.0202,-0.9984,-0.9897,-0.9822,-0.9822,-0.9822,-0.9822,-0.9822,-0.9822,-0.9822,-0.9822,-0.9822,-0.9822,-0.9822,-0.9822,-0.9822,-0.9822,-0.9822,-0.9822,-0.9822,-0.9822,-0.9686,-0.9456,-0.915,-0.8947,-0.8832,-0.8858,-0.8825,-0.873,-0.8838,-0.8824,-0.8838,-0.8865,-0.8885,-0.8885,-0.8885,-0.8885,-0.8865,-0.8838,-0.8818,-0.8818,-0.8818,-0.8872,-0.8899,-0.8832,-0.9123,-0.93,-0.9076,-0.9225,-0.932,-0.9228,-0.9077,-0.892,-0.892,-0.8798,-0.8682,-0.8608,-0.8601,-0.8567,-0.8486,-0.8479,-0.8479,-0.8479,-0.8554,-0.856,-0.8486,-0.8554,-0.8587,-0.8587,-0.8587,-0.8628,-0.8696,-0.8554,-0.8479,-0.8479,-0.8479,-0.8404,-0.832,-0.832,-0.818,-0.7988,-0.7988,-0.7988,-0.7988,-0.7988,-0.8085,-0.8153,-0.816,-0.8106,-0.8002,-2.2941,-2.2928,-2.2928,-2.2928,-2.2928,-2.2928,-2.2928,-2.2928,-2.2928,-2.2928,-2.2645,-2.2365,-2.2017,-2.2151,-2.2432,-2.2832,-2.2365,-2.0726,-1.766,-1.6799,-1.4967,-1.1482,-1.0932,-1.0717,-1.0717,-1.0432,-1.0215,-1.0024,-0.991,-0.9822,-0.9822,-0.9822,-0.9822,-0.9822,-0.9822,-0.9822,-0.9822,-0.9822,-0.9822,-0.9822,-0.9822,-0.9822,-0.9822,-0.9822,-0.9822,-0.9822,-0.9822,-0.9632,-0.9334,-0.9042,-0.8885,-0.8885,-0.8885,-0.8885,-0.8885,-0.8885,-0.8885,-0.8885,-0.8885,-0.8885,-0.8885,-0.8885,-0.8885,-0.8885,-0.8885,-0.8885,-0.8885,-0.8885,-0.9035,-0.9083,-0.8905,-0.9266,-0.9449,-0.9248,-0.9367,-0.9442,-0.9248,-0.9187,-0.9173,-0.9173,-0.892,-0.8737,-0.8608,-0.8594,-0.8587,-0.856,-0.856,-0.856,-0.856,-0.8682,-0.8689,-0.8567,-0.8682,-0.875,-0.875,-0.875,-0.8811,-0.8878,-0.8682,-0.856,-0.856,-0.856,-0.8479,-0.8343,-0.8343,-0.8241,-0.8029,-0.8029,-0.8015,-0.7988,-0.7988,-0.8119,-0.8221,-0.8113,-0.8029,-0.8099,-2.2913,-2.2928,-2.2928,-2.2928,-2.2928,-2.2928,-2.2928,-2.2928,-2.2928,-2.2928,-2.2832,-2.2592,-2.2044,-2.1804,-2.2057,-2.2861,-2.2552,-2.1478,-1.9391,-1.7687,-1.5644,-1.3285,-1.1592,-1.0717,-1.0717,-1.0432,-1.027,-1.0249,-0.9964,-0.9822,-0.9822,-0.9822,-0.9822,-0.9822,-0.9822,-0.9822,-0.9822,-0.9822,-0.9822,-0.9822,-0.9822,-0.9822,-0.9822,-0.9822,-0.9822,-0.9822,-0.9822,-0.9632,-0.9334,-0.9042,-0.8885,-0.8885,-0.8885,-0.8885,-0.8885,-0.8885,-0.8885,-0.8885,-0.8885,-0.8885,-0.8885,-0.8885,-0.8885,-0.8885,-0.8885,-0.8885,-0.8885,-0.8885,-0.8898,-0.8905,-0.8885,-0.9089,-0.9255,-0.9214,-0.9248,-0.9255,-0.9214,-0.9049,-0.8967,-0.8967,-0.9042,-0.9139,-0.9118,-0.9118,-0.9008,-0.8886,-0.8824,-0.8824,-0.8824,-0.8844,-0.8844,-0.8824,-0.8844,-0.8851,-0.8851,-0.8851,-0.8865,-0.8885,-0.8844,-0.8824,-0.8824,-0.8824,-0.8798,-0.8648,-0.8648,-0.8492,-0.8241,-0.8241,-0.816,-0.7988,-0.7988,-0.8002,-0.8035,-0.8201,-0.8241,-0.8262,-2.2926,-2.2928,-2.2928,-2.2928,-2.2928,-2.2928,-2.2928,-2.2928,-2.2806,-2.2632,-2.2619,-2.2392,-2.1804,-2.1777,-2.2084,-2.2874,-2.1838,-2.0299,-1.8356,-1.6402,-1.4422,-1.2285,-1.1326,-1.0806,-1.0724,-1.0507,-1.0399,-1.0399,-1.0012,-0.9822,-0.9822,-0.9822,-0.9822,-0.9822,-0.9822,-0.9822,-0.9822,-0.9822,-0.9822,-0.9822,-0.9822,-0.9822,-0.9822,-0.9822,-0.9822,-0.9808,-0.9734,-0.9564,-0.9347,-0.913,-0.9008,-0.8885,-0.8885,-0.8885,-0.8885,-0.8885,-0.8885,-0.8885,-0.8885,-0.8885,-0.8885,-0.8885,-0.8885,-0.8885,-0.8885,-0.8885,-0.8885,-0.8885,-0.8885,-0.8885,-0.8885,-0.9055,-0.918,-0.9049,-0.9103,-0.918,-0.9042,-0.8981,-0.8885,-0.8885,-0.9062,-0.918,-0.9042,-0.9035,-0.9008,-0.8892,-0.8885,-0.8885,-0.8885,-0.8885,-0.8885,-0.8885,-0.8885,-0.8885,-0.8885,-0.8885,-0.8885,-0.8885,-0.8885,-0.8885,-0.8885,-0.8885,-0.8852,-0.871,-0.871,-0.8587,-0.8391,-0.8391,-0.8303,-0.8167,-0.8167,-0.8167,-0.8194,-0.8431,-0.8465,-0.8397]},{"header":{"parameterUnit":"m.s-1","parameterCategory":1,"la1":30.6,"la2":28.766,"lo1":-90.7593,"lo2":-88.6598,"dy":0.0162,"dx":0.0183,"nx":116,"ny":114,"refTime":"2023-05-12T06:00:00:Z","depth":0,"parameterNumber":3,"parameterNumberName":"V-component_of_WINDS"},"data":[0.0,0.0,0.0,0.0,0.0,0.0,0.0,0.0,0.0,0.0,0.0,0.0,0.0,0.0,0.0,0.0,0.0,0.0,0.0,0.0,0.0,0.0,0.0,0.0,0.0,0.0,0.0,0.0,0.0,0.0,0.0,0.0,0.0,0.0,0.0,0.0,0.0,0.0,0.0,0.0,0.0,0.0,0.0,0.0,0.0,0.0,0.0,0.0,0.0,0.0,0.0,0.0,0.0,0.0,0.0,0.0,0.0,0.0,0.0,0.0,0.0,0.0,0.0,0.0,0.0,0.0,0.0,0.0,0.0,0.0,0.0,0.0,0.0,0.0,0.0,0.0,0.0,0.0,0.0,0.0,0.0,0.0,0.0,0.0,0.0,0.0,0.0,0.0,0.0,0.0,0.0,0.0,0.0,0.0,0.0,0.0,0.0,0.0,0.0,0.0,0.0,0.0,0.0,0.0,0.0,0.0,0.0,0.0,0.0,0.0,0.0,0.0,0.0,0.0,0.0,0.0,0.0,0.0,0.0,0.0,0.0,0.0,0.0,0.0,0.0,0.0,0.0,0.0,0.0,0.0,0.0,0.0,0.0,0.0,0.0,0.0,0.0,0.0,0.0,0.0,0.0,0.0,0.0,0.0,0.0,0.0,0.0,0.0,0.0,0.0,0.0,0.0,0.0,0.0,0.0,0.0,0.0,0.0,0.0,0.0,0.0,0.0,0.0,0.0,0.0,0.0,0.0,0.0,0.0,0.0,0.0,0.0,0.0,0.0,0.0,0.0,0.0,0.0,0.0,0.0,0.0,0.0,0.0,0.0,0.0,0.0,0.0,0.0,0.0,0.0,0.0,0.0,0.0,0.0,0.0,0.0,0.0,0.0,0.0,0.0,0.0,0.0,0.0,0.0,0.0,0.0,0.0,0.0,0.0,0.0,0.0,0.0,0.0,0.0,0.0,0.0,0.0,0.0,0.0,0.0,0.0,0.0,0.0,0.0,0.0,0.0,0.0,0.0,0.0,0.0,0.0,0.0,0.0,0.0,0.0,0.0,0.0,0.0,0.0,0.0,0.0,0.0,0.0,0.0,0.0,0.0,0.0,0.0,0.0,0.0,0.0,0.0,0.0,0.0,0.0,0.0,0.0,0.0,0.0,0.0,0.0,0.0,0.0,0.0,0.0,0.0,0.0,0.0,0.0,0.0,0.0,0.0,0.0,0.0,0.0,0.0,0.0,0.0,0.0,0.0,0.0,0.0,0.0,0.0,0.0,0.0,0.0,0.0,0.0,0.0,0.0,0.0,0.0,0.0,0.0,0.0,0.0,0.0,0.0,0.0,0.0,0.0,0.0,0.0,0.0,0.0,0.0,0.0,0.0,0.0,0.0,0.0,0.0,0.0,0.0,0.0,0.0,0.0,0.0,0.0,0.0,0.0,0.0,0.0,0.0,0.0,0.0,0.0,0.0,0.0,0.0,0.0,0.0,0.0,0.0,0.0,0.0,0.0,0.0,0.0,0.0,0.0,0.0,0.0,0.0,0.0,0.0,0.0,0.0,0.0,0.0,0.0,0.0,0.0,0.0,0.0,0.0,0.0,0.0,0.0,0.0,0.0,0.0,0.0,0.0,0.0,0.0,0.0,0.0,0.0,0.0,0.0,0.0,0.0,0.0,0.0,0.0,0.0,0.0,0.0,0.0,0.0,0.0,0.0,0.0,0.0,0.0,0.0,0.0,0.0,0.0,0.0,0.0,0.0,0.0,0.0,0.0,0.0,0.0,0.0,0.0,0.0,0.0,0.0,0.0,0.0,0.0,0.0,0.0,0.0,0.0,0.0,0.0,0.0,0.0,0.0,0.0,0.0,0.0,0.0,0.0,0.0,0.0,0.0,0.0,0.0,0.0,0.0,0.0,0.0,0.0,0.0,0.0,0.0,0.0,0.0,0.0,0.0,0.0,0.0,0.0,0.0,0.0,0.0,0.0,0.0,0.0,0.0,0.0,0.0,0.0,0.0,0.0,0.0,0.0,0.0,0.0,0.0,0.0,0.0,0.0,0.0,0.0,0.0,0.0,0.0,0.0,0.0,0.0,0.0,0.0,0.0,0.0,0.0,0.0,0.0,0.0,0.0,0.0,0.0,0.0,0.0,0.0,0.0,0.0,0.0,0.0,0.0,0.0,0.0,0.0,0.0,0.0,0.0,0.0,0.0,0.0,0.0,0.0,0.0,0.0,0.0,0.0,0.0,0.0,0.0,0.0,0.0,0.0,0.0,0.0,0.0,0.0,0.0,0.0,0.0,0.0,0.0,0.0,0.0,0.0,0.0,0.0,0.0,0.0,0.0,0.0,0.0,0.0,0.0,0.0,0.0,0.0,0.0,0.0,0.0,0.0,0.0,0.0,0.0,0.0,0.0,0.0,0.0,0.0,0.0,0.0,0.0,0.0,0.0,0.0,0.0,0.0,0.0,0.0,0.0,0.0,0.0,0.0,0.0,0.0,0.0,0.0,0.0,0.0,0.0,0.0,0.0,0.0,0.0,0.0,0.0,0.0,0.0,0.0,0.0,0.0,0.0,0.0,0.0,0.0,0.0,0.0,0.0,0.0,0.0,0.0,0.0,0.0,0.0,0.0,0.0,0.0,0.0,0.0,0.0,0.0,0.0,0.0,0.0,0.0,0.0,0.0,0.0,0.0,0.0,0.0,0.0,0.0,0.0,0.0,0.0,0.0,0.0,0.0,0.0,0.0,0.0,0.0,0.0,0.0,0.0,0.0,0.0,0.0,0.0,0.0,0.0,0.0,0.0,0.0,0.0,0.0,0.0,0.0,0.0,0.0,0.0,0.0,0.0,0.0,0.0,0.0,0.0,0.0,0.0,0.0,0.0,0.0,0.0,0.0,0.0,0.0,0.0,0.0,0.0,0.0,0.0,0.0,0.0,0.0,0.0,0.0,0.0,0.0,0.0,0.0,0.0,0.0,0.0,0.0,0.0,0.0,0.0,0.0,0.0,0.0,0.0,0.0,0.0,0.0,0.0,0.0,0.0,0.0,0.0,0.0,0.0,0.0,0.0,0.0,0.0,0.0,0.0,0.0,0.0,0.0,0.0,0.0,0.0,0.0,0.0,0.0,0.0,0.0,0.0,0.0,0.0,0.0,0.0,0.0,0.0,0.0,0.0,0.0,0.0,0.0,0.0,0.0,0.0,0.0,0.0,0.0,0.0,0.0,0.0,0.0,0.0,0.0,0.0,0.0,0.0,0.0,0.0,0.0,0.0,0.0,0.0,0.0,0.0,0.0,0.0,0.0,0.0,0.0,0.0,0.0,0.0,0.0,0.0,0.0,0.0,0.0,0.0,0.0,0.0,0.0,0.0,0.0,0.0,0.0,0.0,0.0,0.0,0.0,0.0,0.0,0.0,0.0,0.0,0.0,0.0,0.0,0.0,0.0,0.0,0.0,0.0,0.0,0.0,0.0,0.0,0.0,0.0,0.0,0.0,0.0,0.0,0.0,0.0,0.0,0.0,0.0,0.0,0.0,0.0,0.0,0.0,0.0,0.0,0.0,0.0,0.0,0.0,0.0,0.0,0.0,0.0,0.0,0.0,0.0,0.0,0.0,0.0,0.0,0.0,0.0,0.0,0.0,0.0,0.0,0.0,0.0,0.0,0.0,0.0,0.0,0.0,0.0,0.0,0.0,0.0,0.0,0.0,0.0,0.0,0.0,0.0,0.0,0.0,0.0,0.0,0.0,0.0,0.0,0.0,0.0,0.0,0.0,0.0,0.0,0.0,0.0,0.0,0.0,0.0,0.0,0.0,0.0,0.0,0.0,0.0,0.0,0.0,0.0,0.0,0.0,0.0,0.0,0.0,0.0,0.0,0.0,0.0,0.0,0.0,0.0,0.0,0.0,0.0,0.0,0.0,0.0,0.0,0.0,0.0,0.0,0.0,0.0,0.0,0.0,0.0,0.0,0.0,0.0,0.0,0.0,0.0,0.0,0.0,0.0,0.0,0.0,0.0,0.0,0.0,0.0,0.0,0.0,0.0,0.0,0.0,0.0,0.0,0.0,0.0,0.0,0.0,0.0,0.0,0.0,0.0,0.0,0.0,0.0,0.0,0.0,0.0,0.0,0.0,0.0,0.0,0.0,0.0,0.0,0.0,0.0,0.0,0.0,0.0,0.0,0.0,0.0,0.0,0.0,0.0,0.0,0.0,0.0,0.0,0.0,0.0,0.0,0.0,0.0,0.0,0.0,0.0,0.0,0.0,0.0,0.0,0.0,0.0,0.0,0.0,0.0,0.0,0.0,0.0,0.0,0.0,0.0,0.0,0.0,0.0,0.0,0.0,0.0,0.0,0.0,0.0,0.0,0.0,0.0,0.0,0.0,0.0,0.0,0.0,0.0,0.0,0.0,0.0,0.0,0.0,0.0,0.0,0.0,0.0,0.0,0.0,0.0,0.0,0.0,0.0,0.0,0.0,0.0,0.0,0.0,0.0,0.0,0.0,0.0,0.0,0.0,0.0,0.0,0.0,0.0,0.0,0.0,0.0,0.0,0.0,0.0,0.0,0.0,0.0,0.0,0.0,0.0,0.0,0.0,0.0,0.0,0.0,0.0,0.0,0.0,0.0,0.0,0.0,0.0,0.0,0.0,0.0,0.0,0.0,0.0,0.0,0.0,0.0,0.0,0.0,0.0,0.0,0.0,0.0,0.0,0.0,0.0,0.0,0.0,0.0,0.0,0.0,0.0,0.0,0.0,0.0,0.0,0.0,0.0,0.0,0.0,0.0,0.0,0.0,0.0,0.0,0.0,0.0,0.0,0.0,0.0,0.0,0.0,0.0,0.0,0.0,0.0,0.0,0.0,0.0,0.0,0.0,0.0,0.0,0.0,0.0,0.0,0.0,0.0,0.0,0.0,0.0,0.0,0.0,0.0,0.0,0.0,0.0,0.0,0.0,0.0,0.0,0.0,0.0,0.0,0.0,0.0,0.0,0.0,0.0,0.0,0.0,0.0,0.0,0.0,0.0,0.0,0.0,0.0,0.0,0.0,0.0,0.0,0.0,0.0,0.0,0.0,0.0,0.0,0.0,0.0,0.0,0.0,0.0,0.0,0.0,0.0,0.0,0.0,0.0,0.0,0.0,0.0,0.0,0.0,0.0,0.0,0.0,0.0,0.0,0.0,0.0,0.0,0.0,0.0,0.0,0.0,0.0,0.0,0.0,0.0,0.0,0.0,0.0,0.0,0.0,0.0,0.0,0.0,0.0,0.0,0.0,0.0,0.0,0.0,0.0,0.0,0.0,0.0,0.0,0.0,0.0,0.0,0.0,0.0,0.0,0.0,0.0,0.0,0.0,0.0,0.0,0.0,0.0,0.0,0.0,0.0,0.0,0.0,0.0,0.0,0.0,0.0,0.0,0.0,0.0,0.0,0.0,0.0,0.0,0.0,0.0,0.0,0.0,0.0,0.0,0.0,0.0,0.0,0.0,0.0,0.0,0.0,0.0,0.0,0.0,0.0,0.0,0.0,0.0,0.0,0.0,0.0,0.0,0.0,0.0,0.0,0.0,0.0,0.0,0.0,0.0,0.0,0.0,0.0,0.0,0.0,0.0,0.0,0.0,0.0,0.0,0.0,0.0,0.0,0.0,0.0,0.0,0.0,0.0,0.0,0.0,0.0,0.0,0.0,0.0,0.0,0.0,0.0,0.0,0.0,0.0,0.0,0.0,0.0,0.0,0.0,0.0,0.0,0.0,0.0,0.0,0.0,0.0,0.0,0.0,0.0,0.0,0.0,0.0,0.0,0.0,0.0,0.0,0.0,0.0,0.0,0.0,0.0,0.0,0.0,0.0,0.0,0.0,0.0,0.0,0.0,0.0,0.0,0.0,0.0,0.0,0.0,0.0,0.0,0.0,0.0,0.0,0.0,0.0,0.0,0.0,0.0,0.0,0.0,0.0,0.0,0.0,0.0,0.0,0.0,0.0,0.0,0.0,0.0,0.0,0.0,0.0,0.0,0.0,0.0,0.0,0.0,0.0,0.0,0.0,0.0,0.0,0.0,0.0,0.0,0.0,0.0,0.0,0.0,0.0,0.0,0.0,0.0,0.0,0.0,0.0,0.0,0.0,0.8898,0.8599,0.0,0.0,0.0,0.0,0.0,0.0,0.0,0.0,0.0,0.0,0.0,0.0,0.0,0.0,0.0,0.0,0.0,0.0,0.0,0.0,0.0,0.0,0.0,0.0,0.0,0.0,0.0,0.0,0.0,0.0,0.0,0.0,0.0,0.0,0.0,0.0,0.0,2.0002,2.0805,2.1732,2.2781,2.2367,2.1543,2.0478,0.0,0.0,0.0,0.0,0.0,0.0,0.0,0.0,0.0,0.0,0.0,0.0,0.0,0.0,0.0,0.0,0.0,0.0,0.0,0.0,0.0,0.0,0.0,0.0,0.0,0.0,0.0,0.0,0.0,0.0,0.0,0.0,0.0,0.0,0.0,0.0,0.0,0.0,0.0,0.0,0.0,0.0,0.0,0.0,0.0,0.0,0.0,0.0,0.0,0.0,0.0,0.0,0.0,0.0,0.0,0.0,0.0,0.0,0.0,0.0,0.0,0.0,0.0,0.0,0.0,0.0,0.0,0.0,0.0,0.0,0.9432,0.887,0.0,0.0,0.0,0.0,0.0,0.0,0.0,0.0,0.0,0.0,0.0,0.0,0.0,0.0,0.0,0.0,0.0,0.0,0.0,0.0,0.0,0.0,0.0,2.0703,2.1495,2.2245,2.2313,2.2313,0.0,0.0,0.0,0.0,0.0,0.0,2.0407,2.0407,2.0407,2.0407,2.1448,2.3018,2.5083,2.5218,2.4245,2.2378,2.173,0.0,0.0,0.0,0.0,0.0,0.0,0.0,0.0,0.0,0.0,0.0,0.0,0.0,0.0,0.0,0.0,0.0,0.0,0.0,0.0,0.0,0.0,0.0,0.0,0.0,0.0,0.0,0.0,0.0,0.0,0.0,0.0,0.0,0.0,0.0,0.0,0.0,0.0,0.0,0.0,0.0,0.0,0.0,0.0,0.0,0.0,0.0,0.0,0.0,0.0,0.0,0.0,0.0,0.0,0.0,0.0,0.0,0.0,0.0,0.0,0.0,0.0,0.0,1.2042,1.2145,1.2669,1.2191,1.2023,1.2,1.0714,0.985,0.9306,0.8866,0.0,0.0,0.0,0.0,0.0,0.0,0.0,0.0,0.0,0.0,0.0,0.0,0.0,0.0,0.0,0.0,0.0,0.0,0.0,0.0,0.0,2.0703,2.1495,2.2245,2.2313,2.2313,2.2313,0.0,0.0,0.0,0.0,0.0,2.2009,2.2009,2.2009,2.2009,2.4052,2.5829,2.7384,2.8096,2.8245,2.7801,2.4554,2.415,2.5748,0.0,0.0,0.0,0.0,0.0,0.0,0.0,0.0,0.0,0.0,0.0,0.0,0.0,0.0,0.0,0.0,0.0,0.0,0.0,0.0,0.0,0.0,0.0,0.0,0.0,0.0,0.0,0.0,0.0,0.0,0.0,0.0,0.0,0.0,0.0,0.0,0.0,0.0,0.0,0.0,0.0,1.4769,1.4728,0.0,0.0,0.0,0.0,0.0,0.0,0.0,0.0,0.0,0.0,0.0,0.0,0.0,1.2385,1.35,1.3727,1.4183,1.4863,1.5064,1.5221,1.528,1.5235,1.4891,1.4367,1.4162,0.0,1.0236,0.9017,0.0,0.0,0.0,0.0,0.0,0.0,0.0,0.0,0.0,0.0,0.0,0.0,0.0,0.0,0.0,0.0,0.0,0.0,0.0,0.0,0.0,2.1109,2.2124,2.2868,2.3665,2.3801,2.297,2.3308,0.0,0.0,0.0,2.2313,2.2313,2.2699,2.3733,2.539,2.7215,2.9093,3.0934,3.1326,3.1698,3.1935,2.9059,2.7131,2.5964,2.4473,0.0,0.0,0.0,0.0,0.0,0.0,0.0,0.0,0.0,0.0,0.0,0.0,0.0,0.0,0.0,0.0,0.0,0.0,0.0,0.0,0.0,0.0,0.0,0.0,0.0,0.0,0.0,0.0,0.0,0.0,0.0,0.0,0.0,0.0,0.0,0.0,0.0,0.0,0.0,1.574,1.5875,1.4423,1.527,1.5522,0.0,0.0,0.0,0.0,0.0,0.0,0.0,0.0,0.0,1.409,1.4426,1.4877,1.5431,1.5933,1.6556,1.7193,1.7368,1.7416,1.7416,1.7416,1.7056,1.6413,1.6024,1.5161,1.379,1.1234,1.0011,0.9646,0.0,0.0,0.0,0.0,0.9213,0.898,0.0,0.0,0.0,0.0,0.0,0.0,0.0,0.0,0.0,0.0,0.0,0.0,2.0758,2.2212,2.353,2.4458,2.5169,2.5135,2.4019,2.3966,2.3444,2.2347,2.2313,2.2313,2.2313,2.3579,2.571,2.8669,3.0412,3.2273,3.4269,3.4472,3.4844,3.5284,3.366,3.1055,2.7807,2.6454,2.5169,2.3917,0.0,0.0,0.0,0.0,0.0,0.0,0.0,0.0,0.0,0.0,0.0,0.0,0.0,0.0,0.0,0.0,0.0,0.0,0.0,0.0,0.0,0.0,0.0,0.0,0.0,0.0,0.0,0.0,0.0,0.0,0.0,0.0,0.0,0.0,0.0,0.0,0.0,1.6562,1.6802,1.4363,1.592,1.6308,0.0,0.0,0.0,0.0,0.0,0.0,1.4769,1.5261,1.5859,1.6503,1.6981,1.7384,1.7712,1.822,1.8805,1.948,1.948,1.939,1.9241,1.939,1.8894,1.7938,1.7593,1.7264,1.6711,1.3422,1.1831,1.1379,1.0388,1.0045,1.0178,1.0661,1.0469,1.008,0.0,0.0,0.0,0.0,0.0,0.0,0.0,0.0,0.0,0.0,0.0,2.0792,2.3004,2.456,2.5998,2.7452,2.637,2.5575,2.5491,2.3564,2.2381,2.2313,2.2313,2.2313,2.2313,2.5067,2.801,3.1021,3.322,3.5103,3.666,3.7347,3.7686,3.7719,3.7618,3.6265,3.3728,2.8755,2.7419,2.8367,2.4763,0.0,0.0,0.0,0.0,0.0,0.0,0.0,0.0,0.0,0.0,0.0,0.0,0.0,0.0,0.0,0.0,0.0,0.0,0.0,0.0,0.0,0.0,0.0,0.0,0.0,0.0,0.0,0.0,0.0,0.0,0.0,0.0,0.0,0.0,0.0,0.0,0.0,0.0,1.4962,1.7026,0.0,0.0,0.0,0.0,1.5649,1.6174,1.6786,1.7473,1.7549,1.7848,1.8523,1.8583,1.9193,2.0479,2.0539,2.0887,2.1545,2.1545,2.1216,2.0628,2.1246,2.0498,1.8702,1.9271,1.8822,1.7443,1.4785,1.384,1.3978,1.2665,1.2332,1.2674,1.3007,1.2722,1.2098,0.0,0.0,0.0,0.0,0.0,0.0,0.0,0.0,1.8065,1.8809,2.042,2.2144,2.3932,2.6725,2.8703,2.921,2.9228,2.8586,2.7114,2.539,2.4222,2.3748,2.3729,2.4831,2.7266,2.8822,3.1312,3.4798,3.6062,3.7449,3.8928,3.9199,3.9334,3.93,3.8802,3.8159,3.711,3.2814,2.9939,2.8044,2.5744,2.4357,0.0,0.0,0.0,0.0,0.0,0.0,0.0,0.0,0.0,0.0,0.0,0.0,0.0,0.0,0.0,0.0,0.0,0.0,0.0,0.0,0.0,0.0,0.0,0.0,0.0,0.0,0.0,0.0,0.0,0.0,0.0,0.0,0.0,0.0,0.0,0.0,0.0,1.8732,2.0528,0.0,1.7864,1.803,1.83,1.83,1.8912,1.9582,2.0258,2.0677,2.1216,2.1844,2.1844,2.2084,2.2562,2.2562,2.2682,2.2921,2.2921,2.2592,2.1984,2.1784,2.1066,1.9989,1.9779,1.9438,1.8882,1.7535,1.6278,1.518,1.4277,1.3725,1.3458,1.3574,1.3452,1.3257,0.0,0.0,0.0,0.0,0.0,0.0,0.0,0.0,1.8155,1.9147,2.1028,2.3241,2.576,2.889,3.1157,3.1881,3.1495,3.0446,2.8703,2.6235,2.4729,2.4508,2.4982,2.686,3.0412,3.1935,3.4269,3.754,3.8768,3.9749,4.046,4.046,4.035,4.0079,3.9605,3.9208,3.8836,3.6332,3.3119,2.9548,2.779,2.6826,2.6132,0.0,0.0,0.0,0.0,0.0,0.0,0.0,0.0,0.0,0.0,0.0,0.0,0.0,0.0,0.0,0.0,0.0,0.0,0.0,0.0,0.0,0.0,0.0,0.0,0.0,0.0,0.0,0.0,0.0,0.0,0.0,0.0,0.0,0.0,2.1276,2.2353,2.1485,2.3101,2.334,2.0936,2.0696,2.0906,2.1306,2.1764,2.2303,2.2981,2.343,2.3849,2.4268,2.4268,2.4178,2.3939,2.3939,2.3819,2.361,2.361,2.3281,2.2673,2.2443,2.1874,2.0987,2.0557,2.0247,1.9989,1.9301,1.8134,1.6713,1.6039,1.5367,1.4815,1.5038,1.5127,1.5038,0.0,0.0,0.0,0.0,0.0,0.0,1.7783,1.7783,1.8324,1.9799,2.1366,2.4052,2.8502,3.1007,3.3241,3.5363,3.2916,3.0886,3.0142,2.5879,2.3763,2.4541,2.6065,2.8281,3.1326,3.4213,3.684,3.9106,4.1238,4.1914,4.1238,4.1238,4.0832,4.018,4.018,3.9774,3.9106,3.9073,3.6975,3.3457,3.1157,3.0209,2.9818,0.0,0.0,0.0,0.0,0.0,0.0,0.0,0.0,0.0,0.0,0.0,0.0,0.0,0.0,0.0,0.0,0.0,0.0,0.0,0.0,0.0,0.0,0.0,0.0,0.0,0.0,0.0,0.0,0.0,0.0,0.0,0.0,0.0,2.0982,2.3122,2.4268,2.3062,2.462,2.5039,2.3092,2.2912,2.34,2.4634,2.4724,2.4993,2.5644,2.5674,2.5674,2.5674,2.5644,2.5322,2.4664,2.4634,2.4306,2.367,2.364,2.331,2.2793,2.331,2.2892,2.1724,2.1695,2.1335,2.0688,2.0019,1.9361,1.8702,1.7997,1.7324,1.6801,1.7443,1.7699,1.7519,0.0,0.0,0.0,0.0,0.0,0.0,1.7783,1.7783,1.8324,1.9799,2.226,2.5218,2.8637,3.1921,3.4134,3.4742,3.3085,3.1244,2.9416,2.5591,2.4203,2.6031,2.9077,3.2408,3.5994,3.7381,3.914,4.1373,4.1982,4.2185,4.1982,4.1982,4.188,4.1704,4.1704,4.1576,4.1339,4.0832,3.9986,3.8734,3.4844,3.2645,3.1481,0.0,0.0,0.0,0.0,0.0,0.0,0.0,0.0,0.0,0.0,0.0,0.0,0.0,0.0,0.0,0.0,0.0,0.0,0.0,0.0,0.0,0.0,0.0,0.0,0.0,0.0,0.0,0.0,0.0,0.0,0.0,2.4784,2.5886,2.5722,2.6733,2.7537,2.7665,2.9037,2.9353,2.7845,2.7705,2.7675,2.753,2.75,2.738,2.7076,2.7046,2.7046,2.7046,2.6572,2.6243,2.6063,2.5585,2.5232,2.5046,2.4545,2.4246,2.4036,2.3281,2.2763,2.2403,2.1904,2.1605,2.1425,2.1216,2.0767,2.003,1.8864,1.8027,1.7443,1.7623,1.7699,1.7652,0.0,0.0,0.0,0.0,0.0,0.0,1.7783,1.7783,1.8324,1.9799,2.2632,2.5659,2.8671,3.1752,3.358,3.358,3.1955,3.0093,2.8163,2.6285,2.6387,2.8942,3.2002,3.5284,3.8734,3.9851,4.117,4.276,4.3098,4.3098,4.276,4.276,4.2591,4.2286,4.2286,4.2286,4.2252,4.1847,4.1644,4.1441,3.8802,3.7077,3.5723,3.2983,3.1799,3.1258,2.8958,2.8416,2.8534,2.7012,0.0,0.0,0.0,0.0,0.0,0.0,0.0,0.0,0.0,0.0,0.0,0.0,0.0,0.0,0.0,0.0,0.0,0.0,0.0,0.0,0.0,0.0,0.0,0.0,2.8562,3.0098,3.1317,3.0802,3.0571,3.1248,3.1716,3.1799,3.1293,3.0476,2.9924,2.9806,2.9325,2.8753,2.8064,2.8034,2.7884,2.7615,2.7225,2.6896,2.6602,2.6213,2.5884,2.5585,2.4933,2.4605,2.4575,2.355,2.3092,2.3062,2.2403,2.2134,2.2104,2.1814,2.1485,0.0,0.0,0.0,0.0,0.0,1.8356,1.8117,0.0,0.0,0.0,0.0,0.0,0.0,1.7783,1.7783,1.829,1.971,2.2361,2.5218,2.8062,3.0262,3.1616,3.1785,2.9924,2.8163,2.6793,2.7638,2.9465,3.2293,3.4709,3.7347,4.0282,4.1711,4.2794,4.3511,4.4248,4.4215,4.3511,4.3511,4.32,4.2557,4.2557,4.2557,4.2557,4.2557,4.2557,4.2523,4.2455,4.1914,4.0764,3.6671,3.5926,3.6491,3.2239,3.0852,3.0731,2.9108,0.0,0.0,0.0,0.0,0.0,0.0,0.0,0.0,0.0,0.0,0.0,0.0,0.0,0.0,0.0,0.0,0.0,0.0,0.0,0.0,0.0,0.0,0.0,0.0,3.2597,3.3938,3.6679,3.4941,3.354,3.3899,3.337,3.3203,3.3712,3.2076,3.1172,3.1595,3.0428,2.9355,2.8637,2.8517,0.0,0.0,0.0,2.7315,2.6716,2.6692,2.6393,2.5824,2.5143,2.4844,2.4814,2.4148,2.3819,2.3789,2.3272,2.2972,2.2882,2.2263,2.1934,2.1754,2.1047,2.0438,1.9917,1.9857,1.942,1.8942,0.0,0.0,0.0,0.0,0.0,0.0,1.7783,1.7783,1.8121,1.9012,2.0716,2.251,2.4289,2.5913,2.7368,2.8568,2.774,2.7013,2.6725,2.9093,3.1326,3.3119,3.6502,3.9445,4.1813,4.2726,4.3572,4.4378,4.4513,4.4513,4.4378,4.4378,4.4282,4.4175,4.4175,4.4175,4.4175,4.4175,4.4175,4.4107,4.347,4.2388,4.1035,3.9555,3.8836,3.8227,3.5498,3.5329,3.6062,3.3931,3.2713,3.1935,3.1075,2.8213,0.0,0.0,0.0,0.0,0.0,0.0,0.0,0.0,0.0,0.0,0.0,0.0,0.0,0.0,0.0,0.0,0.0,0.0,0.0,3.3642,3.5565,3.7225,3.8394,3.8077,3.7118,3.5578,3.5705,3.5802,3.54,3.4463,3.3483,3.2523,3.1152,2.9834,2.8667,2.8094,2.7735,2.7585,2.7585,2.7525,2.7405,2.7405,2.7345,2.7195,2.6512,0.0,2.6183,2.5525,2.5226,2.5226,2.5106,2.4747,2.4216,2.4096,2.343,2.2433,2.1754,2.1425,2.1246,2.0707,2.0419,2.0299,0.0,0.0,0.0,0.0,0.0,0.0,1.7783,1.7783,1.8065,1.8809,2.0242,2.163,2.2733,2.3849,2.4661,2.5018,2.5067,2.5676,2.7165,3.0412,3.3626,3.6603,3.9242,4.1508,4.343,4.3809,4.4181,4.4615,4.4615,4.4615,4.4615,4.4615,4.4615,4.4615,4.4615,4.4615,4.4615,4.4615,4.4615,4.4615,4.4553,4.3673,4.2219,4.1474,4.1204,4.0899,3.8642,3.8362,3.8599,3.596,3.481,3.4235,3.2767,3.0533,2.8112,0.0,0.0,0.0,0.0,0.0,0.0,0.0,0.0,0.0,0.0,0.0,0.0,0.0,0.0,3.033,3.1055,0.0,3.402,3.5893,3.7483,3.87,3.9469,3.9538,3.8968,3.7588,3.7359,3.7183,3.6826,3.6166,3.5335,3.4293,3.2915,3.1494,3.0155,2.9147,2.8453,2.8124,2.7764,2.7585,2.7585,2.7585,2.7585,2.7585,2.6926,2.6602,2.6572,2.5914,2.5615,2.5615,2.5615,2.5412,2.5083,2.4754,2.4007,2.3122,2.2772,2.2263,2.1665,2.1335,2.1216,2.1156,0.0,0.0,0.0,0.0,0.0,0.0,0.0,1.7783,1.802,1.8606,1.9769,2.0784,2.1366,2.1955,2.2192,2.1874,2.3207,2.5236,2.806,3.1901,3.5926,4.0146,4.1711,4.3166,4.4581,4.4615,4.4615,4.4615,4.4615,4.4615,4.4615,4.4615,4.4615,4.4615,4.4615,4.4615,4.4615,4.4615,4.4615,4.4649,4.5229,4.4756,4.3572,4.2794,4.2692,4.2699,4.0603,3.9715,3.9097,3.6671,3.5633,3.5059,3.3309,3.2124,3.0886,2.8146,2.7469,0.0,0.0,0.0,0.0,0.0,0.0,0.0,0.0,3.004,3.0581,3.163,3.2408,3.3254,3.4303,3.5081,3.6197,3.8024,3.8836,3.9436,4.0011,4.0113,3.9842,3.9073,3.8539,3.8246,3.8223,3.7492,3.6759,3.6211,3.4627,3.3181,3.2092,3.0479,2.9354,2.8811,2.8021,2.7585,2.7585,2.7585,2.7585,2.7585,2.7046,2.6782,2.6776,2.6243,2.6004,2.5974,2.5854,2.5734,2.5555,2.4874,2.4186,2.361,2.361,2.2981,2.2054,2.1934,2.1874,2.1814,0.0,0.0,0.0,0.0,0.0,0.0,0.0,0.0,1.7817,1.7918,1.8053,1.8222,1.829,1.8391,1.8932,2.0137,2.3985,2.7334,2.9702,3.3964,3.7787,4.0933,4.2489,4.3707,4.4581,4.4615,4.4615,4.4615,4.4615,4.4615,4.4615,4.4615,4.4615,4.4615,4.4615,4.4615,4.4615,4.4615,4.4615,4.4615,4.4716,4.4615,4.4378,4.3572,4.2523,4.1238,3.9681,3.8261,3.7134,3.6795,3.578,3.4573,3.4336,3.3309,3.1853,3.0209,2.8349,2.6759,2.642,2.6488,2.7199,2.9228,2.9296,3.0262,0.0,3.5769,3.5464,3.7584,3.8589,3.8962,3.8464,3.8996,3.9571,3.9808,3.991,4.0011,4.0079,4.0113,3.9842,3.9073,3.9488,3.9842,3.9851,3.8539,3.7689,3.7762,3.5156,3.3578,3.347,3.0999,2.9571,2.9478,2.8268,2.7585,2.7585,2.7585,2.7585,2.7585,2.7525,2.7495,2.7495,2.7405,2.7375,2.7345,2.6776,2.6153,2.5555,2.4874,2.4186,2.361,2.361,2.352,2.331,2.2793,2.2583,2.2583,0.0,0.0,0.0,0.0,0.0,0.0,0.0,0.0,0.0,1.7783,1.7783,1.7783,1.7783,1.7783,1.8053,1.8662,2.2429,2.5913,2.8601,3.3389,3.7618,4.1068,4.2625,4.3775,4.4581,4.4615,4.4615,4.4615,4.4615,4.4615,4.4615,4.4615,4.4615,4.4615,4.4615,4.4615,4.4615,4.4615,4.4615,4.4682,4.5529,4.5094,4.3876,4.3538,4.1441,3.8599,3.843,3.7686,0.0,3.4764,3.4324,3.4438,3.3998,3.3119,3.2022,3.0548,2.9431,2.8789,2.9194,2.9653,3.0398,3.2205,3.3423,3.4945,3.7855,3.8362,3.8599,3.9986,4.0865,4.1271,4.0967,4.117,4.1399,4.1399,4.1399,4.123,4.0798,4.0358,3.9681,3.8497,3.8227,3.8352,3.8768,3.8228,3.7711,3.7325,3.5745,3.4651,3.4252,3.2399,3.117,3.0734,2.9775,2.9099,2.8646,2.8646,2.8487,2.81,2.81,2.7959,2.7585,2.7585,2.7585,2.7585,2.7315,2.6572,2.5585,2.5292,2.4567,2.361,2.361,2.361,2.358,2.331,2.3221,2.3182,0.0,0.0,0.0,0.0,0.0,0.0,0.0,0.0,0.0,0.0,1.7783,1.7783,1.7783,1.7783,1.7783,1.7783,2.0873,2.4052,2.7012,3.1712,3.6062,3.9817,4.161,4.2963,4.3938,4.4147,4.4378,4.4615,4.4615,4.4615,4.4615,4.4615,4.4615,4.4615,4.4615,4.4615,4.4615,4.4615,4.4615,4.4716,4.5737,4.4959,4.3031,4.2422,3.9681,3.622,3.6535,3.5656,3.3964,3.1799,3.163,3.2239,3.1732,3.1461,3.1176,3.0108,3.0074,3.048,3.0818,3.1887,3.3309,3.5013,3.7144,3.9106,4.0257,4.1128,4.1779,4.232,4.2692,4.2794,4.2354,4.2117,4.1982,4.1982,4.1982,4.1813,4.1271,4.0392,3.9242,3.7787,3.6761,3.6321,3.6637,3.7043,3.7212,3.711,3.6214,3.5518,3.521,3.3713,3.2628,3.2086,3.1235,3.0468,2.9717,2.9717,2.937,2.8772,2.8772,2.8535,2.8076,2.7934,2.776,2.7585,2.7585,2.6956,2.5854,2.5674,2.4926,2.3879,2.367,2.361,2.361,2.361,2.361,2.352,0.0,0.0,0.0,0.0,0.0,0.0,0.0,0.0,0.0,0.0,0.0,0.0,0.0,1.7783,1.7783,1.7783,1.9938,2.251,2.5457,2.9228,3.3017,3.6761,3.9029,4.0891,4.232,4.3064,4.3809,4.4615,4.4615,4.4615,4.4615,4.4615,4.4615,4.4615,4.4615,4.4615,4.4615,4.4615,4.4615,4.4615,4.4649,4.3735,4.2083,3.9952,3.7212,3.4472,3.3795,3.1171,2.806,2.7959,2.7503,2.6928,2.6894,2.7927,2.9077,2.9044,3.0059,3.1021,3.0311,3.2239,3.4979,3.7246,3.9478,4.1677,4.3938,4.4993,4.5534,4.5568,4.4993,4.4073,4.2557,4.1711,4.1238,4.1238,4.1238,4.1238,4.1204,3.9952,3.8464,3.6998,3.5509,3.4303,3.3592,3.4822,3.6276,3.7753,3.6479,3.5915,3.6705,3.4728,3.3575,3.3542,3.227,3.1197,3.0468,3.0468,3.0124,2.9361,2.9361,2.9361,2.9339,2.8748,2.8149,2.7585,2.7585,2.7225,2.6512,2.5884,2.5173,2.4515,2.3849,2.361,2.361,2.361,2.361,2.361,0.0,0.0,0.0,0.0,0.0,0.0,0.0,0.0,0.0,0.0,0.0,0.0,0.0,0.0,0.0,0.0,1.9406,2.1265,2.326,2.7368,3.0973,3.3715,3.6907,3.9106,4.0087,4.0832,4.1576,4.2354,4.2354,4.2591,4.3091,4.3572,4.3809,4.3842,4.435,4.4886,4.5297,4.4818,4.4857,4.5229,4.4215,4.32,4.1948,3.8759,3.5678,3.2699,0.0,2.8146,2.686,2.5372,2.5372,2.5981,2.5981,2.6319,2.7029,2.857,2.9702,3.0954,3.3132,3.5588,3.8024,4.0257,4.2523,4.4519,4.5771,4.5872,4.5432,4.4356,4.32,4.188,4.0392,3.9918,4.0054,4.1035,4.161,4.1914,4.1914,4.1068,3.9343,3.6366,3.5115,3.3998,3.2801,3.3558,3.4573,3.5554,3.5148,3.5419,3.6728,3.5609,3.4947,3.4947,3.4029,3.2918,3.172,3.1686,3.113,2.9978,2.9585,2.9406,2.9384,2.918,2.8764,2.8198,2.8198,2.7589,2.6572,2.6363,2.5615,2.4575,2.4365,2.3999,2.361,2.361,2.361,2.361,0.0,0.0,0.0,0.0,0.0,0.0,0.0,0.0,0.0,0.0,0.0,0.0,0.0,0.0,0.0,0.0,0.0,1.9866,2.1366,2.4458,2.7182,2.9416,3.2307,3.4506,3.5791,3.6535,3.7415,3.843,3.8937,3.958,4.0383,4.1373,4.1982,4.2226,4.276,4.3267,4.3673,4.3166,4.2963,4.2794,4.1542,4.0121,3.8386,3.5238,3.2293,0.0,2.6285,2.5135,2.4898,2.3477,2.3816,2.4864,2.5135,2.5947,2.7063,2.8213,3.004,3.2374,3.5566,3.8261,4.0764,4.3267,4.5196,4.6616,4.709,4.6413,4.5196,4.3403,4.1407,3.9648,3.843,3.755,3.7584,3.9343,3.9783,4.029,4.1339,4.0426,3.8937,3.7043,3.569,3.4404,3.3207,3.3491,3.3998,3.4438,3.5013,3.5746,3.6761,3.6299,3.6028,3.6028,3.5284,3.4303,3.3106,3.3106,3.2378,3.1021,3.0345,2.9935,2.9717,2.9717,2.9384,2.8842,2.8842,2.8239,2.7267,2.7024,2.6156,2.4933,2.4694,2.4186,2.361,2.361,2.361,2.361,0.0,0.0,0.0,0.0,0.0,0.0,0.0,0.0,0.0,0.0,0.0,0.0,0.0,0.0,0.0,0.0,0.0,0.0,1.9799,2.0703,2.2138,2.4237,2.5828,2.7672,2.9818,3.0581,3.1664,3.3119,3.4518,3.5622,3.6423,3.7889,3.8971,3.9656,3.9724,3.9758,3.9792,3.9749,3.8971,3.7652,3.6863,3.4798,3.1989,2.9754,2.7503,2.5322,2.3124,2.2347,2.2347,2.2347,2.2936,2.3748,2.4575,2.6809,2.901,2.8466,3.136,3.525,3.755,4.0324,4.3234,4.6109,4.7394,4.7872,4.7804,4.6583,4.4823,4.2489,3.9681,3.7381,3.6558,3.4709,3.4066,3.6321,3.6197,3.6874,3.9808,3.8454,3.7608,3.8836,3.711,3.543,3.4641,3.4573,3.4607,3.4607,3.5949,3.6795,3.6897,3.6897,3.6863,3.6863,3.6096,3.5318,3.4506,3.4438,3.3715,3.2293,3.1582,3.0932,3.0351,3.0351,3.0,2.9451,2.9451,2.9088,2.8497,2.7868,2.6842,2.5631,2.4949,2.4312,2.3683,2.361,2.3631,2.3653,0.0,0.0,0.0,0.0,0.0,0.0,0.0,0.0,0.0,0.0,0.0,0.0,0.0,0.0,0.0,0.0,0.0,0.0,1.8358,2.0128,2.1461,2.2003,2.4492,2.615,2.6708,2.7469,2.8315,2.9244,2.9616,3.0209,3.1007,3.2496,3.3288,3.3525,3.4641,3.5419,3.5893,3.5351,3.5216,3.5216,3.3355,3.2171,3.1157,2.8367,2.659,2.5372,2.3714,2.3105,2.3105,2.3105,2.468,2.7012,2.889,3.0025,3.1258,3.4404,3.6535,3.8464,4.1212,4.3809,4.5974,4.7293,4.7736,4.7601,4.6515,4.4248,4.1576,3.8792,3.5814,3.3173,3.1345,3.1853,3.3139,3.4832,3.7246,3.958,4.1474,4.1745,4.1035,3.9208,3.8497,3.7381,3.5498,3.5859,3.622,3.622,3.6028,3.6671,3.8328,3.7922,3.7618,3.7618,3.6874,3.5859,3.4506,3.3964,3.322,3.2293,3.2124,3.1638,3.0958,3.0958,3.0621,3.0064,3.0064,2.9717,2.9157,2.8989,2.8144,2.6965,2.6287,2.5588,2.4836,2.3911,2.3858,2.4122,0.0,0.0,0.0,0.0,0.0,0.0,0.0,0.0,0.0,0.0,0.0,0.0,0.0,0.0,0.0,0.0,0.0,0.0,0.0,1.9012,1.9722,1.9722,2.1278,2.2313,2.2665,2.3376,2.397,2.436,2.539,2.6116,2.6573,2.8044,2.8924,2.9262,3.0446,3.1171,3.1562,3.1495,3.1326,0.0,0.0,2.8349,2.7571,2.5541,2.4526,2.4037,2.3207,2.3951,2.5457,2.6488,2.8146,3.0108,3.2036,3.3322,3.4709,3.755,3.958,4.1508,4.4181,4.6312,4.7868,4.8274,4.7902,4.6684,4.3876,4.117,3.8227,3.4607,3.1968,2.9837,2.8299,2.9262,3.0818,3.2307,3.49,3.7642,4.046,4.1204,4.1339,4.0967,4.0663,3.9681,3.7753,3.798,3.8115,3.7811,3.7347,3.7652,3.8937,3.8599,3.8396,3.8396,3.7347,3.622,3.4979,3.4269,3.366,3.3275,3.2598,3.209,3.1684,3.1326,3.1032,3.0683,3.0683,3.0351,2.9783,2.9783,2.9024,2.787,2.7491,2.6713,2.5748,2.5404,2.503,2.4724,0.0,0.0,0.0,0.0,0.0,0.0,0.0,0.0,0.0,0.0,1.785,0.0,0.0,0.0,0.0,0.0,0.0,0.0,0.0,0.0,1.7783,1.7783,1.7783,1.8166,1.8877,1.9439,1.9799,2.0002,2.1786,2.2767,2.297,2.4255,2.527,2.5981,2.6742,2.708,2.7114,2.7807,2.7351,2.6048,2.5439,2.4391,2.3173,0.0,2.2313,2.2313,2.2516,2.4646,2.779,3.0683,3.2192,3.3207,3.4844,3.6738,3.8531,3.958,4.1779,4.435,4.6481,4.8173,4.9255,4.9052,4.7733,4.5331,4.0823,3.7879,3.4832,3.0548,2.8432,2.7148,2.6522,2.7148,2.8331,2.9973,3.163,3.4257,3.8531,3.9309,4.0392,4.2936,4.2692,4.1805,4.0519,4.0214,3.9876,3.9309,3.9174,3.914,3.914,3.914,3.9039,3.887,3.7405,3.6299,3.56,3.4979,3.4607,3.4472,3.3207,3.253,3.2429,3.1664,3.1326,3.1326,3.1224,3.0898,3.0414,3.0414,2.9725,2.864,2.8544,2.7771,2.6752,2.7214,2.6635,2.5593,0.0,0.0,0.0,0.0,0.0,0.0,0.0,0.0,0.0,0.0,1.8189,1.7783,0.0,0.0,0.0,0.0,0.0,0.0,0.0,0.0,0.0,1.7783,1.7783,1.8166,1.8877,1.8437,1.8797,2.0002,1.9169,1.9406,2.0589,2.0859,2.14,2.2206,2.2922,2.326,2.326,2.3395,2.3308,2.3057,2.2922,2.2719,2.2482,2.2347,0.0,0.0,2.3695,2.4541,2.5997,3.1955,3.4866,3.6491,3.9174,4.0324,4.1136,4.3775,4.5331,4.6549,4.8173,4.9695,5.0541,4.9323,4.6955,4.3836,3.9309,3.5115,3.1224,2.7943,2.6132,2.5015,2.4914,2.6488,2.85,3.0649,3.3288,3.6163,3.9469,4.0933,4.1914,4.2422,4.2388,4.2185,4.1914,4.0823,4.0316,4.0798,4.0257,3.991,3.991,3.991,3.9368,3.8125,3.6637,3.5735,3.56,3.5464,3.5115,3.4506,3.4235,3.3795,3.3186,3.2462,3.2124,3.209,3.1481,0.0,3.1052,3.1052,3.0616,2.992,2.9371,2.8976,2.86,2.7724,2.7522,2.7604,0.0,0.0,0.0,0.0,0.0,0.0,0.0,1.8369,1.864,1.9372,1.9169,1.8797,1.8403,1.802,1.7783,0.0,0.0,0.0,0.0,0.0,0.0,0.0,1.8166,1.8538,1.8877,1.935,1.9722,2.0002,0.0,1.971,2.0002,2.0002,2.0217,2.0602,2.138,2.1718,2.1752,2.2144,2.2313,2.2313,2.2313,2.2313,2.2313,2.2313,0.0,0.0,2.356,2.4677,2.6336,3.0717,3.3964,3.684,4.0595,4.232,4.3335,4.5162,4.6786,4.8274,4.9763,5.0676,5.0879,4.939,4.6177,4.2016,3.6772,3.2713,2.8976,2.5203,2.4154,2.3797,2.3424,2.5169,2.7148,2.8619,3.0717,3.3626,3.7811,3.9309,4.073,4.2658,4.3234,4.3166,4.2354,4.167,4.1094,4.0663,4.0316,4.0113,4.0113,3.974,3.9174,3.8497,3.7009,3.6231,3.6231,3.5825,3.543,3.5081,3.4675,3.4303,3.3931,3.2801,3.2293,3.2259,3.1515,3.119,3.119,3.119,3.1052,3.0744,3.0396,3.0028,2.9635,2.9457,2.9051,2.8586,0.0,0.0,0.0,0.0,0.0,0.0,1.8775,1.891,1.9215,2.0149,2.0116,1.9778,1.9215,1.8471,1.7952,0.0,0.0,0.0,0.0,0.0,0.0,0.0,0.0,0.0,1.891,0.0,0.0,2.0251,2.0703,0.0,0.0,0.0,0.0,0.0,2.1143,2.1427,2.1461,2.2057,2.2313,0.0,0.0,2.2313,2.2313,0.0,0.0,0.0,0.0,2.4425,2.6184,2.9127,3.1813,3.4687,3.9039,4.1982,4.4039,4.4756,4.6786,4.9052,5.0371,5.1082,5.098,4.9018,4.5263,4.0493,3.4539,3.0751,2.7351,2.3158,2.2767,2.3038,2.2632,2.3951,2.5541,2.6725,2.7943,3.0465,3.5374,3.6975,3.887,4.2083,4.3301,4.3504,4.2625,4.2117,4.15,4.0654,4.0282,4.0113,4.0113,3.9377,3.9005,3.9005,3.7743,3.6965,3.6795,3.6163,3.5769,3.56,3.5013,3.4742,3.4675,3.3376,3.2699,3.2496,3.1752,3.1326,3.119,3.119,3.119,3.119,3.119,3.0852,3.0412,3.0987,3.0446,2.9495,0.0,0.0,0.0,0.0,0.0,0.0,1.8775,1.891,1.943,2.0886,2.0454,1.9968,1.99,1.9249,1.8538,0.0,0.0,0.0,0.0,0.0,0.0,0.0,0.0,0.0,0.0,0.0,0.0,2.1089,2.042,0.0,0.0,0.0,0.0,0.0,0.0,2.2212,2.2212,2.2279,0.0,0.0,0.0,0.0,0.0,0.0,0.0,0.0,0.0,2.3105,2.3463,2.845,2.9379,2.9176,3.3017,3.7584,4.1644,4.2388,4.5162,4.8206,4.8984,5.0676,5.1352,4.7868,4.4113,3.9749,3.374,2.9567,2.6015,2.2936,2.2347,2.2584,2.3173,2.3477,2.4492,2.7249,2.7824,2.9277,3.3186,3.5554,3.754,3.9208,4.0663,4.1982,4.3172,4.1474,4.079,4.2016,4.0857,4.0113,4.0113,3.9377,3.9005,3.9005,3.8227,3.7483,3.6795,3.6728,3.6332,3.56,3.5532,3.5498,3.5464,3.4675,3.3931,3.3254,3.253,3.1819,0.0,3.119,3.119,3.119,3.119,3.1157,3.1089,3.119,3.1089,3.0987,0.0,0.0,0.0,0.0,0.0,0.0,1.8775,1.891,1.9464,2.0987,2.0919,2.0703,2.0703,2.0014,1.9101,1.7884,0.0,0.0,0.0,0.0,0.0,0.0,0.0,0.0,0.0,0.0,2.0399,2.2086,2.1194,0.0,0.0,0.0,0.0,0.0,0.0,2.2313,2.2313,2.2313,0.0,0.0,0.0,0.0,0.0,0.0,0.0,0.0,0.0,0.0,2.3274,2.5372,2.6556,2.7334,2.8383,3.1393,3.5216,3.8633,4.2286,4.564,4.7736,4.9627,5.0304,4.7496,4.3639,3.9073,3.3571,2.9397,2.5845,2.2922,2.2313,2.2381,2.2699,2.2733,2.341,2.5473,2.5067,2.6269,3.136,3.2476,3.4303,3.8497,3.9884,4.0933,4.1982,4.1271,4.0798,4.0993,4.0451,4.0113,4.0113,3.8971,3.8531,3.8971,3.7381,3.6603,3.6795,3.6332,3.5926,3.56,3.56,3.56,3.5566,3.4844,3.41,3.3355,3.2632,3.1887,0.0,3.119,3.119,3.119,3.119,3.119,3.119,3.119,3.119,3.119,0.0,0.0,0.0,0.0,0.0,1.8053,1.8775,1.891,1.935,2.067,2.0852,2.0852,2.0852,2.0149,1.927,1.8234,1.7918,0.0,0.0,0.0,0.0,0.0,0.0,0.0,0.0,0.0,2.0879,2.2185,2.1825,2.1928,0.0,0.0,2.2313,2.2293,0.0,0.0,0.0,0.0,0.0,0.0,0.0,0.0,0.0,0.0,0.0,0.0,0.0,0.0,0.0,0.0,0.0,2.5338,2.5033,2.642,2.9161,3.437,3.887,4.2625,4.4964,4.7158,4.8139,4.5495,4.1974,3.7743,3.251,2.8586,2.5354,2.2835,2.2313,2.2313,2.2313,2.2482,2.297,2.4,2.3477,2.456,2.9228,3.0176,3.207,3.6468,3.8058,3.9242,4.0426,4.0933,4.0899,4.018,3.991,3.9774,3.9774,3.8362,3.8024,3.8971,3.7246,3.6468,3.6795,3.6231,3.5836,3.56,3.56,3.56,3.5566,3.5081,3.4438,3.3694,3.3173,3.2429,0.0,3.1549,3.1393,3.119,3.119,3.119,3.119,3.119,3.119,3.119,0.0,0.0,0.0,0.0,0.0,0.0,1.8775,1.891,1.9181,1.99,2.0002,2.0002,2.0002,1.9338,1.8922,1.8888,1.8234,0.0,0.0,0.0,0.0,0.0,0.0,0.0,0.0,0.0,2.0898,2.0934,2.2092,2.2695,2.2682,2.2426,2.2313,2.2293,0.0,0.0,0.0,0.0,0.0,0.0,0.0,0.0,0.0,0.0,0.0,0.0,0.0,0.0,0.0,0.0,0.0,0.0,0.0,2.3444,2.4492,2.9736,3.4945,3.9208,3.9961,4.2902,4.4857,4.1094,3.8488,3.5475,3.0228,2.6674,2.4101,2.2632,2.2313,2.2313,2.2313,2.2902,2.3376,2.341,2.4,2.5015,2.6522,2.9296,3.1481,3.2293,3.4303,3.6535,3.8802,4.0324,4.0899,4.018,3.9436,3.9005,3.9005,3.7608,3.7472,3.8937,3.8261,3.7516,3.6795,3.6795,3.6366,3.56,3.56,3.56,3.56,3.56,3.5216,3.4472,3.4472,3.3647,0.0,3.2293,3.1853,3.119,3.119,3.119,3.119,3.119,3.119,3.119,0.0,0.0,0.0,0.0,0.0,0.0,1.8121,1.8166,1.8403,1.9147,1.9249,1.9439,1.9934,1.9496,1.9178,1.9178,1.8491,0.0,0.0,0.0,0.0,0.0,0.0,0.0,0.0,2.018,2.1342,2.2801,2.2999,2.3375,2.3867,2.3601,2.3284,2.2908,2.2759,2.2835,0.0,0.0,0.0,0.0,0.0,0.0,2.256,0.0,0.0,0.0,0.0,0.0,0.0,0.0,0.0,0.0,0.0,0.0,0.0,2.4628,2.8822,3.3423,3.5656,3.7516,3.8294,3.6062,3.4235,3.1867,2.7638,2.5557,2.4068,2.2584,2.2313,2.2313,2.2313,2.2496,2.3139,2.4661,2.4677,2.5557,2.8619,2.9837,3.1461,3.4235,3.6975,3.8937,3.9673,4.018,4.035,4.0113,3.9436,3.9005,3.9005,3.7608,3.7032,3.7472,3.6738,3.6208,3.5994,3.5994,3.5836,3.56,3.56,3.56,3.56,3.56,3.5216,3.4506,3.4506,3.3931,3.3017,3.2496,3.2158,3.1887,3.1393,3.119,3.119,3.119,3.119,3.119,0.0,0.0,0.0,0.0,0.0,0.0,1.7783,1.7783,1.7952,1.8437,1.8563,1.8904,1.9677,1.9324,1.9161,1.9429,1.8869,0.0,0.0,0.0,0.0,0.0,0.0,0.0,1.9932,2.0942,2.2103,2.3432,2.3768,2.398,2.4123,2.4139,2.3807,2.3189,2.3117,2.3189,0.0,0.0,0.0,0.0,0.0,0.0,2.2898,0.0,0.0,0.0,0.0,0.0,0.0,0.0,0.0,0.0,0.0,0.0,0.0,0.0,2.4612,2.7807,3.0751,3.251,3.3233,3.2036,3.0412,2.8416,2.5778,2.4203,2.2984,2.2057,2.1887,2.1887,2.1887,2.2124,2.2753,2.4139,2.444,2.5523,2.8416,2.9803,3.1799,3.5194,3.7787,3.9276,3.9276,3.9774,4.0113,4.0113,3.9436,3.887,3.8599,3.7472,3.666,3.6366,3.5836,3.56,3.56,3.56,3.56,3.56,3.56,3.56,3.56,3.56,3.5329,3.4912,3.4912,3.4506,0.0,3.3343,3.2801,3.2259,3.1785,3.1427,3.119,3.119,3.119,3.119,0.0,0.0,0.0,0.0,0.0,0.0,0.0,1.7828,1.785,1.785,1.8078,1.8489,1.9172,1.8899,1.8915,1.9603,1.9273,0.0,0.0,0.0,0.0,0.0,0.0,0.0,2.0273,2.2118,2.3098,2.3153,2.4402,2.4682,2.3995,2.4421,2.4147,2.3389,2.3638,2.3768,2.3742,2.3742,2.3732,2.3653,2.334,2.3224,0.0,0.0,0.0,0.0,0.0,0.0,0.0,0.0,0.0,0.0,0.0,0.0,0.0,0.0,0.0,0.0,0.0,2.7825,2.9296,2.857,2.6759,2.5,2.4271,2.2544,0.0,2.1123,2.1123,2.1156,2.1326,2.182,2.2313,2.2651,2.3782,2.5218,2.6809,2.9668,3.2611,3.5363,3.711,3.8024,3.7922,3.9208,4.0113,4.0113,3.9436,3.8667,3.7956,3.7202,3.6434,3.5633,3.56,3.56,3.56,3.56,3.56,3.56,3.56,3.56,3.56,3.56,3.56,0.0,3.56,3.5216,3.4573,3.4506,3.366,3.2361,3.2327,3.1853,3.119,3.119,3.119,3.119,0.0,0.0,0.0,0.0,0.0,0.0,0.0,0.0,0.0,0.0,1.8487,1.8551,1.8763,1.885,1.8995,0.0,0.0,0.0,0.0,0.0,0.0,0.0,0.0,0.0,2.1123,2.2709,2.3955,2.4824,2.5743,2.6406,2.6809,2.6693,2.6006,2.4897,2.469,2.4417,2.4066,2.4066,2.3945,2.3674,2.361,2.3577,0.0,0.0,0.0,0.0,2.3577,2.3629,0.0,0.0,0.0,0.0,0.0,0.0,0.0,0.0,2.2212,2.2248,2.2018,0.0,2.3105,2.2313,2.1705,2.113,0.0,2.0264,2.0285,2.0285,2.0285,2.0792,2.2564,2.2104,2.2564,2.5964,2.6319,2.7114,2.977,3.3241,3.5746,3.6457,3.8352,3.914,3.8024,3.9208,4.0113,4.0113,3.9436,3.8667,3.7956,3.7202,3.6434,3.5633,3.56,3.56,3.56,3.56,3.56,3.56,3.56,3.56,3.56,3.56,3.56,3.56,3.56,3.5498,3.5295,3.4742,3.3964,3.3085,3.253,3.1853,3.119,3.119,3.119,3.119,0.0,0.0,0.0,0.0,0.0,0.0,0.0,0.0,0.0,0.0,1.8715,1.878,1.878,1.9,1.9134,0.0,0.0,0.0,0.0,0.0,0.0,0.0,0.0,2.2389,2.2145,2.33,2.4235,2.486,2.5668,2.6292,2.6696,2.652,2.6045,2.5374,2.4809,2.4454,2.419,2.419,2.4112,2.3945,2.3945,0.0,0.0,0.0,0.0,0.0,2.3816,2.4023,0.0,2.5264,2.4811,2.4171,0.0,0.0,0.0,0.0,2.2667,2.2487,2.1511,2.1475,2.1583,2.1164,2.0508,2.0107,2.0555,2.0318,2.0039,2.0142,2.0645,2.1603,2.3384,2.2903,2.3498,2.7502,2.7607,2.8383,3.1732,3.4235,3.6152,3.7178,3.8362,3.9039,3.8903,3.9639,4.0113,4.0113,3.9436,3.8667,3.7956,3.7202,3.6434,3.5633,3.56,3.56,3.56,3.56,3.56,3.56,3.5284,3.5115,3.5115,3.5115,3.5115,3.5115,3.5115,3.5318,3.5532,3.481,3.4269,3.3863,3.3457,3.2666,3.1698,3.1698,3.1495,3.119,0.0,0.0,0.0,0.0,0.0,0.0,0.0,0.0,0.0,0.0,0.0,0.0,0.0,0.0,0.0,0.0,0.0,0.0,0.0,0.0,0.0,0.0,2.2345,2.3226,2.3373,2.3896,2.4373,2.474,2.5448,2.5815,2.5962,2.6072,2.5925,2.5521,2.4593,2.419,2.419,2.419,2.419,2.419,2.419,0.0,0.0,0.0,0.0,0.0,0.0,0.0,0.0,2.5434,2.5183,2.4888,2.5338,0.0,0.0,0.0,0.0,0.0,2.2511,2.2743,2.2999,2.2289,2.1212,2.0741,2.2254,2.1437,2.0421,2.0706,2.1764,2.3021,2.4211,2.419,2.5024,2.8153,2.8767,3.0093,3.3684,3.4876,3.5994,3.7719,3.8091,3.8633,3.9673,3.9977,4.0045,3.9943,3.9368,3.8633,3.7787,3.7144,3.6434,3.5633,3.56,3.56,3.56,3.56,3.56,3.56,3.4844,3.4506,3.4506,3.437,3.4336,3.4336,3.4336,0.0,3.5228,3.4573,3.4336,3.4336,3.4336,3.3558,3.2462,3.2462,3.209,3.1529,0.0,0.0,0.0,0.0,0.0,0.0,0.0,0.0,0.0,0.0,0.0,0.0,0.0,0.0,0.0,0.0,0.0,0.0,0.0,0.0,0.0,2.2639,2.3529,2.4337,2.5007,2.4493,2.5181,2.7247,2.7357,2.7787,2.8473,2.9145,2.8374,2.6355,2.485,2.419,2.419,2.419,2.419,2.419,2.419,0.0,0.0,0.0,0.0,0.0,0.0,0.0,0.0,2.5163,2.4907,2.4451,2.5189,0.0,0.0,0.0,0.0,0.0,2.3466,2.5277,2.6166,2.2176,2.1527,2.1938,2.222,2.2056,2.1965,2.2347,2.342,2.4564,2.5686,2.6398,2.7338,2.9072,3.1652,3.4517,3.7465,3.8675,3.8928,3.8024,3.9005,3.9343,3.8328,3.9368,3.9842,3.9208,3.9039,3.8396,3.7032,3.6863,3.6434,3.5633,3.56,3.56,3.56,3.56,3.56,3.56,3.4844,3.4506,3.4472,3.3863,3.3558,3.3558,0.0,3.3626,3.3728,3.3626,3.3558,3.3558,3.3558,3.3423,3.322,3.322,3.3152,3.2983,0.0,0.0,0.0,0.0,0.0,0.0,0.0,0.0,0.0,0.0,0.0,0.0,0.0,0.0,0.0,0.0,0.0,0.0,0.0,0.0,2.3189,2.3639,2.4006,2.4373,2.475,2.4824,2.5595,2.7163,2.7603,2.8227,2.8987,2.8473,2.72,2.5254,2.452,2.419,2.419,2.419,2.419,2.419,0.0,0.0,0.0,0.0,0.0,0.0,0.0,0.0,0.0,0.0,2.486,2.4337,2.5154,0.0,0.0,0.0,0.0,0.0,2.3976,2.5612,2.6741,2.4577,2.5026,2.5849,2.5064,2.4837,2.4968,2.5704,2.6881,2.8093,2.9219,2.9895,3.101,3.3319,3.5362,3.7172,3.8534,3.841,3.8105,3.7936,3.8497,3.8937,3.9073,3.9343,3.9368,3.9005,3.8285,3.7313,3.6197,3.5757,3.5385,3.5013,3.5013,3.5216,3.56,3.56,3.56,3.56,3.4438,3.3897,3.3863,3.3119,3.2814,3.2814,0.0,3.3017,3.3389,3.2983,3.3051,3.3423,3.3423,3.3152,3.2814,3.2814,3.3051,3.3288,0.0,0.0,0.0,0.0,0.0,0.0,0.0,0.0,0.0,0.0,0.0,0.0,0.0,0.0,0.0,0.0,0.0,0.0,0.0,2.3189,2.3566,2.4153,2.419,2.4373,2.474,2.5191,2.5999,2.7152,2.7787,2.8411,2.895,2.7336,2.5841,2.4493,2.4263,2.419,2.419,2.419,2.419,2.419,0.0,0.0,0.0,0.0,0.0,0.0,0.0,0.0,0.0,0.0,0.0,0.0,0.0,0.0,0.0,2.4263,2.4337,2.452,2.4704,2.5952,2.7152,2.7152,2.807,2.8792,2.831,2.8066,2.8291,2.9393,3.0778,3.1923,3.2365,3.2973,3.4398,3.7506,3.8731,3.9418,3.9742,3.8944,3.8352,3.857,3.8583,3.8961,4.0089,3.9542,3.9006,3.8858,3.7798,3.6703,3.5724,3.513,3.469,3.4427,3.4427,3.4635,3.5059,3.5092,3.5261,3.5566,3.4078,3.3423,3.3389,3.2442,3.2124,3.2293,3.2124,3.2442,3.3085,3.2361,3.2476,3.3152,3.3152,3.2882,3.2598,3.2767,3.3051,3.3322,0.0,0.0,0.0,0.0,0.0,0.0,0.0,0.0,0.0,0.0,0.0,0.0,0.0,0.0,0.0,0.0,0.0,0.0,0.0,2.3712,2.4153,2.419,2.419,2.4887,2.6382,2.5742,2.6549,2.884,2.8877,2.895,2.895,2.7336,2.6135,2.5264,2.453,2.419,2.419,2.419,2.419,2.419,2.419,0.0,0.0,0.0,0.0,0.0,0.0,0.0,0.0,0.0,0.0,0.0,0.0,0.0,2.5154,2.442,2.4713,2.5485,2.6209,2.7592,2.884,2.884,2.834,2.8476,3.0626,3.109,3.1417,3.2712,3.4521,3.5316,3.3546,3.4418,3.643,3.959,4.0955,4.1874,4.2611,4.3205,4.2853,4.0886,4.0504,4.0475,4.056,3.9855,3.9095,3.841,3.8234,3.7494,3.5944,3.5838,3.5279,3.417,3.4116,3.3965,3.3558,3.3558,3.4247,3.5566,3.4078,3.3423,3.3355,3.1935,3.165,3.2259,3.1562,3.1718,3.2327,3.1562,3.1718,3.2395,3.2395,3.2747,3.3389,3.41,3.3931,3.3389,0.0,0.0,0.0,0.0,0.0,0.0,0.0,0.0,0.0,0.0,0.0,0.0,0.0,0.0,0.0,0.0,0.0,0.0,0.0,2.4043,2.419,2.419,2.419,2.4704,2.5815,2.6062,2.6576,2.7519,2.8007,2.8007,2.7482,2.5878,2.4667,2.3859,2.3061,2.2978,2.3446,2.3446,2.3749,2.4153,2.3676,2.3446,0.0,0.0,0.0,0.0,0.0,0.0,0.0,0.0,2.419,2.419,2.419,2.475,2.5338,2.5044,2.5154,2.5485,2.5778,2.7383,2.8987,2.8987,2.9904,3.1164,3.2559,3.4077,3.5334,3.5806,3.7696,3.8899,3.7619,3.788,3.9142,4.1844,4.2632,4.3242,4.415,4.3222,4.2011,4.084,4.0186,3.9852,3.9852,3.9146,3.86,3.8318,3.7363,3.6338,3.5278,3.473,3.427,3.3809,3.3809,3.3928,3.4229,3.4229,3.4488,3.5025,3.3939,3.3556,3.3774,3.2502,3.191,3.196,3.1685,3.172,3.1998,3.1982,3.1997,3.1975,3.1701,3.209,3.2767,3.3038,3.3254,3.3322,0.0,0.0,0.0,0.0,0.0,0.0,0.0,0.0,0.0,0.0,0.0,0.0,0.0,0.0,0.0,0.0,0.0,0.0,2.4153,2.419,2.419,2.419,2.419,2.4337,2.464,2.5695,2.6355,2.6602,2.7163,2.7016,2.6209,2.5364,2.452,2.3749,2.3171,2.3245,2.3712,2.3226,2.3299,2.3749,2.2942,2.2611,0.0,0.0,0.0,0.0,0.0,0.0,0.0,0.0,2.419,2.419,2.419,2.475,2.5338,2.5081,2.5374,2.5778,2.5778,2.7163,2.873,2.9244,3.1005,3.3023,3.4614,3.6501,3.8117,3.8851,4.012,4.0838,4.0047,4.012,4.0891,4.28,4.3534,4.4071,4.4654,4.3172,4.1684,4.0622,3.9951,3.9546,3.9546,3.8866,3.8419,3.8419,3.7166,3.6073,3.5319,3.4497,3.3879,3.3498,3.3462,3.3628,3.3988,3.3988,3.4129,3.4359,3.3748,3.3628,3.3919,3.2854,3.2355,3.2353,3.2126,3.2143,3.2388,3.2455,3.2298,3.1969,3.1564,3.1852,3.248,3.2354,3.2747,3.3288,0.0,0.0,0.0,0.0,0.0,0.0,0.0,0.0,0.0,0.0,0.0,0.0,0.0,0.0,0.0,0.0,0.0,0.0,2.4153,2.419,2.419,2.419,2.419,2.3786,2.3006,2.4566,2.5778,2.6602,2.6565,2.6172,2.5411,2.6209,2.6135,2.5374,2.5374,2.5374,2.5264,2.3676,2.3006,2.2933,2.2143,2.1812,2.1812,0.0,0.0,0.0,0.0,0.0,0.0,0.0,2.419,2.419,2.419,2.475,2.5227,2.4447,2.5364,2.6602,2.6602,2.72,2.8202,2.9806,3.1408,3.3513,3.6795,3.8138,3.9386,4.1809,4.1662,4.0838,4.0084,4.0598,4.1389,4.2176,4.3681,4.451,4.3946,4.3652,4.2664,4.0474,4.0025,3.9879,3.9879,3.9166,3.8689,3.8689,3.7933,3.7125,3.634,3.5445,3.4432,3.3232,3.3232,3.2983,3.2535,3.25,3.2872,3.3598,3.3598,3.3598,3.3598,3.2872,3.2891,3.3563,3.2837,3.2943,3.3563,3.2801,3.2518,3.245,3.1986,3.2293,3.2929,3.246,3.2767,3.3288,0.0,0.0,0.0,0.0,0.0,0.0,0.0,0.0,0.0,0.0,0.0,0.0,0.0,0.0,0.0,0.0,0.0,0.0,2.3373,2.3373,2.3088,2.2547,2.251,2.24,2.218,2.3162,2.4373,2.5778,2.5181,2.4777,2.4566,2.4814,2.4483,2.3712,2.3712,2.3712,2.3676,2.3189,2.3336,2.3786,2.2978,2.2648,2.2575,0.0,0.0,0.0,0.0,0.0,0.0,0.0,0.0,0.0,2.419,2.475,2.5448,2.5805,2.6245,2.6722,2.7273,2.8448,2.9732,3.076,3.3146,3.5899,3.8579,3.935,4.0377,4.3387,4.2453,4.1368,4.2249,4.2616,4.2873,4.3094,4.4011,4.4435,4.3724,4.2568,4.1356,4.0108,3.9454,3.8836,3.8264,3.8006,3.7624,3.7037,3.6229,3.5628,3.5408,3.4601,3.3973,3.362,3.3606,3.3564,3.34,3.34,3.3509,3.3749,3.3749,3.3876,3.4067,3.3521,3.327,3.3306,3.3091,3.3127,3.3306,3.307,3.2999,3.2952,3.2466,3.2422,3.2581,3.2134,3.2085,3.22,0.0,0.0,0.0,0.0,0.0,0.0,0.0,0.0,0.0,0.0,2.1767,2.2464,0.0,0.0,0.0,0.0,0.0,0.0,2.3529,2.3189,2.2942,2.2767,2.2437,2.2437,2.2767,2.2905,2.3639,2.4934,2.4456,2.4373,2.4677,2.4997,2.4887,2.4437,2.4437,2.4253,2.3896,2.3263,2.3263,2.3639,2.2868,2.2538,2.2501,0.0,0.0,0.0,0.0,0.0,0.0,0.0,0.0,0.0,2.419,2.453,2.5007,2.5511,2.5878,2.6282,2.709,2.8741,3.0467,3.1604,3.4357,3.7419,3.9827,4.1111,4.2543,4.5131,4.3754,4.2359,4.3331,4.3258,4.313,4.3441,4.3901,4.4048,4.3588,4.2103,4.0691,3.957,3.8689,3.7918,3.7088,3.7015,3.6831,3.634,3.5481,3.5004,3.5004,3.4247,3.3807,3.3807,3.3807,3.3807,3.3807,3.3807,3.3807,3.3807,3.3807,3.3904,3.4068,3.3805,3.3584,3.3451,3.3451,3.3451,3.3451,3.3451,3.3633,3.3844,3.3075,3.3152,3.355,3.2493,3.2249,3.244,0.0,0.0,0.0,0.0,0.0,0.0,0.0,0.0,0.0,0.0,2.2538,2.3043,0.0,0.0,0.0,0.0,0.0,0.0,0.0,2.3189,2.3079,2.3823,2.3235,2.3272,2.408,2.3373,2.341,2.43,2.4226,2.4566,2.5301,2.6098,2.6465,2.6382,2.6465,2.6025,2.5191,2.3749,2.3116,2.3043,2.2326,2.2033,2.2106,2.2758,0.0,0.0,0.0,0.0,0.0,0.0,0.0,0.0,2.43,2.4373,2.4447,2.452,2.5007,2.5705,2.6576,2.8473,3.0613,3.2289,3.5275,3.8447,4.0781,4.3003,4.5002,4.6452,4.5076,4.3571,4.3497,4.2947,4.2727,4.3294,4.3441,4.3441,4.3294,4.1919,4.0288,3.8762,3.7955,3.7162,3.6266,3.6266,3.6229,3.6083,3.5334,3.4894,3.4894,3.4197,3.3807,3.3807,3.3807,3.3807,3.3807,3.3807,3.3807,3.3807,3.3807,3.3807,3.3807,3.3807,3.3807,3.3807,3.3807,3.3807,3.3807,3.3807,3.4234,3.4779,3.3698,3.4114,3.5135,3.3246,3.2993,3.3472,0.0,0.0,0.0,0.0,0.0,0.0,0.0,0.0,0.0,0.0,0.0,0.0,0.0,0.0,0.0,0.0,0.0,0.0,0.0,2.1135,2.1098,2.1281,2.1804,2.2428,2.3226,2.3079,2.3712,2.5154,2.453,2.43,2.4493,2.5264,2.5338,2.474,2.5374,2.5227,2.4456,2.408,2.3933,2.3933,2.3749,2.3676,2.3639,2.3153,2.3373,0.0,0.0,0.0,0.0,0.0,0.0,0.0,2.5154,2.5585,2.6209,2.6833,2.6686,2.6649,2.8106,2.9317,3.076,3.2999,3.6964,4.0781,4.258,4.3387,4.3864,4.4195,4.4378,4.4268,4.3608,4.3864,4.3828,4.2727,4.3094,4.3057,4.1809,4.023,3.8836,3.786,3.7603,3.6942,3.5408,3.5899,3.5752,3.4431,3.4174,3.4064,3.4064,3.388,3.3807,3.3807,3.3807,3.3807,3.3807,3.3807,3.3807,3.3807,3.3807,3.3807,3.3807,3.3807,3.3807,3.3807,3.3807,3.3807,3.3807,3.3807,3.3917,3.4014,3.3762,3.3867,3.4067,3.334,3.3152,3.3198,0.0,0.0,0.0,0.0,0.0,0.0,0.0,0.0,0.0,0.0,0.0,0.0,0.0,0.0,0.0,0.0,0.0,0.0,0.0,0.0,2.2428,2.2832,2.2905,2.3318,2.4116,2.3786,2.4153,2.5411,2.497,2.5191,2.5915,2.6366,2.6329,2.5915,2.5952,2.5521,2.475,2.4373,2.419,2.419,2.419,2.419,2.419,2.4153,2.4153,2.419,2.4153,0.0,0.0,0.0,0.0,0.0,0.0,0.0,2.6686,2.709,2.6943,2.6859,2.8081,2.9586,3.1641,3.5238,3.8358,4.0965,4.2543,4.2616,4.247,4.2837,4.3571,4.3754,4.258,4.302,4.3167,4.1919,4.2103,4.2066,4.1205,4.0047,3.8982,3.8175,3.7749,3.7015,3.5752,3.6046,3.5936,3.5055,3.4614,3.438,3.438,3.4027,3.3807,3.3807,3.3807,3.3807,3.3807,3.3807,3.3807,3.3807,3.3807,3.3807,3.3807,3.3807,3.3807,3.3807,3.3807,3.3807,3.3807,3.3807,3.4027,3.4344,3.3954,3.4027,3.4293,3.371,3.3494,3.3465,0.0,0.0,0.0,0.0,0.0,0.0,0.0,0.0,0.0,0.0,0.0,0.0,0.0,0.0,0.0,0.0,0.0,0.0,0.0,0.0,0.0,2.5154,2.4677,2.464,2.5191,2.453,2.4677,2.5595,2.5742,2.6696,2.8422,2.786,2.7603,2.7567,2.6906,2.6135,2.5338,2.4677,2.4337,2.419,2.419,2.419,2.4263,2.4934,2.4787,2.43,2.4934,2.4787,2.43,2.497,0.0,0.0,0.0,0.0,2.7005,2.7005,2.6943,2.6979,2.7787,2.9769,3.2669,3.7184,3.8982,4.0084,4.1552,4.1479,4.1242,4.1772,4.2543,4.2653,4.1168,4.1552,4.1846,4.1022,4.0875,4.0875,4.0875,4.0084,3.9239,3.8579,3.7933,3.7199,3.6376,3.6413,3.645,3.6303,3.5481,3.5004,3.5004,3.4247,3.3844,3.399,3.388,3.388,3.4027,3.388,3.3807,3.3807,3.3807,3.3807,3.3807,3.3807,3.3807,3.3807,3.3807,3.3807,3.3807,3.3807,3.4211,3.4747,3.4064,3.4211,3.4711,3.4064,3.3807,3.3807,0.0,0.0,0.0,0.0,0.0,0.0,0.0,0.0,0.0,0.0,2.419,2.419,0.0,0.0,0.0,0.0,0.0,0.0,0.0,0.0,0.0,2.4383,2.4934,2.497,2.4373,2.4263,2.4924,2.6429,2.7126,2.8679,3.0846,2.8081,2.6759,2.6759,2.6649,2.6135,2.5374,2.5301,2.4824,2.419,2.419,2.419,2.419,2.43,2.43,2.419,2.43,2.43,2.4226,2.43,2.5291,0.0,0.0,0.0,2.8693,2.8693,2.8191,2.7824,2.862,3.0601,3.3109,3.5936,3.7734,3.9093,4.001,4.0671,4.0912,4.0341,4.0855,4.1132,4.023,4.0708,4.0985,4.0194,4.0047,4.0047,4.0047,3.8778,3.7786,3.7676,3.7566,3.7199,3.6376,3.6942,3.7052,3.634,3.5481,3.5004,3.5004,3.4247,3.4137,3.4821,3.4174,3.4137,3.4821,3.4174,3.3807,3.3807,3.3807,3.3807,3.3807,3.3807,3.3807,3.3807,3.3807,3.3807,3.3807,3.3807,3.3844,3.3954,3.3844,3.388,3.3954,3.3844,3.3807,3.3807,0.0,0.0,0.0,0.0,0.0,0.0,0.0,0.0,0.0,0.0,0.0,2.4713,0.0,0.0,0.0,0.0,0.0,0.0,0.0,0.0,0.0,2.6209,2.6098,2.5705,2.4897,2.5291,2.6098,2.7273,2.764,2.9255,3.2045,3.0173,2.9549,2.9904,2.9035,2.7934,2.6696,2.5778,2.4934,2.419,2.419,2.419,2.419,2.419,2.419,2.419,2.419,2.419,2.4263,2.4713,2.5338,2.5988,2.6465,0.0,0.0,0.0,2.8081,2.8081,2.9329,3.0797,3.2412,3.4394,3.6156,3.7698,3.8946,3.9496,3.979,3.9863,3.9827,3.9643,3.9276,3.99,4.0157,3.935,3.9239,3.9239,3.9239,3.8615,3.8175,3.8175,3.8175,3.8028,3.7698,3.7955,3.8028,3.7661,3.6853,3.6413,3.6413,3.5165,3.4637,3.5004,3.4211,3.377,3.3647,3.377,3.3807,3.3807,3.3807,3.3807,3.3807,3.3807,3.3807,3.3807,3.3807,3.3807,3.3807,3.3807,3.3807,3.3807,3.3807,3.3807,3.3807,3.3807,3.3807,3.3807,0.0,0.0,0.0,0.0,0.0,0.0,0.0,0.0,0.0,0.0,0.0,0.0,0.0,0.0,0.0,0.0,0.0,0.0,0.0,0.0,0.0,2.7798,2.7236,2.6429,2.5411,2.6392,2.709,2.7493,2.8117,2.9843,3.2583,3.2192,3.2449,3.3133,3.1518,2.9806,2.8007,2.6623,2.5558,2.4777,2.4373,2.419,2.419,2.419,2.419,2.419,2.419,2.419,2.43,2.4897,2.5227,2.5485,2.6098,2.6429,0.0,0.0,0.0,2.8374,2.9586,3.0467,3.1433,3.2852,3.4284,3.5789,3.7404,3.7918,3.8322,3.9129,3.8982,3.8689,3.8689,3.9203,3.9386,3.8799,3.8689,3.8689,3.8689,3.8689,3.8689,3.8689,3.8689,3.8689,3.8689,3.8689,3.8615,3.8395,3.7639,3.7088,3.6905,3.5298,3.4491,3.4674,3.3917,3.322,3.2619,3.322,3.3513,3.3513,3.3697,3.3807,3.3807,3.3807,3.3807,3.3807,3.3807,3.3807,3.3807,3.3807,3.3807,3.3807,3.3807,3.3807,3.3807,3.3807,3.3807,3.3807,0.0,0.0,0.0,0.0,0.0,0.0,0.0,0.0,0.0,0.0,0.0,0.0,2.5338,2.5411,2.6072,2.7541,2.7016,0.0,0.0,0.0,0.0,2.7835,2.775,0.0,2.5411,2.6953,2.7383,2.6638,2.8962,3.0944,3.2619,3.333,3.41,3.4821,3.3206,3.1152,2.8877,2.8044,2.72,2.6355,2.4814,2.419,2.419,2.419,2.419,2.419,2.419,2.419,2.419,2.4263,2.4787,2.5411,2.5448,2.5988,2.6759,0.0,0.0,0.0,2.9023,2.9647,3.0467,3.1311,3.2155,3.3206,3.4821,3.5826,3.6633,3.7456,3.8212,3.8689,3.8689,3.8726,3.8762,3.8726,3.8689,3.8689,3.8689,3.8689,3.8689,3.8689,3.8689,3.8689,3.8689,3.8689,3.8395,3.7639,3.6831,3.6009,3.5188,3.361,3.306,3.3844,3.3073,3.2619,3.2583,3.2619,3.2656,3.2656,3.344,3.3807,3.3807,3.3807,3.3807,3.3807,3.3807,3.3807,3.3807,3.3807,3.3807,3.3807,3.3807,3.3807,3.3807,3.3807,3.3807,3.3807,0.0,0.0,0.0,0.0,0.0,0.0,0.0,0.0,0.0,0.0,0.0,0.0,0.0,2.6759,2.775,2.7787,2.8007,0.0,0.0,0.0,0.0,2.9365,2.9854,2.9365,2.775,2.8778,2.9219,2.8925,2.9244,3.0528,3.2583,3.2375,3.2412,3.2706,3.2619,3.1555,2.9696,2.8374,2.7346,2.6528,2.5988,2.5438,2.497,2.497,2.464,2.419,2.419,2.419,2.419,2.419,2.4373,2.464,2.464,2.4814,2.5217,2.6035,2.721,2.8227,2.8227,2.8803,2.961,3.043,3.1237,3.2118,3.3206,3.4491,3.5555,3.5848,3.656,3.7147,3.7147,3.7991,3.8689,3.8689,3.8689,3.8505,3.7991,3.7933,3.7734,3.7221,3.7147,3.7147,3.7147,3.7147,3.7037,3.6758,3.645,3.6156,3.5862,3.4284,3.3513,3.3807,3.3023,3.2583,3.2583,3.2583,3.2583,3.2619,3.344,3.3807,3.3807,3.3807,3.3807,3.3807,3.3807,3.3807,3.3807,3.3807,3.3807,3.3807,3.3807,3.3807,3.3807,3.3807,3.3807,3.3807,0.0,0.0,0.0,0.0,0.0,0.0,0.0,0.0,2.6796,2.6292,0.0,0.0,0.0,0.0,2.9586,2.9072,2.9512,3.0026,3.0577,3.0356,3.021,3.021,3.0467,2.9953,2.862,2.9659,2.9953,2.9402,2.939,3.0234,3.1775,3.1237,3.114,3.1433,3.1678,3.1188,3.0099,2.8778,2.7897,2.7372,2.6822,2.6282,2.5815,2.6109,2.5888,2.5401,2.5401,2.5401,2.5364,2.5107,2.4814,2.4603,2.4603,2.4603,2.4713,2.5227,2.6366,2.7457,2.7714,2.8191,2.8741,2.9255,2.9989,3.0723,3.1262,3.2619,3.3867,3.4124,3.4871,3.5459,3.5459,3.634,3.7257,3.7808,3.7881,3.7698,3.7162,3.7088,3.6905,3.634,3.6303,3.6303,3.6303,3.6303,3.6193,3.5899,3.5862,3.5752,3.5459,3.4137,3.3403,3.3403,3.2362,3.2032,3.2583,3.2876,3.2876,3.2619,3.3683,3.4064,3.3807,3.3807,3.3807,3.3807,3.3807,3.3807,3.3807,3.3807,3.3807,3.3807,3.3807,3.3807,3.3807,3.3807,3.3807,3.3807,0.0,0.0,0.0,0.0,0.0,0.0,0.0,0.0,2.7897,2.786,0.0,0.0,0.0,0.0,0.0,3.1397,3.1397,3.136,3.1397,3.065,3.021,3.0246,0.0,0.0,2.7934,2.9402,2.9439,2.786,2.9402,3.0173,3.0173,3.0173,3.0577,3.1323,3.0503,3.0173,3.0099,2.9317,2.9023,2.8913,2.7299,2.6675,2.6749,2.7493,2.7787,2.775,2.775,2.775,2.764,2.6869,2.6062,2.5411,2.5374,2.5374,2.5374,2.5374,2.5915,2.6759,0.0,0.0,0.0,2.7798,2.8411,2.8987,2.8987,3.0246,3.1568,3.2362,3.3183,3.3733,3.3733,3.3733,3.4247,3.5899,3.6229,3.6229,3.6229,3.6229,3.6229,3.6229,3.6193,3.6193,3.6229,3.6229,3.5899,3.5041,3.4954,3.4601,3.3844,3.3023,3.2583,3.2583,3.1091,3.1005,3.2583,3.3403,3.3403,3.2619,3.4197,3.4564,3.3807,3.3807,3.3807,3.3807,3.3807,3.3807,3.3807,3.3807,3.3807,3.3807,3.3807,3.3807,3.3807,3.3807,3.3807,3.3807,0.0,0.0,0.0,0.0,0.0,2.9549,2.9549,3.0026,3.0222,0.0,0.0,0.0,3.0173,3.0907,3.1397,3.1397,3.087,3.076,3.136,3.065,3.0467,3.1017,3.0834,3.0613,3.0405,3.0283,2.9989,2.9549,2.939,2.9317,2.9317,2.9317,2.9464,2.9647,2.9427,2.9317,2.9317,2.9097,2.9354,2.9757,2.8767,2.8326,2.829,2.7934,2.742,2.6943,2.6943,2.6943,2.6906,2.6686,2.6062,2.5301,2.4713,2.453,2.453,2.453,2.5117,2.5778,2.5999,0.0,0.0,0.0,0.0,0.0,2.8987,2.9806,3.0613,3.0834,3.1494,3.2045,3.2045,3.2045,3.2241,3.2682,3.4211,3.5151,3.4578,3.4504,3.4504,3.4504,3.399,3.3844,3.4431,3.4504,3.4394,0.0,3.4137,3.4027,3.3807,3.3023,3.2583,3.2583,3.2179,3.2142,3.2583,3.3403,3.3403,3.2619,3.3647,3.4027,3.3807,3.3807,3.3807,3.3807,3.3807,3.3807,3.3807,3.3807,3.3807,3.3807,3.3807,3.3807,3.3807,3.3807,3.3807,3.3807,0.0,0.0,0.0,0.0,2.9843,3.0687,3.0687,3.1384,3.1715,0.0,0.0,0.0,3.1715,3.2118,3.2412,3.2412,3.1971,3.1898,3.2375,3.1641,3.1421,3.1861,3.158,3.1397,3.1397,3.0944,3.0687,3.0687,2.9867,2.95,2.95,2.95,2.9317,2.9023,2.9354,2.9317,2.8987,2.8987,2.928,2.9647,2.9207,2.8987,2.895,2.8484,2.8007,2.7556,2.7236,2.753,2.8007,2.7346,2.6576,2.5778,2.497,2.4456,2.419,2.419,2.453,2.497,2.5301,2.6072,2.688,2.72,0.0,0.0,2.8521,2.9133,2.9684,2.9684,3.0063,3.0393,3.0393,3.0393,3.0393,3.0393,3.1849,3.2949,3.2816,3.2779,3.2779,3.2779,3.2375,3.2412,3.322,3.3293,3.344,3.377,3.3807,3.3807,3.3807,3.3023,3.2729,3.3109,3.2766,3.2766,3.3096,3.3903,3.3903,3.3109,3.3903,3.4124,3.3807,3.3807,3.3807,3.3807,3.3807,3.3807,3.3807,3.3807,3.3807,3.3807,3.3807,3.3807,3.3807,3.3807,3.3807,3.3807,0.0,0.0,3.032,3.032,3.098,3.1531,3.1531,3.2228,3.2729,0.0,3.3366,3.377,3.3697,3.3733,3.3807,3.3807,3.3733,3.3697,3.3807,3.2963,3.2509,3.2583,3.1825,3.1397,3.1397,3.1397,3.1397,3.1397,3.0687,3.032,3.032,3.032,2.9941,2.928,2.9904,2.9794,2.9133,2.9023,2.906,2.9133,2.9023,2.9097,2.9244,2.8987,2.8913,2.8877,2.8007,2.8594,2.9586,2.8154,2.72,2.6465,2.5778,2.5044,2.4483,2.4483,2.4483,2.463,2.5338,2.5595,2.5815,2.6429,2.7273,0.0,2.7824,2.8411,2.8987,2.8987,2.8987,2.8987,2.8987,2.8987,2.8987,2.8987,2.961,3.0356,3.1127,3.1286,3.1323,3.1397,3.1323,3.1568,3.2399,3.2472,3.2779,3.3476,3.3623,3.366,3.366,3.306,3.3073,3.377,3.3109,3.3073,3.3807,3.4417,3.4417,3.3807,3.4417,3.4417,3.3807,3.3807,3.3807,3.3807,3.3807,3.3807,3.3807,3.3807,3.3807,3.3807,3.3807,3.3807,3.3807,3.3807,3.3807,3.3807,0.0,3.0503,3.1176,3.1176,3.1825,3.2375,3.2375,3.3036,3.3587,3.3587,3.3697,3.355,3.2913,3.3403,3.3807,3.3807,3.322,3.3109,3.377,3.2449,3.1935,3.2583,3.1825,3.1397,3.1397,3.1397,3.1397,3.1397,3.125,3.1176,3.1176,3.1176,3.1103,3.0907,3.043,3.0099,2.9904,2.928,2.9354,2.9916,2.9244,2.9757,3.0723,2.8778,2.8436,2.8803,2.7372,2.7053,2.7262,2.6943,2.6722,2.6565,2.6429,2.6245,2.6135,2.6135,2.6135,2.6172,2.6319,2.6833,2.72,2.6722,2.7703,0.0,2.7934,2.8411,2.8987,2.8987,2.8987,2.8987,2.8987,2.8987,2.8987,2.8987,2.9133,2.95,3.032,3.043,3.0687,3.1323,3.0834,3.076,3.1568,3.1641,3.1678,3.1874,3.2485,3.2839,3.2839,3.3293,3.366,3.3807,3.366,3.366,3.3807,3.3316,3.3316,3.3807,3.328,3.333,3.3807,3.3807,3.3807,3.3807,3.3807,3.3807,3.3807,3.3807,3.3807,3.3807,3.3807,3.3807,3.3807,3.3807,3.3807,3.3807,3.0723,3.1458,3.2008,3.2008,3.2669,3.322,3.322,3.3867,3.4527,3.4981,3.5385,3.5165,3.394,3.416,3.4247,3.3844,3.344,3.3366,3.377,3.3036,3.2779,3.3183,3.2816,3.2596,3.2596,3.2596,3.2596,3.2596,3.2192,3.2008,3.2008,3.2008,3.1788,3.1397,3.1384,3.1164,3.076,3.0356,3.043,3.0723,2.9904,3.032,3.1213,2.9622,2.8741,2.8227,2.7042,2.6355,2.6098,2.6943,2.6686,2.6062,2.6465,2.6062,2.5548,2.6345,2.6385,2.6216,2.6507,2.6974,2.7352,2.7232,2.7787,0.0,0.0,2.8117,2.8411,2.8411,2.8411,2.851,2.8913,2.8987,2.8987,2.8987,2.8987,2.9133,2.9537,2.961,2.9757,3.0173,2.9843,2.9904,3.0723,3.0797,3.098,3.136,3.1751,3.2008,3.2008,3.2779,3.322,3.322,3.3587,3.3623,3.322,3.2803,3.2803,3.322,3.2803,3.3023,3.3807,3.3807,3.3807,3.3807,3.3807,3.3807,3.3807,3.3807,3.3807,3.3807,3.3807,3.3807,3.3807,3.3807,3.3807,3.3807,3.1617,3.2155,3.2656,3.2803,3.3366,3.3807,3.3807,3.4344,3.5151,3.6156,3.6721,3.6633,3.5591,3.5188,3.4931,3.4761,3.4174,3.4064,3.4688,3.4137,3.388,3.4027,3.388,3.3807,3.3807,3.3807,3.3807,3.3807,3.3146,3.2839,3.2839,3.2839,3.2485,3.1874,3.2375,3.2228,3.1604,3.147,3.1507,3.1568,3.0907,3.1054,3.1531,3.0577,2.9402,2.8117,2.7016,2.6172,2.5825,2.719,2.6628,2.5541,2.6432,2.5889,2.5196,2.6501,2.6683,2.6588,2.7036,2.7264,2.7475,2.7826,2.8028,2.808,0.0,0.0,0.0,2.8181,2.8138,2.8316,2.8968,2.9021,2.895,2.8803,2.8913,2.895,2.8803,2.8913,2.8987,2.8987,2.8987,2.9244,2.9916,2.9989,3.0246,3.087,3.1103,3.125,3.1397,3.2155,3.2656,3.2839,3.3476,3.3403,3.2619,3.2583,3.2583,3.2583,3.2583,3.3023,3.3807,3.3807,3.3807,3.3807,3.3807,3.3807,3.3807,3.3807,3.3807,3.3807,3.3807,3.3807,3.3807,3.3807,3.3807,3.3807,3.2339,3.2546,3.2803,3.355,3.3733,3.3807,3.3807,3.388,3.4504,3.6083,3.5701,3.5775,3.7088,3.5899,3.5848,3.7955,3.5495,3.5055,3.7955,3.5422,3.4137,3.4821,3.4174,3.3807,3.3807,3.3807,3.3807,3.3807,3.3697,3.366,3.366,3.366,3.3623,3.3513,3.2876,3.2546,3.2399,3.1715,3.1825,3.2472,3.2362,3.2362,3.2289,3.0797,3.0099,2.9622,2.742,2.6539,2.6534,2.6867,2.629,2.5601,2.6782,2.738,2.7689,2.7873,2.8549,2.923,2.9116,2.9103,2.8996,0.0,2.8821,2.9078,2.8535,0.0,2.9493,2.9493,0.0,2.9268,2.9343,0.0,0.0,2.8044,2.851,2.8767,2.8044,2.8546,2.8987,2.8987,2.8987,2.9023,2.9133,2.9133,2.917,2.928,2.9953,3.065,3.136,3.2155,3.2913,3.366,3.3733,3.3403,3.2619,3.2583,3.2583,3.2583,3.2583,3.3023,3.3807,3.3807,3.3807,3.3807,3.3807,3.3807,3.3807,3.3807,3.3807,3.3807,3.3807,3.3807,3.3807,3.3807,3.3807,3.3807,3.2436,3.2583,3.2839,3.366,3.3807,3.3807,3.3807,3.5422,3.6743,3.6978,3.8285,3.9334,3.957,3.8967,3.8563,3.8689,3.7,3.6119,3.6509,3.4835,3.3954,3.4284,3.399,3.3807,3.3807,3.3807,3.3807,3.3807,3.3807,3.3807,3.3807,3.3807,3.3807,3.3807,3.344,3.3293,3.3256,3.2926,3.2999,3.3293,3.3293,3.3293,3.322,3.2559,3.1715,3.065,2.8693,2.7703,2.7279,2.7007,2.6637,2.6274,2.6327,2.6926,2.7676,2.7867,2.8455,2.9022,2.9148,2.9296,0.0,0.0,0.0,0.0,2.8651,0.0,2.9146,0.0,0.0,0.0,0.0,0.0,0.0,0.0,2.906,2.8877,2.8546,2.8803,2.8987,2.8987,2.8987,2.8987,2.8987,2.8987,2.8987,2.8987,2.9317,2.9647,2.9989,3.1201,3.1825,3.1715,3.2632,3.2472,3.1237,3.1678,3.1898,3.1898,3.2362,3.3023,3.3807,3.3807,3.3807,3.3807,3.3807,3.3807,3.3807,3.3807,3.3807,3.3807,3.3807,3.3807,3.3807,3.3807,3.3807,3.3807,3.2436,3.2583,3.2839,3.366,3.3807,3.388,3.41,3.6142,3.7734,3.7823,3.968,4.1111,4.1405,4.1242,4.0985,4.0708,3.9313,3.7955,3.6765,3.5298,3.4284,3.3807,3.3807,3.3807,3.3807,3.3807,3.3807,3.3807,3.3807,3.3807,3.3807,3.3807,3.3807,3.3807,3.3807,3.3807,3.3807,3.3807,3.3807,3.3807,3.3807,3.3807,3.377,3.355,3.2889,3.1837,3.0246,2.9292,2.8688,2.8172,2.7811,0.0,2.6835,2.747,2.8372,2.8061,2.8586,2.9314,2.9492,0.0,0.0,0.0,0.0,0.0,0.0,0.0,0.0,0.0,0.0,0.0,0.0,0.0,3.0557,3.0149,0.0,2.9391,2.8936,2.9019,2.9078,2.8998,2.8987,2.8987,2.8987,2.8987,2.8987,2.8987,2.8987,2.9097,2.9317,3.043,3.0907,3.054,3.1678,3.1604,3.021,3.1201,3.1604,3.1397,3.2449,3.322,3.3807,3.3807,3.3807,3.3807,3.3807,3.3807,3.3807,3.3807,3.3807,3.3807,3.3807,3.3807,3.3807,3.3807,3.3807,3.3807,3.2436,3.2583,3.2839,3.366,3.3807,3.4064,3.4857,3.5041,3.5958,3.8358,3.8065,3.8851,4.1919,4.1572,4.2306,4.5406,4.28,4.0948,4.0912,3.7955,3.5495,3.388,3.3807,3.3807,3.3807,3.3807,3.3807,3.3807,3.3807,3.3807,3.3807,3.3807,3.3807,3.3807,3.3807,3.3807,3.3807,3.3807,3.3807,3.3807,3.3807,3.3807,3.3697,3.2913,3.3109,3.3513,3.1911,3.1323,0.0,3.0882,3.0105,0.0,0.0,0.0,0.0,0.0,0.0,0.0,0.0,0.0,0.0,3.1519,0.0,0.0,0.0,0.0,3.1372,0.0,0.0,0.0,0.0,0.0,3.0731,2.9926,3.0429,0.0,0.0,2.9027,2.9307,2.9021,2.8987,2.8987,2.8987,2.8987,2.8987,2.8987,2.8987,2.9354,3.0136,3.021,3.0577,3.136,3.1433,3.1017,3.021,3.1775,3.2192,3.1433,3.2999,3.377,3.3807,3.3807,3.3807,3.3807,3.3807,3.3807,3.3807,3.3807,3.3807,3.3807,3.3807,3.3807,3.3807,3.3807,3.3807,3.3807,3.3256,3.3403,3.3476,3.3733,3.3807,3.4284,3.5642,3.7221,3.9496,4.302,4.3681,4.5296,4.9114,4.882,4.8306,4.8362,4.6361,4.4397,4.28,4.0157,3.8175,3.711,3.7037,3.6266,3.4637,3.5165,3.4908,3.3807,3.3807,3.3807,3.3807,3.3807,3.3807,3.3807,3.3807,3.3807,3.3807,3.3807,3.3807,3.3807,3.3807,3.4137,3.4491,3.3697,3.355,3.3733,3.3183,3.2632,0.0,3.16,3.1214,3.0818,2.9788,3.0723,3.1851,3.0516,3.11,3.2126,0.0,0.0,3.1665,3.2165,0.0,0.0,0.0,0.0,0.0,0.0,0.0,0.0,0.0,0.0,3.1906,3.1447,3.1156,3.058,0.0,2.9473,2.957,2.9485,2.9475,2.9336,2.9021,2.8661,2.8582,2.8962,2.8521,2.8558,2.9354,2.9916,3.0099,2.9843,3.032,3.021,2.9427,3.0454,3.1127,3.1433,3.2485,3.3293,3.3807,3.3807,3.3807,3.3807,3.3807,3.3807,3.3807,3.3807,3.3807,3.3807,3.3807,3.3807,3.3807,3.3807,3.3807,3.3807,3.377,3.3807,3.3807,3.3807,3.4284,3.5128,3.6523,3.9496,4.2653,4.5516,4.7095,4.9187,5.2417,5.2307,5.1683,5.0949,4.9627,4.7572,4.4525,4.2616,4.0855,3.9203,3.8836,3.7808,3.5922,3.6156,3.5459,3.3807,3.41,3.41,3.3807,3.3807,3.3807,3.3807,3.3807,3.3807,3.3807,3.3807,3.3807,3.3807,3.3807,3.41,3.4527,3.399,3.399,3.4211,0.0,3.3476,3.2965,3.2685,3.2627,3.2467,3.1486,3.2188,3.3184,3.1914,3.2276,3.2996,3.2826,3.2628,0.0,3.3073,3.305,0.0,3.2916,0.0,3.3276,0.0,0.0,0.0,0.0,0.0,3.2301,3.2428,3.1765,3.0896,0.0,2.9869,2.9899,2.9703,2.9686,2.942,2.8756,2.8336,2.8103,2.8128,2.7677,2.7603,2.8106,2.8925,2.9108,2.8583,2.9354,2.95,2.9023,2.9794,3.0467,3.0993,3.2082,3.2876,3.3366,3.366,3.3807,3.3807,3.3807,3.3807,3.3807,3.3807,3.3807,3.3807,3.3807,3.3807,3.3807,3.3807,3.3807,3.3807,3.3954,3.388,3.3917,3.3917,3.5202,3.656,3.7529,4.1662,4.5076,4.6104,4.8343,5.0508,5.227,5.238,5.2637,5.335,5.2674,5.0472,4.6507,4.5443,4.3534,4.0377,3.946,3.8542,3.7639,3.6868,3.5605,3.3844,3.4637,3.4601,3.3807,3.3807,3.3807,3.3807,3.3807,3.3807,3.3807,3.3807,3.3807,3.3807,3.3807,3.3807,3.3844,3.3807,3.4307,3.4894,3.41,3.3807,3.3823,3.4129,3.4188,3.4132,3.3921,3.442,3.4764,3.3195,3.3257,3.3883,3.3883,3.3875,3.3915,3.4204,3.4237,0.0,0.0,0.0,3.4013,0.0,0.0,0.0,0.0,0.0,0.0,3.2737,3.2199,3.1335,3.0278,3.0324,3.0305,2.9923,2.9758,2.9294,2.8259,2.8128,2.7687,2.6728,2.6576,2.6576,2.6602,2.7346,2.7798,2.7798,2.8583,2.8987,2.8987,2.9794,3.021,3.0283,3.1849,3.2619,3.2693,3.344,3.3807,3.3807,3.3807,3.3807,3.3807,3.382,3.382,3.3807,3.382,3.382,3.3807,3.3844,3.3844,3.388,3.3954,3.4798,3.5642,3.5642,3.5495,3.6435,3.968,4.2746,4.6269,5.0745,5.3445,5.6014,5.8841,5.807,5.7189,5.6785,5.5464,5.3702,5.1463,4.9444,4.7425,4.5351,4.3884,4.1956,3.9328,3.9056,3.7588,3.4674,3.4894,3.4601,3.3807,3.3807,3.3807,3.3807,3.3807,3.3807,3.3807,3.3807,3.3807,3.3807,3.3807,3.4174,3.4637,0.0,3.4307,3.4894,3.41,3.3807,3.3823,3.4129,3.4068,3.3993,3.434,3.4623,3.4775,3.4539,3.4749,3.506,3.506,3.491,3.4838,3.5112,3.5016,3.4864,0.0,0.0,0.0,0.0,0.0,0.0,0.0,0.0,0.0,3.2083,3.1814,3.1795,3.2103,3.1706,3.1552,3.2004,3.042,2.9258,2.9303,2.8202,2.7544,2.7687,2.6489,2.5952,2.6576,2.7346,2.7798,2.7798,2.8583,2.8987,2.8987,2.9794,3.0503,3.1103,3.2118,3.2913,3.3513,3.3697,3.3807,3.3807,3.3807,3.3807,3.3834,3.4006,3.3968,3.3834,3.4018,3.3992,3.388,3.4454,3.4674,3.4784,3.4981,3.678,3.8505,3.8872,3.9386,4.0398,4.2379,4.4728,4.7829,5.2123,5.5097,5.7483,5.9318,5.9318,5.9001,5.8584,5.7042,5.528,5.3335,5.161,4.9738,4.77,4.5755,4.3534,4.1001,3.99,3.7955,3.5004,3.5004,3.4601,3.3807,3.3807,3.3807,3.3807,3.3807,3.3807,3.3807,3.3807,3.3807,3.3807,3.3807,3.4064,0.0,3.3954,3.41,3.4417,3.3954,3.3807,3.3823,3.4129,3.4117,3.408,3.4675,3.4803,3.4783,3.5174,3.5316,3.5354,3.5479,3.5383,3.5324,3.5472,3.5383,3.5331,3.5479,3.55,3.5346,0.0,3.4468,3.4052,0.0,0.0,0.0,0.0,0.0,0.0,0.0,0.0,3.1852,3.2314,3.0775,2.978,2.9991,2.8017,2.669,2.6655,2.5615,2.5255,2.5792,2.6916,2.7548,2.7548,2.9055,2.9874,2.9874,3.0677,3.1309,3.1756,3.2564,3.314,3.3475,3.3807,3.3915,3.382,3.3928,3.3955,3.3981,3.4307,3.433,3.4177,3.4213,3.434,3.4607,3.5331,3.5334,3.5078,3.6597,3.9313,4.1719,4.2213,4.4562,4.625,4.5883,4.7792,5.0105,5.2491,5.5574,5.7593,5.7593,5.8634,5.9368,5.9368,5.7886,5.5978,5.3665,5.2674,5.1096,4.8746,4.6324,4.4232,4.2506,4.0304,3.7881,3.5188,3.5188,3.4711,3.3807,3.3807,3.3807,3.3807,3.3807,3.3807,3.3807,3.3807,3.3807,3.3807,3.3807,3.3807,3.3807,3.3807,3.3807,3.3807,3.3807,3.3807,3.3823,3.4129,3.42,3.4292,3.486,3.4917,3.4851,3.5324,3.5324,3.5207,3.5458,3.55,3.55,3.55,3.55,3.55,3.55,3.55,3.55,3.55,3.4891,3.4359,0.0,0.0,0.0,0.0,0.0,0.0,0.0,0.0,3.1737,3.1852,3.0885,0.0,3.0385,2.7864,2.5905,2.5225,2.4767,2.4727,0.0,0.0,2.7242,2.7355,2.9712,3.1042,3.1156,3.1967,3.243,3.2543,3.3242,3.3443,3.3262,3.3959,3.4141,3.3928,3.4177,3.4258,3.4281,3.4614,3.4763,3.4733,3.4371,3.4743,3.5453,3.6051,3.5828,3.5243,3.8285,4.1405,4.3718,4.2506,4.5993,4.9554,5.1426,5.3188,5.495,5.6712,5.9758,6.1777,6.1777,6.0823,6.0199,6.0199,5.8731,5.7042,5.528,5.3812,5.2197,5.0435,4.7993,4.5626,4.3314,4.2213,3.9827,3.6083,3.6083,3.5275,3.3807,3.3807,3.3807,3.3807,3.3807,3.3807,3.3807,3.3807,3.3807,3.3807,3.3807,3.3807,3.3807,3.3807,3.3807,3.3807,3.3807,3.3807,3.3823,3.4129,3.42,3.4258,3.4645,3.4898,3.5034,3.5157,3.5278,3.5458,3.5493,3.55,3.55,3.55,3.55,3.55,3.55,3.55,3.55,3.55,3.5385,3.5045,3.4321,0.0,0.0,0.0,0.0,0.0,0.0,0.0,0.0,3.2622,3.0698,2.9621,3.0346,2.8543,2.7248,2.7133,2.5624,2.5378,0.0,0.0,2.7514,0.0,3.006,3.1316,0.0,0.0,3.3554,3.4272,3.4393,3.4466,3.4415,3.4566,3.4572,3.4529,3.4582,3.4603,3.4624,3.4926,3.5025,3.4999,3.4705,3.4716,3.4932,3.5689,3.6171,3.6565,4.3534,4.5259,4.6728,4.7241,5.0308,5.3371,5.539,5.7776,5.8694,5.6969,5.8841,5.9979,5.9171,5.9869,6.0236,5.9832,5.8694,5.7299,5.5706,5.4473,5.2931,5.0875,4.88,4.6581,4.4195,4.2506,4.012,3.6942,3.6046,3.5188,3.4417,3.4417,3.4417,3.438,3.399,3.4027,3.438,3.399,3.4284,3.5055,3.4601,3.4688,3.5055,3.4614,3.4417,3.4371,3.4114,3.4006,3.4018,3.414,3.4304,3.4518,3.4794,3.499,3.5141,3.5254,3.5316,3.5339,3.5472,3.55,3.55,3.55,3.55,3.55,3.55,3.55,3.55,3.55,3.55,3.5231,3.4359,3.4237,0.0,0.0,0.0,0.0,0.0,0.0,3.1852,0.0,3.0814,2.9929,3.0346,2.9178,2.8216,2.7794,2.6416,2.6166,0.0,0.0,2.8394,0.0,0.0,0.0,3.2562,0.0,3.4699,3.5111,3.5102,3.5034,3.4917,3.4917,3.4841,3.4723,3.486,3.4917,3.4935,3.5198,3.5324,3.53,3.5473,3.579,3.6226,3.6938,3.7615,3.8203,4.8563,4.937,5.0398,5.2197,5.4766,5.6969,5.8107,6.086,6.1447,5.7629,5.8217,5.8474,5.7005,5.8988,6.0089,5.9258,5.8474,5.7299,5.5706,5.484,5.3335,5.0912,4.937,4.7352,4.4764,4.2673,4.0341,0.0,0.0,0.0,3.5261,3.5078,3.5004,3.4968,3.4541,3.4688,0.0,0.0,3.5092,3.6229,3.5555,3.5679,3.6193,3.5334,3.5114,3.5156,3.4451,3.4311,3.4472,3.4344,3.4529,3.4822,3.4963,3.5077,3.5223,3.5458,3.5354,3.5223,3.542,3.55,3.55,3.55,3.55,3.55,3.55,3.55,3.55,3.55,3.55,3.5269,3.4584,3.5045,0.0,0.0,0.0,0.0,0.0,0.0,3.1698,0.0,0.0,0.0,3.0385,2.9621,2.8896,2.8467,2.7328,2.7157,2.8385,0.0,0.0,0.0,0.0,3.3006,3.316,0.0,3.5577,3.5731,3.5577,3.5383,3.519,3.519,3.506,3.4889,3.5077,3.519,3.5207,3.5398,3.5615,3.5794,3.6219,3.6871,3.7686,3.8345,3.8942,3.9324,5.0398,5.2894,5.4766,5.4252,5.7373,5.9758,5.9184,6.1202,6.2633,6.2218,6.223,6.2034,6.1117,6.0676,6.0089,5.9258,5.8474,5.7299,5.5706,5.484,5.3335,5.0912,4.9958,4.7976,4.4782,4.3754,4.1735,0.0,0.0,3.6905,0.0,3.5371,3.5004,3.5041,0.0,0.0,0.0,3.6083,3.6156,3.6303,3.6193,3.6229,3.6193,3.5334,3.5481,3.6015,3.4674,3.4721,3.5279,3.4814,3.4851,3.5016,3.4812,3.506,3.5479,3.5493,3.5486,3.5479,3.5493,3.55,3.55,3.55,3.55,3.55,3.55,3.55,3.55,3.55,3.55,3.5462,3.5385,3.5423,3.5192,0.0,0.0,0.0,0.0,0.0,3.1698,3.1698,0.0,0.0,3.0385,2.9621,2.939,3.0115,2.8687,2.8456,0.0,0.0,0.0,3.0231,3.1968,3.3276,3.409,3.5007,3.5885,3.6577,3.5846,3.5493,3.5472,3.5472,3.5465,3.5412,3.5465,3.5472,3.5472,3.5493,3.5923,3.6577,3.664,3.7209,3.8055,3.8885,3.9091,3.8917,5.4326,5.506,5.6088,5.7703,5.8547,5.9501,6.1092,6.2156,6.278,6.278,6.2401,6.1594,6.0309,5.9869,5.9551,5.9221,5.8474,5.7299,5.5706,5.528,5.3812,5.0949,5.0472,4.9003,4.6195,4.4892,4.2873,0.0,0.0,0.0,0.0,0.0,0.0,0.0,0.0,3.7015,3.7015,3.7015,3.7294,3.7698,3.7235,3.7603,3.8322,3.7,3.7,3.7625,3.6969,3.6934,3.7243,3.724,3.6281,3.5069,3.4972,3.5198,3.55,3.55,3.55,3.55,3.55,3.55,3.55,3.55,3.55,3.55,3.55,3.55,3.55,3.55,3.55,3.55,3.55,3.55,3.5385,3.5045,0.0,0.0,0.0,0.0,0.0,3.1698,0.0,3.0385,3.0385,3.0077,3.0,3.0385,2.9275,0.0,0.0,0.0,0.0,3.1154,0.0,3.3314,3.4205,3.5045,3.5654,3.5962,3.5654,3.55,3.55,3.55,3.55,3.55,3.55,3.5769,3.6231,3.6231,3.6731,3.7546,3.8046,3.8469,3.8892,3.9708,3.9961,3.987,5.7776,5.7593,5.8143,6.0676,6.0382,6.0456,6.2511,6.278,6.2732,6.2475,6.1741,6.0896,6.0015,5.9685,5.9441,5.9221,5.8253,5.7042,5.5706,5.5354,5.3995,5.1279,5.0949,0.0,4.748,4.5865,4.4011,4.1809,4.1001,0.0,0.0,0.0,0.0,0.0,3.8447,3.8447,3.8227,3.8484,3.8802,3.9165,3.875,3.9295,4.0234,3.875,3.8689,3.9332,3.8902,3.8912,3.912,3.9309,3.784,3.5903,3.5569,3.5461,3.55,3.55,3.55,3.55,3.55,3.55,3.55,3.55,3.55,3.55,3.55,3.55,3.55,3.55,3.55,3.55,3.55,3.55,3.55,3.55,0.0,0.0,0.0,3.3353,0.0,3.2083,3.1308,3.0692,3.0423,3.0385,3.0385,3.0385,0.0,0.0,0.0,0.0,0.0,0.0,0.0,0.0,3.4205,3.5045,3.55,3.55,3.55,3.55,3.55,3.55,3.55,3.55,3.5731,3.6192,3.6731,3.6962,3.7584,3.843,3.9053,3.9438,3.9708,4.0285,4.0516,4.0508,6.0052,6.097,6.1777,6.2658,6.3466,6.3759,6.2952,6.278,6.2511,6.1704,6.0896,6.0713,6.1484,6.086,6.0089,5.9258,5.774,5.6455,5.5669,5.484,5.3702,0.0,0.0,5.0031,4.8343,4.6728,4.5076,4.3478,0.0,0.0,4.1058,0.0,4.0634,3.9916,4.0691,4.0634,3.99,4.0744,4.0812,4.0421,4.0883,4.1256,4.145,4.0293,4.0377,4.0951,3.9939,4.0097,4.0733,4.0543,3.9354,3.7778,3.6651,3.5921,3.55,3.55,3.55,3.55,3.55,3.55,3.55,3.55,3.55,3.55,3.55,3.55,3.55,3.55,3.55,3.55,3.55,3.55,3.55,3.55,0.0,0.0,0.0,3.4737,0.0,3.3006,3.216,3.1346,3.0462,3.0385,3.0385,3.0385,0.0,0.0,0.0,0.0,0.0,3.1698,3.3314,0.0,3.4205,3.5045,3.55,3.55,3.55,3.55,3.55,3.55,3.55,3.5538,3.6346,3.6692,3.6769,3.7623,3.8507,3.9284,3.9284,3.9785,4.0477,4.0516,4.0516,4.0446,6.1117,6.1887,6.2511,6.2768,6.3025,6.3135,6.2842,6.278,6.2511,6.1704,6.1374,6.1117,6.0823,5.9575,5.8877,5.9148,5.8253,5.7042,0.0,5.5354,5.3995,5.1316,5.0949,5.0031,4.8343,4.7278,4.6214,4.5149,0.0,0.0,0.0,4.2983,4.258,4.2376,4.2616,4.2431,4.1898,4.2158,4.1983,4.1569,4.1702,4.2179,4.2647,4.1753,4.1887,4.2578,4.2549,4.2694,4.2927,4.3068,4.2354,4.1192,3.9637,3.7494,3.55,3.55,3.55,3.55,3.55,3.55,3.55,3.55,3.55,3.55,3.55,3.55,3.55,3.55,3.55,3.55,3.55,3.55,3.55,3.55,3.55,0.0,3.55,0.0,3.409,3.3821,3.3045,3.2429,3.2122,3.2083,0.0,0.0,0.0,0.0,0.0,0.0,0.0,0.0,3.3936,0.0,3.5084,3.5346,3.5769,3.6308,3.6308,3.6615,3.7199,3.7199,3.7199,3.7238,3.7469,3.793,3.8469,3.8777,3.9361,4.0131,4.0131,4.0285,4.0516,4.0516,4.0516,4.0508,6.2034,6.2475,6.278,6.278,6.278,6.267,6.2401,6.2365,6.2071,6.1263,6.0896,6.0529,6.0015,5.851,0.0,5.9074,5.7923,5.6675,5.5669,5.5023,5.3665,5.1353,5.0949,5.0178,4.882,4.7976,0.0,4.6361,4.621,4.5805,4.5149,4.479,4.4532,4.4396,4.4549,4.43,4.3744,4.3853,4.364,4.3194,4.271,4.2911,4.3386,4.2421,4.2561,4.3328,4.3732,4.4069,4.4388,4.4707,4.4047,4.2893,4.1816,3.9585,3.7199,3.6231,3.5962,3.5885,3.5577,3.55,3.55,3.55,3.55,3.55,3.55,3.55,3.55,3.55,3.55,3.55,3.55,3.55,3.55,3.55,3.55,3.55,3.55,0.0,3.4584,0.0,0.0,0.0,0.0,3.2891,3.2699,0.0,0.0,0.0,0.0,0.0,3.3622,3.4167,3.4507,3.5084,3.5923,3.5962,3.6385,3.7199,3.7199,3.7469,3.8007,3.8007,3.8007,3.8007,3.8354,3.8815,3.9323,3.9631,4.0054,4.0516,4.0516,4.0516,4.0516,4.0516,4.0516,4.0516,6.278,6.278,6.278,6.278,6.278,6.2548,6.1777,6.1667,6.1374,6.0529,5.9758,5.9221,5.9111,5.7776,5.7483,5.8964,0.0,0.0,5.5522,5.4069,5.2821,5.194,5.1132,5.0325,4.9537,4.871,4.7939,4.7205,4.678,4.6389,4.6065,4.638,4.6331,4.5956,4.629,4.605,4.5335,4.556,4.5456,4.5044,4.3803,4.3509,4.3721,4.2543,4.2586,4.3327,4.3694,4.4374,4.5114,4.5475,4.4547,4.3278,4.3201,4.2008,4.0169,3.7546,3.6769,3.6615,3.5731,3.55,3.55,3.55,3.55,3.55,3.55,3.55,3.55,3.55,3.55,3.55,3.55,3.55,3.55,3.55,3.55,3.55,3.55,3.55,3.5192,0.0,0.0,0.0,3.316,3.3083,3.3045,0.0,0.0,0.0,0.0,0.0,3.4359,3.4359,3.5161,3.5962,3.6769,3.6769,3.7238,3.8084,3.8161,3.8161,3.8161,3.8161,3.8161,3.8238,3.9015,3.94,3.9438,4.0208,4.0516,4.0516,4.0516,4.0516,4.0516,4.0516,4.0516,4.0516,6.278,6.278,6.278,6.278,6.278,6.2768,6.2548,6.2511,6.2034,6.0603,6.0236,5.9648,5.8437,5.7923,5.7886,5.8253,5.6638,5.5317,5.473,5.3739,5.2564,5.1169,5.0288,4.9481,4.8636,4.8416,4.8347,4.8464,4.7748,4.7516,4.7627,4.7108,4.6667,4.6277,4.6046,4.5843,4.5608,4.4661,4.476,4.5351,4.379,4.356,4.4075,4.3167,4.2986,4.3225,4.3942,4.4305,4.4592,4.5337,4.5325,4.4902,4.4239,4.3316,4.1854,3.8623,3.77,3.7353,3.5885,3.55,3.55,3.55,3.55,3.55,3.55,3.55,3.55,3.55,3.55,3.55,3.55,3.55,3.55,3.55,3.55,3.55,3.55,3.55,3.5423,0.0,3.5192,3.5115,3.4885,3.4885,3.4622,0.0,0.0,3.4891,3.4244,3.5391,3.6122,3.6122,3.6308,3.6808,3.77,3.77,3.8123,3.9015,3.9631,3.99,3.99,3.99,3.99,3.9938,4.0131,4.0208,4.0246,4.0439,4.0516,4.0516,4.0516,4.0516,4.0516,4.0516,4.0516,4.0516,6.278,6.278,6.278,6.278,6.278,6.2695,6.2328,6.2254,6.1667,6.0052,5.9869,5.9391,5.8143,5.7666,5.7446,5.7446,5.6308,5.539,5.4987,5.3849,5.2491,5.0875,5.0362,4.9554,4.8343,4.8306,4.8514,4.8878,4.8642,4.8619,4.8772,4.8121,4.7621,4.7207,4.6766,4.6582,4.6531,4.602,4.5928,4.6086,4.4778,4.4278,4.4201,4.3393,4.3085,4.3162,4.3585,4.3739,4.3816,4.4278,4.447,4.4432,4.4316,4.4008,4.3201,4.0969,3.9238,3.7815,3.6892,3.6077,3.5577,3.5962,3.6038,3.6154,3.6538,3.6654,3.6538,3.6115,3.6038,3.5923,3.5577,3.55,3.55,3.55,3.55,3.55,3.55,3.55,3.55,3.55,3.55,3.55,3.55,3.55,3.5308,3.4814,3.5577,0.0,3.5353,3.6969,3.7507,3.6731,3.7084,3.77,3.8584,3.8969,3.9585,4.0431,4.0477,4.0939,4.1662,4.0862,4.0708,4.1085,4.0669,4.0516,4.0516,4.0516,4.0746,4.1085,4.1085,4.1354,4.1623,4.1239,4.1085,4.1046,6.278,6.278,6.278,6.278,6.278,6.2585,6.1887,6.1777,6.119,5.9588,5.9368,5.9024,5.8107,5.7409,5.6969,5.6969,5.6235,5.5684,5.5427,5.3922,5.2344,5.0875,5.0692,4.9884,4.8343,4.8306,4.8513,4.8978,4.9326,4.9561,4.9673,4.9276,4.8744,4.8115,4.7881,4.7606,4.7354,4.7741,4.7586,4.6971,4.5855,4.5056,4.4393,4.347,4.3008,4.2931,4.3047,4.3008,4.2931,4.3047,4.3085,4.3201,4.3893,4.4124,4.397,4.3316,4.0969,3.8507,3.8277,3.7046,3.6038,3.6731,3.6885,3.7084,3.7815,3.8007,3.7777,3.7038,3.6885,3.6654,3.5846,3.5692,3.5654,3.5538,3.55,3.55,3.55,0.0,3.5538,3.5654,3.5692,3.5731,3.5846,3.5885,3.5923,3.6077,3.6577,3.7,3.7276,3.8661,3.8854,3.75,3.82,3.9008,3.9861,4.0554,4.1239,4.2,4.1239,4.1662,4.3047,4.1431,4.1085,4.1731,4.0893,4.0516,4.0516,4.0631,4.1123,4.1808,4.1923,4.247,4.3008,4.2277,4.2,4.1854,6.278,6.278,6.278,6.278,6.278,6.2768,6.2658,6.2622,6.2034,6.0419,6.0236,5.9648,5.8143,5.7886,5.7813,5.7813,5.7079,5.6051,5.4693,5.3078,5.1756,5.0839,5.0141,4.9297,4.8343,4.8306,4.8676,4.9401,4.946,4.9859,5.0504,5.043,4.9433,4.7712,4.8677,4.814,4.6511,4.6897,4.7432,4.7702,4.5432,4.4855,4.5248,4.3701,4.2624,4.2085,4.2854,4.2624,4.2124,4.2854,4.3085,4.3124,4.3239,4.3278,4.3278,4.3124,4.22,4.0893,3.9469,3.8354,3.7623,3.7777,3.7815,3.7815,3.7969,3.8007,3.7969,3.7815,3.7815,3.7546,3.6654,3.65,3.6308,3.5615,3.55,3.55,3.55,0.0,3.5731,3.6423,3.65,3.6808,3.7546,3.7623,3.793,3.8661,3.8123,3.843,3.9823,4.0169,4.0508,4.1,4.1154,4.1623,4.2508,4.2624,4.2777,4.2893,4.2777,4.2854,4.3085,4.2047,4.1662,4.1731,4.0893,4.0516,4.0554,4.1277,4.17,4.1885,4.2624,4.297,4.3085,4.2931,4.2893,4.2777,6.278,6.278,6.278,6.278,6.278,6.278,6.278,6.278,6.2401,6.119,6.0676,5.9942,5.8767,5.8253,5.7997,5.7997,5.7262,5.6492,5.5757,5.4179,5.2564,5.0875,5.0435,4.9848,4.9003,4.8753,4.9101,5.0168,5.0344,5.0784,5.1356,5.1356,5.0604,4.9273,4.9346,4.8606,4.7307,4.7962,4.8202,4.8048,4.7317,4.7009,4.6817,4.5624,4.4624,4.3855,4.3778,4.3201,4.2508,4.2431,4.2393,4.247,4.2931,4.3085,4.3278,4.4162,4.2854,4.0931,4.0169,3.8969,3.8238,3.9123,3.9008,3.9046,4.0431,4.0392,4.0046,4.0046,3.9662,3.8815,3.7038,3.6692,3.6577,3.6192,3.5769,0.0,3.6077,3.6154,3.6269,3.6654,3.7123,3.7546,3.7969,3.843,3.8854,3.9284,3.9777,4.0392,4.1162,4.2047,4.2739,4.3124,4.2739,4.2701,4.3085,4.3085,4.3316,4.3739,4.3316,4.3585,4.4393,4.3085,4.2739,4.3085,4.2239,4.1623,4.1277,4.2124,4.2508,4.2585,4.3431,4.4047,4.4393,4.3932,4.3739,4.3624,6.278,6.278,6.278,6.278,6.278,6.278,6.278,6.278,6.2438,6.1447,6.0786,6.0015,5.9024,5.8364,5.7997,5.7997,5.7446,5.7005,5.6822,5.5647,5.3885,5.1463,5.0986,5.0508,4.9904,4.9415,4.969,5.0681,5.1089,5.1614,5.2192,5.2423,5.2087,5.1241,5.0779,4.9894,4.8779,4.9625,4.951,4.874,4.9202,4.8894,4.8009,4.7192,4.6355,4.5479,4.4624,4.3893,4.3239,4.2393,4.2085,4.2239,4.2893,4.3239,4.3585,4.471,4.317,4.1093,4.1093,4.0162,3.9546,4.1016,4.0939,4.0969,4.2931,4.3008,4.2624,4.2431,4.17,4.0431,3.8269,3.7738,3.7469,3.7084,0.0,3.6538,3.6923,3.7,3.7161,3.7546,3.8161,3.8738,3.9161,3.9777,4.0246,4.0439,4.147,4.2277,4.2662,4.3701,4.4393,4.4586,4.4008,4.3662,4.3662,4.3662,4.397,4.4586,4.397,4.4355,4.5556,4.4047,4.3701,4.4239,4.3431,4.2739,4.2162,4.3047,4.3393,4.347,4.4278,4.5017,4.5518,4.4855,4.4586,4.447,6.278,6.278,6.278,6.278,6.278,6.278,6.278,6.278,6.2254,6.0713,6.0456,5.9795,5.8253,5.8033,5.7997,5.7997,5.796,5.7593,5.6859,5.6712,5.5574,5.3151,5.161,5.0765,5.0729,5.025,5.0235,5.0681,5.1089,5.1932,5.3126,5.3933,5.3857,5.3049,5.378,5.2779,5.0558,5.1356,5.1241,5.0442,4.9702,4.8894,4.8009,4.7192,4.6355,4.5479,4.4624,4.4239,4.4085,4.3278,4.3008,4.3008,4.3085,4.3624,4.4085,4.347,4.3124,4.2893,4.2893,4.2816,4.2931,4.3816,4.397,4.397,4.4162,4.4778,4.5094,4.4278,4.347,4.2585,4.1615,4.0777,3.9708,3.8161,0.0,0.0,3.8007,3.7892,3.8469,4.0054,4.0285,4.0939,4.2585,4.2777,4.3124,4.3893,4.3355,4.3662,4.5248,4.4662,4.4662,4.5479,4.5441,4.5441,4.5441,4.5441,4.5441,4.5518,4.5441,4.5479,4.5556,4.4624,4.4239,4.4239,4.3431,4.3047,4.3085,4.3893,4.4201,4.4316,4.5171,4.5556,4.5594,4.5518,4.5518,4.5364,6.278,6.278,6.278,6.278,6.278,6.278,6.278,6.278,6.2401,6.13,6.0713,5.9979,5.8877,5.829,5.7997,5.7997,5.7556,5.7336,5.7519,5.6602,5.4987,5.2564,5.1389,5.0802,5.0802,5.0644,5.0808,5.142,5.2132,5.2713,5.3241,5.4087,5.4318,5.401,5.378,5.2856,5.1433,5.1241,5.0971,5.0673,5.0327,5.001,4.9625,4.8779,4.824,4.7855,4.6971,4.6355,4.5778,4.4932,4.4278,4.3855,4.3855,4.4047,4.4355,4.4586,4.4662,4.4662,4.4662,4.3893,4.3278,4.4085,4.3932,4.397,4.5547,4.5316,4.5009,4.5778,4.4816,4.3585,4.2777,4.1893,4.1431,4.1854,0.0,4.0931,4.1123,4.1162,4.12,4.1277,4.1777,4.2354,4.3047,4.3547,4.397,4.4278,4.4509,4.494,4.5556,4.5287,4.5248,4.5594,4.5594,4.5594,4.5594,4.5594,4.5594,4.5594,4.5594,4.5594,4.5594,4.5248,4.5094,4.5094,4.4786,4.4355,4.3893,4.4739,4.4778,4.4393,4.5248,4.5594,4.5594,4.5594,4.5594,4.5556,6.278,6.278,6.278,6.278,6.278,6.278,6.278,6.278,6.2438,6.1374,6.075,6.0015,5.8951,5.8327,5.7997,5.7997,5.7483,5.7409,5.796,5.7111,5.5486,5.3051,5.2444,5.2116,5.1973,5.1694,5.1865,5.2483,5.3257,5.3626,5.3626,5.4472,5.4895,5.4857,5.4241,5.351,5.2702,5.2125,5.1587,5.1087,5.1087,5.0741,5.025,4.9625,4.9394,4.9279,4.8394,4.7932,4.7509,4.6394,4.5624,4.5086,4.4778,4.4701,4.4816,4.5441,4.5787,4.6009,4.6009,4.5355,4.4739,4.5047,4.4701,4.4739,4.65,4.6163,4.5778,4.6701,4.597,4.4932,4.4393,4.3816,4.3701,4.4586,4.3739,4.3124,4.3431,4.347,4.3239,4.2662,4.3355,4.3893,4.3893,4.4393,4.4701,4.4701,4.5248,4.5594,4.5594,4.5594,4.5594,4.5594,4.5594,4.5594,4.5594,4.5594,4.5594,4.5594,4.5594,4.5594,4.5594,4.5594,4.5594,4.5594,4.5594,4.5248,4.4739,4.5364,4.5248,4.4778,4.5364,4.5594,4.5594,4.5594,4.5594,4.5594,6.278,6.278,6.278,6.278,6.278,6.278,6.278,6.278,6.2218,6.0603,6.0419,5.9795,5.818,5.7997,5.7997,5.7997,5.7997,5.7997,5.7997,5.8439,5.7595,5.5118,5.51,5.4909,5.4506,5.3676,5.3406,5.3798,5.4292,5.4511,5.4511,5.5318,5.5703,5.5703,5.5703,5.5241,5.4511,5.4472,5.351,5.1923,5.1923,5.0933,4.9433,4.9433,4.9433,4.9317,4.8471,4.8702,4.9163,4.7509,4.6923,4.6778,4.5893,4.5594,4.5594,4.5633,4.624,4.6885,4.6923,4.7509,4.7932,4.7115,4.6923,4.6923,4.6923,4.7509,4.7855,4.7077,4.6885,4.6885,4.6923,4.6923,4.6624,4.5787,4.5633,4.5325,4.447,4.4316,4.4316,4.4316,4.5094,4.5594,4.5594,4.5594,4.5594,4.5594,4.5594,4.5594,4.5594,4.5594,4.5594,4.5594,4.5594,4.5594,4.5594,4.5594,4.5594,4.5594,4.5594,4.5594,4.5594,4.5594,4.5594,4.5594,4.5594,4.5594,4.5594,4.5594,4.5594,4.5594,4.5594,4.5594,4.5594,4.5594,4.5594,4.5594,6.278,6.278,6.278,6.278,6.278,6.278,6.278,6.278,6.2218,6.0603,6.0419,5.9795,5.818,5.7997,5.7997,5.7997,5.7997,5.7776,5.7189,5.8438,5.8349,5.6414,5.6391,5.5835,5.4516,5.4524,5.4289,5.3798,5.4292,5.4511,5.4511,5.4741,5.5164,5.5665,5.5126,5.4703,5.4472,5.3857,5.328,5.2818,5.2818,5.251,5.2087,5.2087,5.2087,5.2049,5.1779,5.1471,5.101,4.9933,4.9163,4.8509,4.7625,4.6547,4.5825,4.7009,4.7124,4.7,4.7586,4.7932,4.8048,4.7817,4.774,4.774,4.774,4.7509,4.7355,4.7702,4.7278,4.7077,4.7625,4.774,4.7855,4.8202,4.8279,4.8163,4.7932,4.7355,4.6778,4.6201,4.5817,4.5594,4.5594,4.5594,4.5594,4.5594,4.5594,4.5594,4.5594,4.5594,4.5594,4.5594,4.5594,4.5594,4.5594,4.5594,4.5594,4.5594,4.5594,4.5594,4.5594,4.5594,4.5594,4.5594,4.5594,4.5594,4.5594,4.5594,4.5594,4.5594,4.5594,4.5594,4.5671,4.6278,4.6124,4.571,6.278,6.278,6.278,6.278,6.278,6.278,6.278,6.278,6.2365,6.1043,6.0603,5.9905,5.8621,5.8474,5.8364,5.8033,5.7997,5.8037,5.8039,5.8877,5.9022,5.8202,5.8365,5.7554,5.5521,5.5565,5.5275,5.4534,5.4847,5.4972,5.4972,5.4972,5.5241,5.5665,5.5203,5.4972,5.4934,5.4395,5.401,5.3703,5.3703,5.351,5.3203,5.3203,5.3203,5.3203,5.3203,5.2654,5.1769,5.0971,4.9894,4.8779,4.8279,4.7394,4.6778,4.7817,4.8009,4.8009,4.8471,4.8856,4.9125,4.9125,4.8625,4.8086,4.8086,4.774,4.7509,4.8009,4.8279,4.8432,4.8586,4.9433,5.0202,5.0356,5.0394,5.0279,4.9971,4.9471,4.8702,4.7509,4.6894,4.6471,4.6163,4.5787,4.5594,4.5594,4.5594,4.5594,4.5594,4.5932,4.597,4.5594,4.5932,4.6124,4.6124,4.6124,4.5932,4.5594,4.5594,4.5594,4.5594,4.5594,4.5594,4.5594,4.5594,4.5594,4.5594,4.5594,4.5594,4.5594,4.5594,4.5594,4.5671,4.6201,4.6047,4.5671,6.278,6.278,6.278,6.278,6.278,6.278,6.278,6.278,6.2511,6.1704,6.097,6.0162,5.9294,5.9258,5.8988,5.818,5.818,5.8702,5.9871,5.9685,5.9652,6.0006,6.0521,5.9665,5.7291,5.6779,5.6307,5.5818,5.5742,5.5703,5.5703,5.5703,5.5703,5.5703,5.5703,5.5703,5.5703,5.5703,5.528,5.4626,5.4626,5.4126,5.3433,5.3433,5.3433,5.3433,5.3433,5.2856,5.2,5.1125,4.9663,4.824,4.8317,4.824,4.8125,4.8279,4.8856,4.9433,4.951,5.0087,5.0712,5.0712,4.951,4.8317,4.824,4.824,4.824,4.824,4.9471,5.0327,4.9548,5.1433,5.2818,5.1923,5.1846,5.1654,5.0894,5.0673,4.9971,4.8394,4.824,4.7932,4.7192,4.6394,4.5902,4.5825,4.5825,4.5825,4.5825,4.6586,4.6624,4.5864,4.6586,4.7,4.7,4.7,4.6624,4.5825,4.5825,4.5825,4.5825,4.5825,4.5787,4.571,4.571,4.5671,4.5594,4.5594,4.5594,4.5594,4.5594,4.5594,4.5594,4.571,4.5671,4.5594,6.278,6.278,6.278,6.278,6.278,6.278,6.278,6.278,6.2511,6.1704,6.1447,6.0786,5.9368,5.9735,5.9832,5.9001,5.9538,5.9989,6.0277,6.0334,6.0086,5.958,6.0351,6.0204,5.8973,5.8262,5.7493,5.6714,5.6011,5.5703,5.5703,5.5703,5.5703,5.5703,5.5703,5.5703,5.5703,5.5703,5.5588,5.5434,5.5434,5.5318,5.5164,5.5164,5.5164,5.5164,5.5164,5.4626,5.3703,5.2164,5.051,4.924,4.9933,4.9202,4.8355,4.974,4.9779,4.9548,5.025,5.0558,5.0712,5.0712,5.0442,4.9971,4.9279,4.9125,4.9125,4.9125,4.9433,4.9625,4.9433,5.0933,5.1933,5.1087,5.151,5.1846,5.1654,5.051,4.9548,4.9163,4.9125,4.9048,4.8856,4.8702,4.8279,4.7625,4.7548,4.7548,4.7548,4.774,4.774,4.7548,4.774,4.7855,4.7855,4.7855,4.774,4.7548,4.7548,4.7548,4.7548,4.7548,4.7201,4.6624,4.6624,4.624,4.5594,4.5594,4.5594,4.5594,4.5594,4.5594,4.5671,4.6355,4.6201,4.5594,6.278,6.278,6.278,6.278,6.278,6.278,6.278,6.278,6.2658,6.2218,6.1851,6.1117,5.9905,6.0493,6.097,6.0909,6.0603,6.0789,6.1645,6.1036,6.0619,6.0684,6.0751,6.0589,6.0127,5.8934,5.7857,5.6983,5.6126,5.5703,5.5703,5.5703,5.5703,5.5703,5.5703,5.5703,5.5703,5.5703,5.5703,5.5703,5.5703,5.5703,5.5703,5.5703,5.5703,5.5703,5.5703,5.4934,5.3626,5.1895,5.0741,5.0087,5.0558,5.0048,4.951,5.0442,5.0366,5.0125,5.0596,5.0712,5.0712,5.0712,5.0712,5.0596,5.0125,5.001,5.001,5.001,5.0317,5.0471,5.0087,5.1741,5.2741,5.1471,5.2318,5.2856,5.2,5.1154,5.0587,5.0587,4.9894,4.924,4.8817,4.8779,4.8586,4.8125,4.8086,4.8086,4.8086,4.8509,4.8548,4.8125,4.8509,4.8702,4.8702,4.8702,4.8933,4.9317,4.8509,4.8086,4.8086,4.8086,4.7663,4.6885,4.6885,4.6394,4.5594,4.5594,4.5594,4.5594,4.5594,4.5855,4.624,4.6278,4.597,4.5671,6.2817,6.278,6.278,6.278,6.278,6.278,6.278,6.278,6.278,6.278,6.2218,6.1447,6.0493,6.086,6.163,6.2732,6.1447,6.1277,6.288,6.1618,6.1164,6.1953,6.1219,6.0781,6.0781,5.9165,5.7934,5.7214,5.6203,5.5703,5.5703,5.5703,5.5703,5.5703,5.5703,5.5703,5.5703,5.5703,5.5703,5.5703,5.5703,5.5703,5.5703,5.5703,5.5703,5.5703,5.5703,5.4626,5.2933,5.1279,5.0712,5.0712,5.0712,5.0712,5.0712,5.0712,5.0712,5.0712,5.0712,5.0712,5.0712,5.0712,5.0712,5.0712,5.0712,5.0712,5.0712,5.0712,5.1241,5.151,5.0827,5.2549,5.3587,5.2115,5.3126,5.3549,5.2115,5.1769,5.1692,5.1692,5.0587,4.9548,4.8817,4.874,4.8702,4.8548,4.8548,4.8548,4.8548,4.924,4.9279,4.8586,4.924,4.9625,4.9625,4.9625,4.9971,5.0673,4.924,4.8548,4.8548,4.8548,4.8086,4.7317,4.7317,4.674,4.5825,4.5825,4.5748,4.5594,4.5594,4.6047,4.6624,4.6009,4.5825,4.5932,6.2952,6.278,6.278,6.278,6.278,6.278,6.278,6.278,6.278,6.278,6.2732,6.2071,6.0566,5.9905,6.0395,6.2597,6.1961,6.1721,6.2449,6.1938,6.1599,6.1511,6.1058,6.0781,6.0781,5.9165,5.8242,5.8127,5.6511,5.5703,5.5703,5.5703,5.5703,5.5703,5.5703,5.5703,5.5703,5.5703,5.5703,5.5703,5.5703,5.5703,5.5703,5.5703,5.5703,5.5703,5.5703,5.4626,5.2933,5.1279,5.0712,5.0712,5.0712,5.0712,5.0712,5.0712,5.0712,5.0712,5.0712,5.0712,5.0712,5.0712,5.0712,5.0712,5.0712,5.0712,5.0712,5.0712,5.0789,5.0827,5.0712,5.1548,5.2154,5.1923,5.2115,5.2154,5.1923,5.1318,5.0856,5.0856,5.1279,5.15,5.1385,5.1385,5.1087,5.0394,5.0366,5.0366,5.0366,5.0481,5.0481,5.0366,5.0481,5.0519,5.0519,5.0519,5.0596,5.0712,5.0481,5.0366,5.0366,5.0366,4.9894,4.9048,4.9048,4.8163,4.674,4.674,4.6278,4.5594,4.5594,4.5671,4.5864,4.6509,4.674,4.6855,6.2989,6.278,6.278,6.278,6.278,6.278,6.278,6.278,6.2658,6.2181,6.2144,6.152,5.9905,5.9832,6.0676,6.2633,6.2754,6.294,6.3493,6.3139,6.2779,6.2475,6.1862,6.1281,6.0819,5.9588,5.8973,5.8973,5.678,5.5703,5.5703,5.5703,5.5703,5.5703,5.5703,5.5703,5.5703,5.5703,5.5703,5.5703,5.5703,5.5703,5.5703,5.5703,5.5703,5.5626,5.5203,5.4241,5.301,5.1779,5.1087,5.0712,5.0712,5.0712,5.0712,5.0712,5.0712,5.0712,5.0712,5.0712,5.0712,5.0712,5.0712,5.0712,5.0712,5.0712,5.0712,5.0712,5.0712,5.0712,5.0712,5.1356,5.1731,5.1318,5.1625,5.1731,5.1279,5.0933,5.0712,5.0712,5.1395,5.1731,5.1279,5.1241,5.1087,5.075,5.0712,5.0712,5.0712,5.0712,5.0712,5.0712,5.0712,5.0712,5.0712,5.0712,5.0712,5.0712,5.0712,5.0712,5.0712,5.0712,5.0202,4.9394,4.9394,4.8702,4.7586,4.7586,4.7086,4.6317,4.6317,4.6317,4.6471,4.7817,4.8009,4.7625]}]]